<?xml version="1.0" encoding="UTF-8" standalone="no" ?>
<gpx xmlns="http://www.topografix.com/GPX/1/1" xmlns:xsi="http://www.w3.org/2001/XMLSchema-instance" xsi:schemaLocation="http://www.topografix.com/GPX/1/1 http://www.topografix.com/GPX/1/1/gpx.xsd" version="1.1" creator="VisuGPX - https://www.visugpx.com">
  <metadata>
    <name>rando beganne 2013</name>
    <desc><![CDATA[bonne rando bien beaucoup de single]]></desc>
  </metadata>
  <trk>
    <name><![CDATA[2013-07-14 07:46]]></name>
    <desc><![CDATA[<h1>OruxMaps</h1><br /><hr align="center" width="480" style="height: 2px; width: 517px"/><h2>Nom: 2013-07-14 07:46</h2><br /><p>Temps de départ: 07/14/2013 07:46</p><p>Temps d'arrivée: 07/14/2013 11:23</p><p>Distance: 42,7 km (03:37)</p><p>Temps déplacement: 02:27</p><p>Vitesse moyenne: 11,8 km/h</p><p>Vitesse moyenne: 17,4 km/h</p><p>Vitess Max.: 54 km/h</p><p>Altitude minimale: 6 m</p><p>Altitude maximale: 112 m</p><p>Vitesse d'élévation: 531,8 m/h</p><p>Vitesse de descente: -727,6 m/h</p><p>Gain Altitude: 851 m</p><p>Perte Altitude: -867 m</p><p>Temps d'élévation: 01:36</p><p>Temps de descente: 01:11</p><hr align="center" width="480" style="height: 2px; width: 517px"/>]]></desc>
    <trkseg>
      <trkpt lat="47.5974" lon="-2.24376">
        <ele>60.65</ele>
        <time>2013-07-14T05:46:34Z</time>
      </trkpt>
      <trkpt lat="47.59757" lon="-2.24389">
        <ele>56.06</ele>
        <time>2013-07-14T05:47:40Z</time>
      </trkpt>
      <trkpt lat="47.59774" lon="-2.244">
        <ele>53.58</ele>
        <time>2013-07-14T05:47:47Z</time>
      </trkpt>
      <trkpt lat="47.59793" lon="-2.24407">
        <ele>51.43</ele>
        <time>2013-07-14T05:47:53Z</time>
      </trkpt>
      <trkpt lat="47.59813" lon="-2.24414">
        <ele>50</ele>
        <time>2013-07-14T05:47:59Z</time>
      </trkpt>
      <trkpt lat="47.59815" lon="-2.24441">
        <ele>48.99</ele>
        <time>2013-07-14T05:48:04Z</time>
      </trkpt>
      <trkpt lat="47.59814" lon="-2.24468">
        <ele>48.77</ele>
        <time>2013-07-14T05:48:09Z</time>
      </trkpt>
      <trkpt lat="47.59811" lon="-2.24495">
        <ele>49.4</ele>
        <time>2013-07-14T05:48:13Z</time>
      </trkpt>
      <trkpt lat="47.59824" lon="-2.24517">
        <ele>49.73</ele>
        <time>2013-07-14T05:48:20Z</time>
      </trkpt>
      <trkpt lat="47.59847" lon="-2.2452">
        <ele>49.75</ele>
        <time>2013-07-14T05:48:24Z</time>
      </trkpt>
      <trkpt lat="47.59865" lon="-2.24523">
        <ele>49.5</ele>
        <time>2013-07-14T05:48:27Z</time>
      </trkpt>
      <trkpt lat="47.59885" lon="-2.24526">
        <ele>49.3</ele>
        <time>2013-07-14T05:48:30Z</time>
      </trkpt>
      <trkpt lat="47.59905" lon="-2.24534">
        <ele>47.9</ele>
        <time>2013-07-14T05:48:33Z</time>
      </trkpt>
      <trkpt lat="47.59923" lon="-2.24537">
        <ele>46.43</ele>
        <time>2013-07-14T05:48:36Z</time>
      </trkpt>
      <trkpt lat="47.59943" lon="-2.24527">
        <ele>45.32</ele>
        <time>2013-07-14T05:48:39Z</time>
      </trkpt>
      <trkpt lat="47.59968" lon="-2.24517">
        <ele>42.82</ele>
        <time>2013-07-14T05:48:42Z</time>
      </trkpt>
      <trkpt lat="47.59988" lon="-2.24525">
        <ele>39.21</ele>
        <time>2013-07-14T05:48:46Z</time>
      </trkpt>
      <trkpt lat="47.59993" lon="-2.24557">
        <ele>36.25</ele>
        <time>2013-07-14T05:48:50Z</time>
      </trkpt>
      <trkpt lat="47.59997" lon="-2.24583">
        <ele>34.43</ele>
        <time>2013-07-14T05:48:53Z</time>
      </trkpt>
      <trkpt lat="47.59991" lon="-2.24615">
        <ele>33.28</ele>
        <time>2013-07-14T05:48:57Z</time>
      </trkpt>
      <trkpt lat="47.59978" lon="-2.24637">
        <ele>33.01</ele>
        <time>2013-07-14T05:49:01Z</time>
      </trkpt>
      <trkpt lat="47.59969" lon="-2.24669">
        <ele>32.85</ele>
        <time>2013-07-14T05:49:05Z</time>
      </trkpt>
      <trkpt lat="47.5996" lon="-2.24696">
        <ele>32.45</ele>
        <time>2013-07-14T05:49:09Z</time>
      </trkpt>
      <trkpt lat="47.59957" lon="-2.24723">
        <ele>31.69</ele>
        <time>2013-07-14T05:49:13Z</time>
      </trkpt>
      <trkpt lat="47.59974" lon="-2.24736">
        <ele>32.67</ele>
        <time>2013-07-14T05:49:18Z</time>
      </trkpt>
      <trkpt lat="47.59994" lon="-2.2475">
        <ele>32.86</ele>
        <time>2013-07-14T05:49:22Z</time>
      </trkpt>
      <trkpt lat="47.60013" lon="-2.24762">
        <ele>32.41</ele>
        <time>2013-07-14T05:49:26Z</time>
      </trkpt>
      <trkpt lat="47.6003" lon="-2.24774">
        <ele>32.25</ele>
        <time>2013-07-14T05:49:30Z</time>
      </trkpt>
      <trkpt lat="47.60049" lon="-2.24785">
        <ele>32.82</ele>
        <time>2013-07-14T05:49:35Z</time>
      </trkpt>
      <trkpt lat="47.60069" lon="-2.24796">
        <ele>33.29</ele>
        <time>2013-07-14T05:49:39Z</time>
      </trkpt>
      <trkpt lat="47.60087" lon="-2.24807">
        <ele>33.8</ele>
        <time>2013-07-14T05:49:44Z</time>
      </trkpt>
      <trkpt lat="47.60094" lon="-2.24834">
        <ele>35.63</ele>
        <time>2013-07-14T05:49:53Z</time>
      </trkpt>
      <trkpt lat="47.60089" lon="-2.24861">
        <ele>37.72</ele>
        <time>2013-07-14T05:50:01Z</time>
      </trkpt>
      <trkpt lat="47.60075" lon="-2.24879">
        <ele>40.08</ele>
        <time>2013-07-14T05:50:07Z</time>
      </trkpt>
      <trkpt lat="47.60076" lon="-2.24908">
        <ele>42.08</ele>
        <time>2013-07-14T05:50:13Z</time>
      </trkpt>
      <trkpt lat="47.60069" lon="-2.24933">
        <ele>45.96</ele>
        <time>2013-07-14T05:50:22Z</time>
      </trkpt>
      <trkpt lat="47.60063" lon="-2.24961">
        <ele>50.8</ele>
        <time>2013-07-14T05:50:31Z</time>
      </trkpt>
      <trkpt lat="47.60051" lon="-2.24981">
        <ele>53.37</ele>
        <time>2013-07-14T05:50:38Z</time>
      </trkpt>
      <trkpt lat="47.60039" lon="-2.25014">
        <ele>55.54</ele>
        <time>2013-07-14T05:50:50Z</time>
      </trkpt>
      <trkpt lat="47.60051" lon="-2.25034">
        <ele>56.46</ele>
        <time>2013-07-14T05:50:59Z</time>
      </trkpt>
      <trkpt lat="47.60061" lon="-2.25059">
        <ele>55.3</ele>
        <time>2013-07-14T05:51:09Z</time>
      </trkpt>
      <trkpt lat="47.60078" lon="-2.25046">
        <ele>53.7</ele>
        <time>2013-07-14T05:51:19Z</time>
      </trkpt>
      <trkpt lat="47.60092" lon="-2.25019">
        <ele>53.72</ele>
        <time>2013-07-14T05:51:24Z</time>
      </trkpt>
      <trkpt lat="47.60105" lon="-2.24995">
        <ele>54.44</ele>
        <time>2013-07-14T05:51:28Z</time>
      </trkpt>
      <trkpt lat="47.60115" lon="-2.2497">
        <ele>55.51</ele>
        <time>2013-07-14T05:51:32Z</time>
      </trkpt>
      <trkpt lat="47.60129" lon="-2.24949">
        <ele>56.3</ele>
        <time>2013-07-14T05:51:35Z</time>
      </trkpt>
      <trkpt lat="47.60144" lon="-2.2492">
        <ele>56.37</ele>
        <time>2013-07-14T05:51:38Z</time>
      </trkpt>
      <trkpt lat="47.6016" lon="-2.24892">
        <ele>55.48</ele>
        <time>2013-07-14T05:51:41Z</time>
      </trkpt>
      <trkpt lat="47.60174" lon="-2.24866">
        <ele>54.23</ele>
        <time>2013-07-14T05:51:44Z</time>
      </trkpt>
      <trkpt lat="47.60189" lon="-2.24842">
        <ele>51.97</ele>
        <time>2013-07-14T05:51:47Z</time>
      </trkpt>
      <trkpt lat="47.60203" lon="-2.24819">
        <ele>49.88</ele>
        <time>2013-07-14T05:51:50Z</time>
      </trkpt>
      <trkpt lat="47.60214" lon="-2.2479">
        <ele>48.05</ele>
        <time>2013-07-14T05:51:53Z</time>
      </trkpt>
      <trkpt lat="47.60226" lon="-2.24757">
        <ele>46.69</ele>
        <time>2013-07-14T05:51:56Z</time>
      </trkpt>
      <trkpt lat="47.60241" lon="-2.24727">
        <ele>45.73</ele>
        <time>2013-07-14T05:51:59Z</time>
      </trkpt>
      <trkpt lat="47.6026" lon="-2.247">
        <ele>44.99</ele>
        <time>2013-07-14T05:52:02Z</time>
      </trkpt>
      <trkpt lat="47.60274" lon="-2.24679">
        <ele>44.4</ele>
        <time>2013-07-14T05:52:04Z</time>
      </trkpt>
      <trkpt lat="47.60289" lon="-2.24651">
        <ele>43.56</ele>
        <time>2013-07-14T05:52:07Z</time>
      </trkpt>
      <trkpt lat="47.60303" lon="-2.24627">
        <ele>42.51</ele>
        <time>2013-07-14T05:52:10Z</time>
      </trkpt>
      <trkpt lat="47.6031" lon="-2.24598">
        <ele>41.01</ele>
        <time>2013-07-14T05:52:14Z</time>
      </trkpt>
      <trkpt lat="47.60312" lon="-2.24567">
        <ele>40.73</ele>
        <time>2013-07-14T05:52:19Z</time>
      </trkpt>
      <trkpt lat="47.60313" lon="-2.24536">
        <ele>39.97</ele>
        <time>2013-07-14T05:52:23Z</time>
      </trkpt>
      <trkpt lat="47.60317" lon="-2.24506">
        <ele>39.4</ele>
        <time>2013-07-14T05:52:27Z</time>
      </trkpt>
      <trkpt lat="47.6032" lon="-2.24477">
        <ele>38.2</ele>
        <time>2013-07-14T05:52:31Z</time>
      </trkpt>
      <trkpt lat="47.6032" lon="-2.24449">
        <ele>37.25</ele>
        <time>2013-07-14T05:52:36Z</time>
      </trkpt>
      <trkpt lat="47.60326" lon="-2.2442">
        <ele>36.01</ele>
        <time>2013-07-14T05:52:40Z</time>
      </trkpt>
      <trkpt lat="47.60331" lon="-2.24393">
        <ele>35.74</ele>
        <time>2013-07-14T05:52:45Z</time>
      </trkpt>
      <trkpt lat="47.60337" lon="-2.24364">
        <ele>36.9</ele>
        <time>2013-07-14T05:52:51Z</time>
      </trkpt>
      <trkpt lat="47.60339" lon="-2.24335">
        <ele>38.02</ele>
        <time>2013-07-14T05:52:57Z</time>
      </trkpt>
      <trkpt lat="47.60342" lon="-2.24306">
        <ele>38.28</ele>
        <time>2013-07-14T05:53:02Z</time>
      </trkpt>
      <trkpt lat="47.60343" lon="-2.24275">
        <ele>38.71</ele>
        <time>2013-07-14T05:53:08Z</time>
      </trkpt>
      <trkpt lat="47.60339" lon="-2.24247">
        <ele>39.72</ele>
        <time>2013-07-14T05:53:14Z</time>
      </trkpt>
      <trkpt lat="47.60339" lon="-2.24216">
        <ele>41.51</ele>
        <time>2013-07-14T05:53:20Z</time>
      </trkpt>
      <trkpt lat="47.60326" lon="-2.24193">
        <ele>42.57</ele>
        <time>2013-07-14T05:53:28Z</time>
      </trkpt>
      <trkpt lat="47.60309" lon="-2.24177">
        <ele>43.14</ele>
        <time>2013-07-14T05:53:36Z</time>
      </trkpt>
      <trkpt lat="47.60292" lon="-2.24162">
        <ele>44.26</ele>
        <time>2013-07-14T05:53:44Z</time>
      </trkpt>
      <trkpt lat="47.60278" lon="-2.2414">
        <ele>48.71</ele>
        <time>2013-07-14T05:54:01Z</time>
      </trkpt>
      <trkpt lat="47.60268" lon="-2.24117">
        <ele>49.47</ele>
        <time>2013-07-14T05:54:12Z</time>
      </trkpt>
      <trkpt lat="47.60266" lon="-2.24064">
        <ele>50.38</ele>
        <time>2013-07-14T05:54:34Z</time>
      </trkpt>
      <trkpt lat="47.60272" lon="-2.24031">
        <ele>54.48</ele>
        <time>2013-07-14T05:54:47Z</time>
      </trkpt>
      <trkpt lat="47.60279" lon="-2.24004">
        <ele>59.47</ele>
        <time>2013-07-14T05:54:54Z</time>
      </trkpt>
      <trkpt lat="47.60288" lon="-2.23977">
        <ele>62.21</ele>
        <time>2013-07-14T05:55:09Z</time>
      </trkpt>
      <trkpt lat="47.6028" lon="-2.23951">
        <ele>67.6</ele>
        <time>2013-07-14T05:55:21Z</time>
      </trkpt>
      <trkpt lat="47.60265" lon="-2.23935">
        <ele>68.02</ele>
        <time>2013-07-14T05:55:26Z</time>
      </trkpt>
      <trkpt lat="47.60247" lon="-2.23915">
        <ele>67.8</ele>
        <time>2013-07-14T05:55:31Z</time>
      </trkpt>
      <trkpt lat="47.60242" lon="-2.23885">
        <ele>65.77</ele>
        <time>2013-07-14T05:55:35Z</time>
      </trkpt>
      <trkpt lat="47.60238" lon="-2.23854">
        <ele>62.67</ele>
        <time>2013-07-14T05:55:40Z</time>
      </trkpt>
      <trkpt lat="47.60239" lon="-2.23825">
        <ele>59.75</ele>
        <time>2013-07-14T05:55:46Z</time>
      </trkpt>
      <trkpt lat="47.60258" lon="-2.23813">
        <ele>59.23</ele>
        <time>2013-07-14T05:55:52Z</time>
      </trkpt>
      <trkpt lat="47.60278" lon="-2.23808">
        <ele>58.83</ele>
        <time>2013-07-14T05:55:57Z</time>
      </trkpt>
      <trkpt lat="47.603" lon="-2.23806">
        <ele>57.35</ele>
        <time>2013-07-14T05:56:02Z</time>
      </trkpt>
      <trkpt lat="47.60319" lon="-2.23803">
        <ele>55.82</ele>
        <time>2013-07-14T05:56:06Z</time>
      </trkpt>
      <trkpt lat="47.60338" lon="-2.23805">
        <ele>54.49</ele>
        <time>2013-07-14T05:56:10Z</time>
      </trkpt>
      <trkpt lat="47.60357" lon="-2.23809">
        <ele>53.77</ele>
        <time>2013-07-14T05:56:14Z</time>
      </trkpt>
      <trkpt lat="47.60378" lon="-2.23814">
        <ele>53.04</ele>
        <time>2013-07-14T05:56:18Z</time>
      </trkpt>
      <trkpt lat="47.60387" lon="-2.2379">
        <ele>52.26</ele>
        <time>2013-07-14T05:56:22Z</time>
      </trkpt>
      <trkpt lat="47.60382" lon="-2.2376">
        <ele>51.67</ele>
        <time>2013-07-14T05:56:26Z</time>
      </trkpt>
      <trkpt lat="47.60377" lon="-2.23733">
        <ele>51.74</ele>
        <time>2013-07-14T05:56:30Z</time>
      </trkpt>
      <trkpt lat="47.60372" lon="-2.237">
        <ele>51.31</ele>
        <time>2013-07-14T05:56:34Z</time>
      </trkpt>
      <trkpt lat="47.60366" lon="-2.23667">
        <ele>51.63</ele>
        <time>2013-07-14T05:56:38Z</time>
      </trkpt>
      <trkpt lat="47.6036" lon="-2.23638">
        <ele>52.55</ele>
        <time>2013-07-14T05:56:42Z</time>
      </trkpt>
      <trkpt lat="47.60355" lon="-2.23608">
        <ele>52.05</ele>
        <time>2013-07-14T05:56:46Z</time>
      </trkpt>
      <trkpt lat="47.60355" lon="-2.23572">
        <ele>50.43</ele>
        <time>2013-07-14T05:56:50Z</time>
      </trkpt>
      <trkpt lat="47.60358" lon="-2.23544">
        <ele>49.27</ele>
        <time>2013-07-14T05:56:53Z</time>
      </trkpt>
      <trkpt lat="47.60364" lon="-2.23515">
        <ele>48.26</ele>
        <time>2013-07-14T05:56:56Z</time>
      </trkpt>
      <trkpt lat="47.60372" lon="-2.23487">
        <ele>47.63</ele>
        <time>2013-07-14T05:56:59Z</time>
      </trkpt>
      <trkpt lat="47.60382" lon="-2.23455">
        <ele>47.04</ele>
        <time>2013-07-14T05:57:02Z</time>
      </trkpt>
      <trkpt lat="47.60385" lon="-2.23419">
        <ele>46.09</ele>
        <time>2013-07-14T05:57:05Z</time>
      </trkpt>
      <trkpt lat="47.60379" lon="-2.23394">
        <ele>45.49</ele>
        <time>2013-07-14T05:57:07Z</time>
      </trkpt>
      <trkpt lat="47.60369" lon="-2.23369">
        <ele>44.76</ele>
        <time>2013-07-14T05:57:09Z</time>
      </trkpt>
      <trkpt lat="47.60358" lon="-2.23347">
        <ele>43.98</ele>
        <time>2013-07-14T05:57:11Z</time>
      </trkpt>
      <trkpt lat="47.60351" lon="-2.23318">
        <ele>40.7</ele>
        <time>2013-07-14T05:57:21Z</time>
      </trkpt>
      <trkpt lat="47.60359" lon="-2.23291">
        <ele>40.03</ele>
        <time>2013-07-14T05:57:25Z</time>
      </trkpt>
      <trkpt lat="47.60335" lon="-2.23278">
        <ele>41.51</ele>
        <time>2013-07-14T05:57:35Z</time>
      </trkpt>
      <trkpt lat="47.60314" lon="-2.23271">
        <ele>41.78</ele>
        <time>2013-07-14T05:57:38Z</time>
      </trkpt>
      <trkpt lat="47.60296" lon="-2.23262">
        <ele>41.88</ele>
        <time>2013-07-14T05:57:41Z</time>
      </trkpt>
      <trkpt lat="47.60276" lon="-2.23258">
        <ele>41.77</ele>
        <time>2013-07-14T05:57:45Z</time>
      </trkpt>
      <trkpt lat="47.60254" lon="-2.23249">
        <ele>41.8</ele>
        <time>2013-07-14T05:57:49Z</time>
      </trkpt>
      <trkpt lat="47.60235" lon="-2.2324">
        <ele>41.33</ele>
        <time>2013-07-14T05:57:52Z</time>
      </trkpt>
      <trkpt lat="47.60216" lon="-2.23234">
        <ele>41.33</ele>
        <time>2013-07-14T05:57:55Z</time>
      </trkpt>
      <trkpt lat="47.60197" lon="-2.23223">
        <ele>41.74</ele>
        <time>2013-07-14T05:57:58Z</time>
      </trkpt>
      <trkpt lat="47.6018" lon="-2.2321">
        <ele>42.09</ele>
        <time>2013-07-14T05:58:01Z</time>
      </trkpt>
      <trkpt lat="47.60163" lon="-2.23197">
        <ele>41.25</ele>
        <time>2013-07-14T05:58:04Z</time>
      </trkpt>
      <trkpt lat="47.60146" lon="-2.23183">
        <ele>38.51</ele>
        <time>2013-07-14T05:58:08Z</time>
      </trkpt>
      <trkpt lat="47.60128" lon="-2.23197">
        <ele>32.25</ele>
        <time>2013-07-14T05:58:21Z</time>
      </trkpt>
      <trkpt lat="47.60119" lon="-2.23223">
        <ele>31.47</ele>
        <time>2013-07-14T05:58:27Z</time>
      </trkpt>
      <trkpt lat="47.60108" lon="-2.23246">
        <ele>31.1</ele>
        <time>2013-07-14T05:58:33Z</time>
      </trkpt>
      <trkpt lat="47.60096" lon="-2.23282">
        <ele>32.06</ele>
        <time>2013-07-14T05:58:40Z</time>
      </trkpt>
      <trkpt lat="47.6008" lon="-2.23297">
        <ele>33.1</ele>
        <time>2013-07-14T05:58:47Z</time>
      </trkpt>
      <trkpt lat="47.60061" lon="-2.23297">
        <ele>34.1</ele>
        <time>2013-07-14T05:58:51Z</time>
      </trkpt>
      <trkpt lat="47.60043" lon="-2.23293">
        <ele>36.2</ele>
        <time>2013-07-14T05:58:57Z</time>
      </trkpt>
      <trkpt lat="47.60026" lon="-2.23279">
        <ele>40.09</ele>
        <time>2013-07-14T05:59:05Z</time>
      </trkpt>
      <trkpt lat="47.6001" lon="-2.23262">
        <ele>42.98</ele>
        <time>2013-07-14T05:59:13Z</time>
      </trkpt>
      <trkpt lat="47.59993" lon="-2.23249">
        <ele>45.38</ele>
        <time>2013-07-14T05:59:21Z</time>
      </trkpt>
      <trkpt lat="47.59975" lon="-2.23237">
        <ele>46.9</ele>
        <time>2013-07-14T05:59:32Z</time>
      </trkpt>
      <trkpt lat="47.59955" lon="-2.23228">
        <ele>46.3</ele>
        <time>2013-07-14T05:59:41Z</time>
      </trkpt>
      <trkpt lat="47.59936" lon="-2.23218">
        <ele>45.54</ele>
        <time>2013-07-14T05:59:49Z</time>
      </trkpt>
      <trkpt lat="47.59917" lon="-2.2321">
        <ele>46.36</ele>
        <time>2013-07-14T05:59:58Z</time>
      </trkpt>
      <trkpt lat="47.59898" lon="-2.23202">
        <ele>47.04</ele>
        <time>2013-07-14T06:00:08Z</time>
      </trkpt>
      <trkpt lat="47.59879" lon="-2.23193">
        <ele>48.62</ele>
        <time>2013-07-14T06:00:17Z</time>
      </trkpt>
      <trkpt lat="47.59862" lon="-2.23181">
        <ele>49.23</ele>
        <time>2013-07-14T06:00:25Z</time>
      </trkpt>
      <trkpt lat="47.59845" lon="-2.23169">
        <ele>49.52</ele>
        <time>2013-07-14T06:00:34Z</time>
      </trkpt>
      <trkpt lat="47.59827" lon="-2.23157">
        <ele>50.05</ele>
        <time>2013-07-14T06:00:46Z</time>
      </trkpt>
      <trkpt lat="47.59809" lon="-2.23151">
        <ele>52.18</ele>
        <time>2013-07-14T06:00:56Z</time>
      </trkpt>
      <trkpt lat="47.59791" lon="-2.23146">
        <ele>53.33</ele>
        <time>2013-07-14T06:01:04Z</time>
      </trkpt>
      <trkpt lat="47.59769" lon="-2.2314">
        <ele>54.6</ele>
        <time>2013-07-14T06:01:16Z</time>
      </trkpt>
      <trkpt lat="47.59761" lon="-2.23114">
        <ele>54.38</ele>
        <time>2013-07-14T06:01:24Z</time>
      </trkpt>
      <trkpt lat="47.5976" lon="-2.23084">
        <ele>53.38</ele>
        <time>2013-07-14T06:01:30Z</time>
      </trkpt>
      <trkpt lat="47.5976" lon="-2.23054">
        <ele>53.09</ele>
        <time>2013-07-14T06:01:34Z</time>
      </trkpt>
      <trkpt lat="47.5976" lon="-2.23023">
        <ele>53.06</ele>
        <time>2013-07-14T06:01:38Z</time>
      </trkpt>
      <trkpt lat="47.59761" lon="-2.22994">
        <ele>53.34</ele>
        <time>2013-07-14T06:01:41Z</time>
      </trkpt>
      <trkpt lat="47.59758" lon="-2.22967">
        <ele>54.52</ele>
        <time>2013-07-14T06:01:44Z</time>
      </trkpt>
      <trkpt lat="47.59745" lon="-2.22946">
        <ele>57.13</ele>
        <time>2013-07-14T06:01:50Z</time>
      </trkpt>
      <trkpt lat="47.59733" lon="-2.22923">
        <ele>58.52</ele>
        <time>2013-07-14T06:01:55Z</time>
      </trkpt>
      <trkpt lat="47.59716" lon="-2.22905">
        <ele>58.79</ele>
        <time>2013-07-14T06:02:00Z</time>
      </trkpt>
      <trkpt lat="47.59702" lon="-2.22883">
        <ele>56.95</ele>
        <time>2013-07-14T06:02:05Z</time>
      </trkpt>
      <trkpt lat="47.597" lon="-2.22855">
        <ele>55.08</ele>
        <time>2013-07-14T06:02:08Z</time>
      </trkpt>
      <trkpt lat="47.59697" lon="-2.22824">
        <ele>53.69</ele>
        <time>2013-07-14T06:02:11Z</time>
      </trkpt>
      <trkpt lat="47.59689" lon="-2.22793">
        <ele>52.42</ele>
        <time>2013-07-14T06:02:14Z</time>
      </trkpt>
      <trkpt lat="47.59679" lon="-2.22761">
        <ele>51.44</ele>
        <time>2013-07-14T06:02:17Z</time>
      </trkpt>
      <trkpt lat="47.59672" lon="-2.22736">
        <ele>50.55</ele>
        <time>2013-07-14T06:02:19Z</time>
      </trkpt>
      <trkpt lat="47.59665" lon="-2.22707">
        <ele>49.5</ele>
        <time>2013-07-14T06:02:21Z</time>
      </trkpt>
      <trkpt lat="47.59656" lon="-2.2268">
        <ele>48.26</ele>
        <time>2013-07-14T06:02:23Z</time>
      </trkpt>
      <trkpt lat="47.59649" lon="-2.2265">
        <ele>46.85</ele>
        <time>2013-07-14T06:02:25Z</time>
      </trkpt>
      <trkpt lat="47.59643" lon="-2.22617">
        <ele>45.25</ele>
        <time>2013-07-14T06:02:27Z</time>
      </trkpt>
      <trkpt lat="47.59637" lon="-2.22586">
        <ele>43.92</ele>
        <time>2013-07-14T06:02:29Z</time>
      </trkpt>
      <trkpt lat="47.59631" lon="-2.22555">
        <ele>42.7</ele>
        <time>2013-07-14T06:02:31Z</time>
      </trkpt>
      <trkpt lat="47.59625" lon="-2.22524">
        <ele>41.69</ele>
        <time>2013-07-14T06:02:33Z</time>
      </trkpt>
      <trkpt lat="47.59619" lon="-2.22492">
        <ele>40.74</ele>
        <time>2013-07-14T06:02:35Z</time>
      </trkpt>
      <trkpt lat="47.59616" lon="-2.2246">
        <ele>39.25</ele>
        <time>2013-07-14T06:02:37Z</time>
      </trkpt>
      <trkpt lat="47.59618" lon="-2.22428">
        <ele>37.18</ele>
        <time>2013-07-14T06:02:39Z</time>
      </trkpt>
      <trkpt lat="47.59621" lon="-2.22395">
        <ele>35.4</ele>
        <time>2013-07-14T06:02:41Z</time>
      </trkpt>
      <trkpt lat="47.59624" lon="-2.22363">
        <ele>33.56</ele>
        <time>2013-07-14T06:02:43Z</time>
      </trkpt>
      <trkpt lat="47.59626" lon="-2.22333">
        <ele>31.91</ele>
        <time>2013-07-14T06:02:45Z</time>
      </trkpt>
      <trkpt lat="47.59631" lon="-2.22301">
        <ele>30.91</ele>
        <time>2013-07-14T06:02:47Z</time>
      </trkpt>
      <trkpt lat="47.59635" lon="-2.22269">
        <ele>30.33</ele>
        <time>2013-07-14T06:02:49Z</time>
      </trkpt>
      <trkpt lat="47.5964" lon="-2.22235">
        <ele>29.78</ele>
        <time>2013-07-14T06:02:51Z</time>
      </trkpt>
      <trkpt lat="47.59645" lon="-2.22202">
        <ele>28.96</ele>
        <time>2013-07-14T06:02:53Z</time>
      </trkpt>
      <trkpt lat="47.59651" lon="-2.22169">
        <ele>28.3</ele>
        <time>2013-07-14T06:02:55Z</time>
      </trkpt>
      <trkpt lat="47.59659" lon="-2.22135">
        <ele>27.21</ele>
        <time>2013-07-14T06:02:57Z</time>
      </trkpt>
      <trkpt lat="47.59667" lon="-2.22104">
        <ele>26.29</ele>
        <time>2013-07-14T06:02:59Z</time>
      </trkpt>
      <trkpt lat="47.59672" lon="-2.22076">
        <ele>25.25</ele>
        <time>2013-07-14T06:03:01Z</time>
      </trkpt>
      <trkpt lat="47.5968" lon="-2.22047">
        <ele>24.19</ele>
        <time>2013-07-14T06:03:03Z</time>
      </trkpt>
      <trkpt lat="47.59689" lon="-2.22019">
        <ele>23.28</ele>
        <time>2013-07-14T06:03:05Z</time>
      </trkpt>
      <trkpt lat="47.597" lon="-2.21994">
        <ele>21.89</ele>
        <time>2013-07-14T06:03:07Z</time>
      </trkpt>
      <trkpt lat="47.59713" lon="-2.21961">
        <ele>18.66</ele>
        <time>2013-07-14T06:03:10Z</time>
      </trkpt>
      <trkpt lat="47.59721" lon="-2.2193">
        <ele>15.13</ele>
        <time>2013-07-14T06:03:13Z</time>
      </trkpt>
      <trkpt lat="47.5973" lon="-2.21904">
        <ele>12.84</ele>
        <time>2013-07-14T06:03:16Z</time>
      </trkpt>
      <trkpt lat="47.5975" lon="-2.21894">
        <ele>11.19</ele>
        <time>2013-07-14T06:03:20Z</time>
      </trkpt>
      <trkpt lat="47.59769" lon="-2.21904">
        <ele>10.41</ele>
        <time>2013-07-14T06:03:24Z</time>
      </trkpt>
      <trkpt lat="47.59789" lon="-2.21915">
        <ele>9.83</ele>
        <time>2013-07-14T06:03:28Z</time>
      </trkpt>
      <trkpt lat="47.59808" lon="-2.21925">
        <ele>9.35</ele>
        <time>2013-07-14T06:03:32Z</time>
      </trkpt>
      <trkpt lat="47.59826" lon="-2.2194">
        <ele>9.35</ele>
        <time>2013-07-14T06:03:36Z</time>
      </trkpt>
      <trkpt lat="47.59844" lon="-2.21956">
        <ele>10.52</ele>
        <time>2013-07-14T06:03:41Z</time>
      </trkpt>
      <trkpt lat="47.59861" lon="-2.21967">
        <ele>11.31</ele>
        <time>2013-07-14T06:03:45Z</time>
      </trkpt>
      <trkpt lat="47.59878" lon="-2.21985">
        <ele>12.42</ele>
        <time>2013-07-14T06:03:50Z</time>
      </trkpt>
      <trkpt lat="47.59895" lon="-2.22005">
        <ele>13.95</ele>
        <time>2013-07-14T06:03:55Z</time>
      </trkpt>
      <trkpt lat="47.5991" lon="-2.22024">
        <ele>15.06</ele>
        <time>2013-07-14T06:04:00Z</time>
      </trkpt>
      <trkpt lat="47.59924" lon="-2.22042">
        <ele>19.34</ele>
        <time>2013-07-14T06:04:08Z</time>
      </trkpt>
      <trkpt lat="47.59917" lon="-2.22012">
        <ele>21.05</ele>
        <time>2013-07-14T06:04:33Z</time>
      </trkpt>
      <trkpt lat="47.59938" lon="-2.21962">
        <ele>24.08</ele>
        <time>2013-07-14T06:05:37Z</time>
      </trkpt>
      <trkpt lat="47.59969" lon="-2.21918">
        <ele>31.15</ele>
        <time>2013-07-14T06:06:40Z</time>
      </trkpt>
      <trkpt lat="47.59986" lon="-2.2189">
        <ele>36.02</ele>
        <time>2013-07-14T06:07:02Z</time>
      </trkpt>
      <trkpt lat="47.60011" lon="-2.21892">
        <ele>41.85</ele>
        <time>2013-07-14T06:07:28Z</time>
      </trkpt>
      <trkpt lat="47.60026" lon="-2.21915">
        <ele>49.18</ele>
        <time>2013-07-14T06:07:43Z</time>
      </trkpt>
      <trkpt lat="47.60031" lon="-2.21944">
        <ele>49.55</ele>
        <time>2013-07-14T06:07:48Z</time>
      </trkpt>
      <trkpt lat="47.60036" lon="-2.21971">
        <ele>52.42</ele>
        <time>2013-07-14T06:07:55Z</time>
      </trkpt>
      <trkpt lat="47.60046" lon="-2.21998">
        <ele>53.27</ele>
        <time>2013-07-14T06:08:02Z</time>
      </trkpt>
      <trkpt lat="47.60057" lon="-2.22021">
        <ele>53.1</ele>
        <time>2013-07-14T06:08:08Z</time>
      </trkpt>
      <trkpt lat="47.60068" lon="-2.22045">
        <ele>53.77</ele>
        <time>2013-07-14T06:08:14Z</time>
      </trkpt>
      <trkpt lat="47.60082" lon="-2.22067">
        <ele>54.11</ele>
        <time>2013-07-14T06:08:18Z</time>
      </trkpt>
      <trkpt lat="47.60095" lon="-2.22086">
        <ele>54.61</ele>
        <time>2013-07-14T06:08:23Z</time>
      </trkpt>
      <trkpt lat="47.60111" lon="-2.22104">
        <ele>56.08</ele>
        <time>2013-07-14T06:08:30Z</time>
      </trkpt>
      <trkpt lat="47.60129" lon="-2.22121">
        <ele>58.17</ele>
        <time>2013-07-14T06:08:36Z</time>
      </trkpt>
      <trkpt lat="47.6014" lon="-2.22145">
        <ele>60.39</ele>
        <time>2013-07-14T06:08:42Z</time>
      </trkpt>
      <trkpt lat="47.60155" lon="-2.22161">
        <ele>61.26</ele>
        <time>2013-07-14T06:08:48Z</time>
      </trkpt>
      <trkpt lat="47.60172" lon="-2.22151">
        <ele>65.06</ele>
        <time>2013-07-14T06:09:01Z</time>
      </trkpt>
      <trkpt lat="47.60189" lon="-2.22139">
        <ele>70.35</ele>
        <time>2013-07-14T06:09:12Z</time>
      </trkpt>
      <trkpt lat="47.60207" lon="-2.2213">
        <ele>71.99</ele>
        <time>2013-07-14T06:09:21Z</time>
      </trkpt>
      <trkpt lat="47.60233" lon="-2.22117">
        <ele>75.44</ele>
        <time>2013-07-14T06:09:35Z</time>
      </trkpt>
      <trkpt lat="47.60253" lon="-2.22108">
        <ele>77.2</ele>
        <time>2013-07-14T06:09:46Z</time>
      </trkpt>
      <trkpt lat="47.60273" lon="-2.22102">
        <ele>78.85</ele>
        <time>2013-07-14T06:09:56Z</time>
      </trkpt>
      <trkpt lat="47.60281" lon="-2.22049">
        <ele>78.3</ele>
        <time>2013-07-14T06:10:53Z</time>
      </trkpt>
      <trkpt lat="47.60264" lon="-2.22039">
        <ele>73.02</ele>
        <time>2013-07-14T06:11:25Z</time>
      </trkpt>
      <trkpt lat="47.60242" lon="-2.22031">
        <ele>75.79</ele>
        <time>2013-07-14T06:11:35Z</time>
      </trkpt>
      <trkpt lat="47.60216" lon="-2.21993">
        <ele>79.34</ele>
        <time>2013-07-14T06:11:57Z</time>
      </trkpt>
      <trkpt lat="47.60205" lon="-2.21964">
        <ele>82.58</ele>
        <time>2013-07-14T06:12:02Z</time>
      </trkpt>
      <trkpt lat="47.60212" lon="-2.21935">
        <ele>84.49</ele>
        <time>2013-07-14T06:12:12Z</time>
      </trkpt>
      <trkpt lat="47.6024" lon="-2.21939">
        <ele>87.63</ele>
        <time>2013-07-14T06:12:29Z</time>
      </trkpt>
      <trkpt lat="47.60251" lon="-2.21967">
        <ele>84.59</ele>
        <time>2013-07-14T06:12:48Z</time>
      </trkpt>
      <trkpt lat="47.60247" lon="-2.21939">
        <ele>85.2</ele>
        <time>2013-07-14T06:13:00Z</time>
      </trkpt>
      <trkpt lat="47.60243" lon="-2.21912">
        <ele>82.71</ele>
        <time>2013-07-14T06:13:13Z</time>
      </trkpt>
      <trkpt lat="47.60226" lon="-2.21921">
        <ele>80.45</ele>
        <time>2013-07-14T06:13:23Z</time>
      </trkpt>
      <trkpt lat="47.60208" lon="-2.21936">
        <ele>76.13</ele>
        <time>2013-07-14T06:13:33Z</time>
      </trkpt>
      <trkpt lat="47.6019" lon="-2.21934">
        <ele>76.03</ele>
        <time>2013-07-14T06:13:38Z</time>
      </trkpt>
      <trkpt lat="47.6017" lon="-2.21931">
        <ele>77.24</ele>
        <time>2013-07-14T06:13:47Z</time>
      </trkpt>
      <trkpt lat="47.60153" lon="-2.21921">
        <ele>76.54</ele>
        <time>2013-07-14T06:13:52Z</time>
      </trkpt>
      <trkpt lat="47.60157" lon="-2.21951">
        <ele>78.15</ele>
        <time>2013-07-14T06:14:25Z</time>
      </trkpt>
      <trkpt lat="47.6017" lon="-2.21974">
        <ele>79.34</ele>
        <time>2013-07-14T06:14:36Z</time>
      </trkpt>
      <trkpt lat="47.60165" lon="-2.22003">
        <ele>80</ele>
        <time>2013-07-14T06:14:43Z</time>
      </trkpt>
      <trkpt lat="47.60144" lon="-2.22005">
        <ele>78.17</ele>
        <time>2013-07-14T06:14:49Z</time>
      </trkpt>
      <trkpt lat="47.60126" lon="-2.21996">
        <ele>76.21</ele>
        <time>2013-07-14T06:15:00Z</time>
      </trkpt>
      <trkpt lat="47.60116" lon="-2.21973">
        <ele>83.76</ele>
        <time>2013-07-14T06:15:13Z</time>
      </trkpt>
      <trkpt lat="47.60105" lon="-2.21947">
        <ele>84.17</ele>
        <time>2013-07-14T06:15:20Z</time>
      </trkpt>
      <trkpt lat="47.60094" lon="-2.21924">
        <ele>84.24</ele>
        <time>2013-07-14T06:15:25Z</time>
      </trkpt>
      <trkpt lat="47.60083" lon="-2.21902">
        <ele>84.44</ele>
        <time>2013-07-14T06:15:29Z</time>
      </trkpt>
      <trkpt lat="47.60064" lon="-2.21886">
        <ele>83.27</ele>
        <time>2013-07-14T06:15:35Z</time>
      </trkpt>
      <trkpt lat="47.60046" lon="-2.21873">
        <ele>81.76</ele>
        <time>2013-07-14T06:15:40Z</time>
      </trkpt>
      <trkpt lat="47.60026" lon="-2.21864">
        <ele>79.48</ele>
        <time>2013-07-14T06:15:44Z</time>
      </trkpt>
      <trkpt lat="47.60011" lon="-2.21846">
        <ele>76.03</ele>
        <time>2013-07-14T06:15:52Z</time>
      </trkpt>
      <trkpt lat="47.59994" lon="-2.21834">
        <ele>71.68</ele>
        <time>2013-07-14T06:15:59Z</time>
      </trkpt>
      <trkpt lat="47.5999" lon="-2.21753">
        <ele>63.51</ele>
        <time>2013-07-14T06:16:23Z</time>
      </trkpt>
      <trkpt lat="47.59999" lon="-2.21723">
        <ele>57.73</ele>
        <time>2013-07-14T06:16:28Z</time>
      </trkpt>
      <trkpt lat="47.60008" lon="-2.217">
        <ele>56.46</ele>
        <time>2013-07-14T06:16:32Z</time>
      </trkpt>
      <trkpt lat="47.60045" lon="-2.21677">
        <ele>60.45</ele>
        <time>2013-07-14T06:18:08Z</time>
      </trkpt>
      <trkpt lat="47.60066" lon="-2.21687">
        <ele>76.66</ele>
        <time>2013-07-14T06:18:25Z</time>
      </trkpt>
      <trkpt lat="47.60102" lon="-2.21695">
        <ele>80.48</ele>
        <time>2013-07-14T06:18:54Z</time>
      </trkpt>
      <trkpt lat="47.60138" lon="-2.21699">
        <ele>85.16</ele>
        <time>2013-07-14T06:19:13Z</time>
      </trkpt>
      <trkpt lat="47.60157" lon="-2.21698">
        <ele>86.82</ele>
        <time>2013-07-14T06:19:20Z</time>
      </trkpt>
      <trkpt lat="47.60176" lon="-2.21695">
        <ele>87.07</ele>
        <time>2013-07-14T06:19:25Z</time>
      </trkpt>
      <trkpt lat="47.60179" lon="-2.21665">
        <ele>85.38</ele>
        <time>2013-07-14T06:19:47Z</time>
      </trkpt>
      <trkpt lat="47.60172" lon="-2.2164">
        <ele>86.45</ele>
        <time>2013-07-14T06:19:53Z</time>
      </trkpt>
      <trkpt lat="47.60166" lon="-2.21614">
        <ele>86.68</ele>
        <time>2013-07-14T06:19:59Z</time>
      </trkpt>
      <trkpt lat="47.60156" lon="-2.21591">
        <ele>86.69</ele>
        <time>2013-07-14T06:20:05Z</time>
      </trkpt>
      <trkpt lat="47.60139" lon="-2.21574">
        <ele>86.55</ele>
        <time>2013-07-14T06:20:10Z</time>
      </trkpt>
      <trkpt lat="47.60125" lon="-2.21554">
        <ele>85.93</ele>
        <time>2013-07-14T06:20:16Z</time>
      </trkpt>
      <trkpt lat="47.60133" lon="-2.21523">
        <ele>82.02</ele>
        <time>2013-07-14T06:20:22Z</time>
      </trkpt>
      <trkpt lat="47.60139" lon="-2.21496">
        <ele>80.48</ele>
        <time>2013-07-14T06:20:27Z</time>
      </trkpt>
      <trkpt lat="47.60139" lon="-2.21469">
        <ele>79.69</ele>
        <time>2013-07-14T06:20:32Z</time>
      </trkpt>
      <trkpt lat="47.60136" lon="-2.21436">
        <ele>79.55</ele>
        <time>2013-07-14T06:20:37Z</time>
      </trkpt>
      <trkpt lat="47.60129" lon="-2.21411">
        <ele>79.65</ele>
        <time>2013-07-14T06:20:41Z</time>
      </trkpt>
      <trkpt lat="47.60119" lon="-2.21382">
        <ele>79.62</ele>
        <time>2013-07-14T06:20:46Z</time>
      </trkpt>
      <trkpt lat="47.60113" lon="-2.21355">
        <ele>78.9</ele>
        <time>2013-07-14T06:20:50Z</time>
      </trkpt>
      <trkpt lat="47.60102" lon="-2.21329">
        <ele>78.53</ele>
        <time>2013-07-14T06:20:54Z</time>
      </trkpt>
      <trkpt lat="47.60089" lon="-2.21301">
        <ele>77.76</ele>
        <time>2013-07-14T06:20:58Z</time>
      </trkpt>
      <trkpt lat="47.60079" lon="-2.21278">
        <ele>77.42</ele>
        <time>2013-07-14T06:21:01Z</time>
      </trkpt>
      <trkpt lat="47.60068" lon="-2.21256">
        <ele>76.8</ele>
        <time>2013-07-14T06:21:04Z</time>
      </trkpt>
      <trkpt lat="47.60059" lon="-2.21225">
        <ele>75.9</ele>
        <time>2013-07-14T06:21:08Z</time>
      </trkpt>
      <trkpt lat="47.60045" lon="-2.21196">
        <ele>75.52</ele>
        <time>2013-07-14T06:21:12Z</time>
      </trkpt>
      <trkpt lat="47.60025" lon="-2.21176">
        <ele>75.24</ele>
        <time>2013-07-14T06:21:15Z</time>
      </trkpt>
      <trkpt lat="47.60003" lon="-2.2118">
        <ele>74.4</ele>
        <time>2013-07-14T06:21:18Z</time>
      </trkpt>
      <trkpt lat="47.59984" lon="-2.21203">
        <ele>72.53</ele>
        <time>2013-07-14T06:21:21Z</time>
      </trkpt>
      <trkpt lat="47.59971" lon="-2.21239">
        <ele>69.91</ele>
        <time>2013-07-14T06:21:24Z</time>
      </trkpt>
      <trkpt lat="47.59961" lon="-2.21265">
        <ele>68.16</ele>
        <time>2013-07-14T06:21:26Z</time>
      </trkpt>
      <trkpt lat="47.59949" lon="-2.21292">
        <ele>66.05</ele>
        <time>2013-07-14T06:21:29Z</time>
      </trkpt>
      <trkpt lat="47.59933" lon="-2.21274">
        <ele>55.72</ele>
        <time>2013-07-14T06:21:42Z</time>
      </trkpt>
      <trkpt lat="47.59935" lon="-2.21238">
        <ele>53.73</ele>
        <time>2013-07-14T06:21:46Z</time>
      </trkpt>
      <trkpt lat="47.59939" lon="-2.21209">
        <ele>52.83</ele>
        <time>2013-07-14T06:21:49Z</time>
      </trkpt>
      <trkpt lat="47.59945" lon="-2.21176">
        <ele>51.79</ele>
        <time>2013-07-14T06:21:52Z</time>
      </trkpt>
      <trkpt lat="47.59952" lon="-2.21142">
        <ele>50.85</ele>
        <time>2013-07-14T06:21:55Z</time>
      </trkpt>
      <trkpt lat="47.5996" lon="-2.21106">
        <ele>48.42</ele>
        <time>2013-07-14T06:22:11Z</time>
      </trkpt>
      <trkpt lat="47.59973" lon="-2.21084">
        <ele>46.32</ele>
        <time>2013-07-14T06:22:15Z</time>
      </trkpt>
      <trkpt lat="47.59986" lon="-2.21056">
        <ele>44.77</ele>
        <time>2013-07-14T06:22:20Z</time>
      </trkpt>
      <trkpt lat="47.59999" lon="-2.21031">
        <ele>44.04</ele>
        <time>2013-07-14T06:22:23Z</time>
      </trkpt>
      <trkpt lat="47.60011" lon="-2.21011">
        <ele>44.28</ele>
        <time>2013-07-14T06:22:26Z</time>
      </trkpt>
      <trkpt lat="47.59993" lon="-2.20995">
        <ele>43.28</ele>
        <time>2013-07-14T06:22:34Z</time>
      </trkpt>
      <trkpt lat="47.59972" lon="-2.20987">
        <ele>43.58</ele>
        <time>2013-07-14T06:22:39Z</time>
      </trkpt>
      <trkpt lat="47.59956" lon="-2.20976">
        <ele>45.26</ele>
        <time>2013-07-14T06:22:43Z</time>
      </trkpt>
      <trkpt lat="47.59942" lon="-2.20959">
        <ele>47.01</ele>
        <time>2013-07-14T06:22:47Z</time>
      </trkpt>
      <trkpt lat="47.59928" lon="-2.20941">
        <ele>47.43</ele>
        <time>2013-07-14T06:22:51Z</time>
      </trkpt>
      <trkpt lat="47.59917" lon="-2.20914">
        <ele>47.14</ele>
        <time>2013-07-14T06:22:56Z</time>
      </trkpt>
      <trkpt lat="47.59905" lon="-2.20893">
        <ele>48.41</ele>
        <time>2013-07-14T06:23:01Z</time>
      </trkpt>
      <trkpt lat="47.59884" lon="-2.20885">
        <ele>49.17</ele>
        <time>2013-07-14T06:23:05Z</time>
      </trkpt>
      <trkpt lat="47.59864" lon="-2.20879">
        <ele>49.2</ele>
        <time>2013-07-14T06:23:09Z</time>
      </trkpt>
      <trkpt lat="47.59842" lon="-2.20875">
        <ele>48.28</ele>
        <time>2013-07-14T06:23:14Z</time>
      </trkpt>
      <trkpt lat="47.59823" lon="-2.20869">
        <ele>46.23</ele>
        <time>2013-07-14T06:23:18Z</time>
      </trkpt>
      <trkpt lat="47.59808" lon="-2.20898">
        <ele>41.3</ele>
        <time>2013-07-14T06:23:24Z</time>
      </trkpt>
      <trkpt lat="47.59797" lon="-2.20925">
        <ele>37.15</ele>
        <time>2013-07-14T06:23:27Z</time>
      </trkpt>
      <trkpt lat="47.59785" lon="-2.20945">
        <ele>32.17</ele>
        <time>2013-07-14T06:23:31Z</time>
      </trkpt>
      <trkpt lat="47.59778" lon="-2.2092">
        <ele>29.34</ele>
        <time>2013-07-14T06:23:38Z</time>
      </trkpt>
      <trkpt lat="47.59782" lon="-2.20892">
        <ele>29.33</ele>
        <time>2013-07-14T06:23:45Z</time>
      </trkpt>
      <trkpt lat="47.59783" lon="-2.20863">
        <ele>29.71</ele>
        <time>2013-07-14T06:23:52Z</time>
      </trkpt>
      <trkpt lat="47.59782" lon="-2.20835">
        <ele>31.22</ele>
        <time>2013-07-14T06:23:59Z</time>
      </trkpt>
      <trkpt lat="47.59781" lon="-2.20807">
        <ele>32.93</ele>
        <time>2013-07-14T06:24:06Z</time>
      </trkpt>
      <trkpt lat="47.59782" lon="-2.20779">
        <ele>33.49</ele>
        <time>2013-07-14T06:24:13Z</time>
      </trkpt>
      <trkpt lat="47.59781" lon="-2.20752">
        <ele>33.83</ele>
        <time>2013-07-14T06:24:19Z</time>
      </trkpt>
      <trkpt lat="47.59778" lon="-2.20725">
        <ele>33.59</ele>
        <time>2013-07-14T06:24:24Z</time>
      </trkpt>
      <trkpt lat="47.59773" lon="-2.20696">
        <ele>33.41</ele>
        <time>2013-07-14T06:24:29Z</time>
      </trkpt>
      <trkpt lat="47.5977" lon="-2.20666">
        <ele>33.28</ele>
        <time>2013-07-14T06:24:33Z</time>
      </trkpt>
      <trkpt lat="47.59766" lon="-2.20632">
        <ele>32.76</ele>
        <time>2013-07-14T06:24:37Z</time>
      </trkpt>
      <trkpt lat="47.59764" lon="-2.20603">
        <ele>32.05</ele>
        <time>2013-07-14T06:24:40Z</time>
      </trkpt>
      <trkpt lat="47.59765" lon="-2.20574">
        <ele>31.42</ele>
        <time>2013-07-14T06:24:43Z</time>
      </trkpt>
      <trkpt lat="47.59767" lon="-2.20546">
        <ele>30.99</ele>
        <time>2013-07-14T06:24:46Z</time>
      </trkpt>
      <trkpt lat="47.59771" lon="-2.20519">
        <ele>30.82</ele>
        <time>2013-07-14T06:24:49Z</time>
      </trkpt>
      <trkpt lat="47.59776" lon="-2.20486">
        <ele>31.11</ele>
        <time>2013-07-14T06:24:53Z</time>
      </trkpt>
      <trkpt lat="47.59781" lon="-2.20458">
        <ele>31.39</ele>
        <time>2013-07-14T06:24:57Z</time>
      </trkpt>
      <trkpt lat="47.59787" lon="-2.20427">
        <ele>31.79</ele>
        <time>2013-07-14T06:25:02Z</time>
      </trkpt>
      <trkpt lat="47.59801" lon="-2.20407">
        <ele>32.74</ele>
        <time>2013-07-14T06:25:08Z</time>
      </trkpt>
      <trkpt lat="47.59809" lon="-2.20432">
        <ele>37.98</ele>
        <time>2013-07-14T06:25:19Z</time>
      </trkpt>
      <trkpt lat="47.59814" lon="-2.20459">
        <ele>42.79</ele>
        <time>2013-07-14T06:25:29Z</time>
      </trkpt>
      <trkpt lat="47.59814" lon="-2.20488">
        <ele>46</ele>
        <time>2013-07-14T06:25:38Z</time>
      </trkpt>
      <trkpt lat="47.59816" lon="-2.20516">
        <ele>48.52</ele>
        <time>2013-07-14T06:25:50Z</time>
      </trkpt>
      <trkpt lat="47.59823" lon="-2.20542">
        <ele>50.15</ele>
        <time>2013-07-14T06:26:53Z</time>
      </trkpt>
      <trkpt lat="47.59849" lon="-2.20514">
        <ele>52.83</ele>
        <time>2013-07-14T06:27:26Z</time>
      </trkpt>
      <trkpt lat="47.59883" lon="-2.20489">
        <ele>60.15</ele>
        <time>2013-07-14T06:28:08Z</time>
      </trkpt>
      <trkpt lat="47.59901" lon="-2.20468">
        <ele>66.91</ele>
        <time>2013-07-14T06:28:19Z</time>
      </trkpt>
      <trkpt lat="47.59919" lon="-2.20455">
        <ele>66.35</ele>
        <time>2013-07-14T06:28:28Z</time>
      </trkpt>
      <trkpt lat="47.59939" lon="-2.2045">
        <ele>66.43</ele>
        <time>2013-07-14T06:28:33Z</time>
      </trkpt>
      <trkpt lat="47.59957" lon="-2.20441">
        <ele>66.39</ele>
        <time>2013-07-14T06:28:39Z</time>
      </trkpt>
      <trkpt lat="47.59975" lon="-2.20435">
        <ele>65.79</ele>
        <time>2013-07-14T06:28:43Z</time>
      </trkpt>
      <trkpt lat="47.59997" lon="-2.20433">
        <ele>64.8</ele>
        <time>2013-07-14T06:28:47Z</time>
      </trkpt>
      <trkpt lat="47.60017" lon="-2.20436">
        <ele>63.83</ele>
        <time>2013-07-14T06:28:50Z</time>
      </trkpt>
      <trkpt lat="47.60037" lon="-2.20442">
        <ele>61.29</ele>
        <time>2013-07-14T06:28:53Z</time>
      </trkpt>
      <trkpt lat="47.60058" lon="-2.20451">
        <ele>58.29</ele>
        <time>2013-07-14T06:28:56Z</time>
      </trkpt>
      <trkpt lat="47.60077" lon="-2.2046">
        <ele>55.77</ele>
        <time>2013-07-14T06:28:59Z</time>
      </trkpt>
      <trkpt lat="47.60097" lon="-2.20468">
        <ele>53.86</ele>
        <time>2013-07-14T06:29:02Z</time>
      </trkpt>
      <trkpt lat="47.60117" lon="-2.20477">
        <ele>52.43</ele>
        <time>2013-07-14T06:29:05Z</time>
      </trkpt>
      <trkpt lat="47.60136" lon="-2.20485">
        <ele>51.29</ele>
        <time>2013-07-14T06:29:08Z</time>
      </trkpt>
      <trkpt lat="47.60154" lon="-2.20492">
        <ele>50.54</ele>
        <time>2013-07-14T06:29:11Z</time>
      </trkpt>
      <trkpt lat="47.60177" lon="-2.20502">
        <ele>49.94</ele>
        <time>2013-07-14T06:29:15Z</time>
      </trkpt>
      <trkpt lat="47.60198" lon="-2.2051">
        <ele>49.65</ele>
        <time>2013-07-14T06:29:19Z</time>
      </trkpt>
      <trkpt lat="47.60217" lon="-2.20516">
        <ele>49.89</ele>
        <time>2013-07-14T06:29:23Z</time>
      </trkpt>
      <trkpt lat="47.60238" lon="-2.20522">
        <ele>50.69</ele>
        <time>2013-07-14T06:29:27Z</time>
      </trkpt>
      <trkpt lat="47.60255" lon="-2.20512">
        <ele>51.12</ele>
        <time>2013-07-14T06:29:31Z</time>
      </trkpt>
      <trkpt lat="47.60272" lon="-2.20499">
        <ele>51.19</ele>
        <time>2013-07-14T06:29:34Z</time>
      </trkpt>
      <trkpt lat="47.6029" lon="-2.20489">
        <ele>51.69</ele>
        <time>2013-07-14T06:29:37Z</time>
      </trkpt>
      <trkpt lat="47.60311" lon="-2.20472">
        <ele>52.05</ele>
        <time>2013-07-14T06:29:41Z</time>
      </trkpt>
      <trkpt lat="47.60328" lon="-2.20463">
        <ele>52.18</ele>
        <time>2013-07-14T06:29:44Z</time>
      </trkpt>
      <trkpt lat="47.6035" lon="-2.20468">
        <ele>51.81</ele>
        <time>2013-07-14T06:29:48Z</time>
      </trkpt>
      <trkpt lat="47.60369" lon="-2.20475">
        <ele>51.25</ele>
        <time>2013-07-14T06:29:52Z</time>
      </trkpt>
      <trkpt lat="47.60389" lon="-2.2047">
        <ele>51.01</ele>
        <time>2013-07-14T06:29:57Z</time>
      </trkpt>
      <trkpt lat="47.60407" lon="-2.20454">
        <ele>51.54</ele>
        <time>2013-07-14T06:30:02Z</time>
      </trkpt>
      <trkpt lat="47.60423" lon="-2.20438">
        <ele>52.66</ele>
        <time>2013-07-14T06:30:07Z</time>
      </trkpt>
      <trkpt lat="47.60435" lon="-2.20416">
        <ele>52.88</ele>
        <time>2013-07-14T06:30:11Z</time>
      </trkpt>
      <trkpt lat="47.60444" lon="-2.2039">
        <ele>52.61</ele>
        <time>2013-07-14T06:30:15Z</time>
      </trkpt>
      <trkpt lat="47.60453" lon="-2.20362">
        <ele>51.75</ele>
        <time>2013-07-14T06:30:20Z</time>
      </trkpt>
      <trkpt lat="47.60459" lon="-2.20337">
        <ele>51.9</ele>
        <time>2013-07-14T06:30:25Z</time>
      </trkpt>
      <trkpt lat="47.60469" lon="-2.2031">
        <ele>52.41</ele>
        <time>2013-07-14T06:30:30Z</time>
      </trkpt>
      <trkpt lat="47.60477" lon="-2.20283">
        <ele>53.23</ele>
        <time>2013-07-14T06:30:35Z</time>
      </trkpt>
      <trkpt lat="47.60488" lon="-2.20256">
        <ele>53.74</ele>
        <time>2013-07-14T06:30:41Z</time>
      </trkpt>
      <trkpt lat="47.60498" lon="-2.20232">
        <ele>54.07</ele>
        <time>2013-07-14T06:30:47Z</time>
      </trkpt>
      <trkpt lat="47.60506" lon="-2.20204">
        <ele>54.71</ele>
        <time>2013-07-14T06:30:54Z</time>
      </trkpt>
      <trkpt lat="47.60508" lon="-2.20173">
        <ele>54.21</ele>
        <time>2013-07-14T06:30:58Z</time>
      </trkpt>
      <trkpt lat="47.60512" lon="-2.20143">
        <ele>53.04</ele>
        <time>2013-07-14T06:31:01Z</time>
      </trkpt>
      <trkpt lat="47.60519" lon="-2.20114">
        <ele>52.04</ele>
        <time>2013-07-14T06:31:04Z</time>
      </trkpt>
      <trkpt lat="47.60528" lon="-2.20087">
        <ele>51.6</ele>
        <time>2013-07-14T06:31:07Z</time>
      </trkpt>
      <trkpt lat="47.60532" lon="-2.20058">
        <ele>51.68</ele>
        <time>2013-07-14T06:31:11Z</time>
      </trkpt>
      <trkpt lat="47.60529" lon="-2.20029">
        <ele>51.72</ele>
        <time>2013-07-14T06:31:16Z</time>
      </trkpt>
      <trkpt lat="47.60529" lon="-2.19997">
        <ele>52.04</ele>
        <time>2013-07-14T06:31:21Z</time>
      </trkpt>
      <trkpt lat="47.60531" lon="-2.19964">
        <ele>52.58</ele>
        <time>2013-07-14T06:31:25Z</time>
      </trkpt>
      <trkpt lat="47.60525" lon="-2.19938">
        <ele>53.43</ele>
        <time>2013-07-14T06:31:31Z</time>
      </trkpt>
      <trkpt lat="47.60528" lon="-2.19911">
        <ele>54.14</ele>
        <time>2013-07-14T06:31:35Z</time>
      </trkpt>
      <trkpt lat="47.60528" lon="-2.19882">
        <ele>54.05</ele>
        <time>2013-07-14T06:31:38Z</time>
      </trkpt>
      <trkpt lat="47.60519" lon="-2.19853">
        <ele>53.51</ele>
        <time>2013-07-14T06:31:41Z</time>
      </trkpt>
      <trkpt lat="47.60509" lon="-2.19823">
        <ele>52.23</ele>
        <time>2013-07-14T06:31:44Z</time>
      </trkpt>
      <trkpt lat="47.60498" lon="-2.19785">
        <ele>49.01</ele>
        <time>2013-07-14T06:31:47Z</time>
      </trkpt>
      <trkpt lat="47.6049" lon="-2.1976">
        <ele>46.39</ele>
        <time>2013-07-14T06:31:49Z</time>
      </trkpt>
      <trkpt lat="47.6048" lon="-2.19736">
        <ele>43.13</ele>
        <time>2013-07-14T06:31:52Z</time>
      </trkpt>
      <trkpt lat="47.6047" lon="-2.19712">
        <ele>41.51</ele>
        <time>2013-07-14T06:31:57Z</time>
      </trkpt>
      <trkpt lat="47.60463" lon="-2.19684">
        <ele>41.17</ele>
        <time>2013-07-14T06:32:03Z</time>
      </trkpt>
      <trkpt lat="47.60475" lon="-2.19663">
        <ele>39.73</ele>
        <time>2013-07-14T06:32:13Z</time>
      </trkpt>
      <trkpt lat="47.60503" lon="-2.19645">
        <ele>39</ele>
        <time>2013-07-14T06:32:28Z</time>
      </trkpt>
      <trkpt lat="47.60521" lon="-2.19638">
        <ele>40.87</ele>
        <time>2013-07-14T06:32:35Z</time>
      </trkpt>
      <trkpt lat="47.60555" lon="-2.19632">
        <ele>43.67</ele>
        <time>2013-07-14T06:32:56Z</time>
      </trkpt>
      <trkpt lat="47.60579" lon="-2.19627">
        <ele>49.18</ele>
        <time>2013-07-14T06:33:10Z</time>
      </trkpt>
      <trkpt lat="47.60598" lon="-2.19618">
        <ele>52.93</ele>
        <time>2013-07-14T06:33:23Z</time>
      </trkpt>
      <trkpt lat="47.60615" lon="-2.19629">
        <ele>57.66</ele>
        <time>2013-07-14T06:33:35Z</time>
      </trkpt>
      <trkpt lat="47.60633" lon="-2.19631">
        <ele>62.32</ele>
        <time>2013-07-14T06:33:49Z</time>
      </trkpt>
      <trkpt lat="47.6065" lon="-2.19619">
        <ele>66.84</ele>
        <time>2013-07-14T06:34:01Z</time>
      </trkpt>
      <trkpt lat="47.6068" lon="-2.19618">
        <ele>72.56</ele>
        <time>2013-07-14T06:34:23Z</time>
      </trkpt>
      <trkpt lat="47.60698" lon="-2.19613">
        <ele>74.97</ele>
        <time>2013-07-14T06:34:33Z</time>
      </trkpt>
      <trkpt lat="47.60723" lon="-2.19601">
        <ele>77.52</ele>
        <time>2013-07-14T06:34:53Z</time>
      </trkpt>
      <trkpt lat="47.60734" lon="-2.19626">
        <ele>75.07</ele>
        <time>2013-07-14T06:35:00Z</time>
      </trkpt>
      <trkpt lat="47.60764" lon="-2.19599">
        <ele>73.91</ele>
        <time>2013-07-14T06:35:24Z</time>
      </trkpt>
      <trkpt lat="47.60811" lon="-2.19577">
        <ele>73.03</ele>
        <time>2013-07-14T06:36:01Z</time>
      </trkpt>
      <trkpt lat="47.60824" lon="-2.19556">
        <ele>74.45</ele>
        <time>2013-07-14T06:36:29Z</time>
      </trkpt>
      <trkpt lat="47.60834" lon="-2.19505">
        <ele>78.88</ele>
        <time>2013-07-14T06:37:16Z</time>
      </trkpt>
      <trkpt lat="47.6085" lon="-2.19487">
        <ele>82.08</ele>
        <time>2013-07-14T06:37:23Z</time>
      </trkpt>
      <trkpt lat="47.6087" lon="-2.19468">
        <ele>84.13</ele>
        <time>2013-07-14T06:37:34Z</time>
      </trkpt>
      <trkpt lat="47.60887" lon="-2.19461">
        <ele>83.49</ele>
        <time>2013-07-14T06:37:42Z</time>
      </trkpt>
      <trkpt lat="47.60906" lon="-2.19461">
        <ele>83.46</ele>
        <time>2013-07-14T06:37:48Z</time>
      </trkpt>
      <trkpt lat="47.60923" lon="-2.19475">
        <ele>83.83</ele>
        <time>2013-07-14T06:37:53Z</time>
      </trkpt>
      <trkpt lat="47.60938" lon="-2.19503">
        <ele>84.64</ele>
        <time>2013-07-14T06:37:57Z</time>
      </trkpt>
      <trkpt lat="47.60958" lon="-2.19505">
        <ele>87.05</ele>
        <time>2013-07-14T06:38:04Z</time>
      </trkpt>
      <trkpt lat="47.60978" lon="-2.195">
        <ele>89.07</ele>
        <time>2013-07-14T06:38:11Z</time>
      </trkpt>
      <trkpt lat="47.60995" lon="-2.19508">
        <ele>90.43</ele>
        <time>2013-07-14T06:38:16Z</time>
      </trkpt>
      <trkpt lat="47.60997" lon="-2.19538">
        <ele>91.7</ele>
        <time>2013-07-14T06:38:22Z</time>
      </trkpt>
      <trkpt lat="47.60997" lon="-2.1957">
        <ele>92.45</ele>
        <time>2013-07-14T06:38:26Z</time>
      </trkpt>
      <trkpt lat="47.60993" lon="-2.19599">
        <ele>93.32</ele>
        <time>2013-07-14T06:38:29Z</time>
      </trkpt>
      <trkpt lat="47.60991" lon="-2.1963">
        <ele>94.28</ele>
        <time>2013-07-14T06:38:36Z</time>
      </trkpt>
      <trkpt lat="47.60988" lon="-2.19658">
        <ele>94.52</ele>
        <time>2013-07-14T06:38:40Z</time>
      </trkpt>
      <trkpt lat="47.60983" lon="-2.19686">
        <ele>95.19</ele>
        <time>2013-07-14T06:38:47Z</time>
      </trkpt>
      <trkpt lat="47.60977" lon="-2.19717">
        <ele>94.84</ele>
        <time>2013-07-14T06:38:53Z</time>
      </trkpt>
      <trkpt lat="47.60969" lon="-2.19748">
        <ele>94.63</ele>
        <time>2013-07-14T06:38:57Z</time>
      </trkpt>
      <trkpt lat="47.60962" lon="-2.19778">
        <ele>94.17</ele>
        <time>2013-07-14T06:39:00Z</time>
      </trkpt>
      <trkpt lat="47.60954" lon="-2.19805">
        <ele>94.39</ele>
        <time>2013-07-14T06:39:08Z</time>
      </trkpt>
      <trkpt lat="47.60945" lon="-2.19829">
        <ele>95.39</ele>
        <time>2013-07-14T06:39:13Z</time>
      </trkpt>
      <trkpt lat="47.60937" lon="-2.19858">
        <ele>95.63</ele>
        <time>2013-07-14T06:39:18Z</time>
      </trkpt>
      <trkpt lat="47.60928" lon="-2.19886">
        <ele>94.62</ele>
        <time>2013-07-14T06:39:23Z</time>
      </trkpt>
      <trkpt lat="47.60911" lon="-2.199">
        <ele>93.36</ele>
        <time>2013-07-14T06:39:27Z</time>
      </trkpt>
      <trkpt lat="47.60891" lon="-2.19905">
        <ele>91.98</ele>
        <time>2013-07-14T06:39:30Z</time>
      </trkpt>
      <trkpt lat="47.60871" lon="-2.19906">
        <ele>89.54</ele>
        <time>2013-07-14T06:39:34Z</time>
      </trkpt>
      <trkpt lat="47.60849" lon="-2.19907">
        <ele>87.32</ele>
        <time>2013-07-14T06:39:38Z</time>
      </trkpt>
      <trkpt lat="47.60831" lon="-2.19909">
        <ele>85.46</ele>
        <time>2013-07-14T06:39:42Z</time>
      </trkpt>
      <trkpt lat="47.60812" lon="-2.19911">
        <ele>84.81</ele>
        <time>2013-07-14T06:39:49Z</time>
      </trkpt>
      <trkpt lat="47.60793" lon="-2.19914">
        <ele>85.57</ele>
        <time>2013-07-14T06:39:53Z</time>
      </trkpt>
      <trkpt lat="47.60772" lon="-2.19916">
        <ele>85.98</ele>
        <time>2013-07-14T06:39:57Z</time>
      </trkpt>
      <trkpt lat="47.60758" lon="-2.19938">
        <ele>85.28</ele>
        <time>2013-07-14T06:40:04Z</time>
      </trkpt>
      <trkpt lat="47.60746" lon="-2.19967">
        <ele>86</ele>
        <time>2013-07-14T06:40:11Z</time>
      </trkpt>
      <trkpt lat="47.60734" lon="-2.19988">
        <ele>87.5</ele>
        <time>2013-07-14T06:40:20Z</time>
      </trkpt>
      <trkpt lat="47.60731" lon="-2.20014">
        <ele>90.33</ele>
        <time>2013-07-14T06:40:27Z</time>
      </trkpt>
      <trkpt lat="47.6073" lon="-2.20041">
        <ele>94.63</ele>
        <time>2013-07-14T06:40:38Z</time>
      </trkpt>
      <trkpt lat="47.60748" lon="-2.20057">
        <ele>94.62</ele>
        <time>2013-07-14T06:40:51Z</time>
      </trkpt>
      <trkpt lat="47.60731" lon="-2.20078">
        <ele>91.47</ele>
        <time>2013-07-14T06:40:59Z</time>
      </trkpt>
      <trkpt lat="47.60709" lon="-2.20087">
        <ele>90.22</ele>
        <time>2013-07-14T06:41:11Z</time>
      </trkpt>
      <trkpt lat="47.60729" lon="-2.20089">
        <ele>90.76</ele>
        <time>2013-07-14T06:41:29Z</time>
      </trkpt>
      <trkpt lat="47.60742" lon="-2.2011">
        <ele>92.8</ele>
        <time>2013-07-14T06:41:37Z</time>
      </trkpt>
      <trkpt lat="47.60748" lon="-2.20142">
        <ele>92.43</ele>
        <time>2013-07-14T06:41:42Z</time>
      </trkpt>
      <trkpt lat="47.60736" lon="-2.20164">
        <ele>90.36</ele>
        <time>2013-07-14T06:41:46Z</time>
      </trkpt>
      <trkpt lat="47.60723" lon="-2.20187">
        <ele>88.5</ele>
        <time>2013-07-14T06:41:50Z</time>
      </trkpt>
      <trkpt lat="47.60712" lon="-2.20209">
        <ele>86.79</ele>
        <time>2013-07-14T06:41:54Z</time>
      </trkpt>
      <trkpt lat="47.60701" lon="-2.20232">
        <ele>85.23</ele>
        <time>2013-07-14T06:41:58Z</time>
      </trkpt>
      <trkpt lat="47.6069" lon="-2.20255">
        <ele>83.75</ele>
        <time>2013-07-14T06:42:02Z</time>
      </trkpt>
      <trkpt lat="47.6068" lon="-2.20281">
        <ele>82.25</ele>
        <time>2013-07-14T06:42:06Z</time>
      </trkpt>
      <trkpt lat="47.60672" lon="-2.20309">
        <ele>80.98</ele>
        <time>2013-07-14T06:42:10Z</time>
      </trkpt>
      <trkpt lat="47.60664" lon="-2.20337">
        <ele>79.76</ele>
        <time>2013-07-14T06:42:14Z</time>
      </trkpt>
      <trkpt lat="47.60658" lon="-2.20366">
        <ele>78</ele>
        <time>2013-07-14T06:42:18Z</time>
      </trkpt>
      <trkpt lat="47.60651" lon="-2.20397">
        <ele>76.84</ele>
        <time>2013-07-14T06:42:22Z</time>
      </trkpt>
      <trkpt lat="47.60642" lon="-2.20428">
        <ele>75.87</ele>
        <time>2013-07-14T06:42:26Z</time>
      </trkpt>
      <trkpt lat="47.60636" lon="-2.20454">
        <ele>75.2</ele>
        <time>2013-07-14T06:42:29Z</time>
      </trkpt>
      <trkpt lat="47.6063" lon="-2.20479">
        <ele>74.66</ele>
        <time>2013-07-14T06:42:32Z</time>
      </trkpt>
      <trkpt lat="47.60623" lon="-2.2051">
        <ele>73.86</ele>
        <time>2013-07-14T06:42:36Z</time>
      </trkpt>
      <trkpt lat="47.60618" lon="-2.20537">
        <ele>73.25</ele>
        <time>2013-07-14T06:42:40Z</time>
      </trkpt>
      <trkpt lat="47.60613" lon="-2.20565">
        <ele>72.7</ele>
        <time>2013-07-14T06:42:44Z</time>
      </trkpt>
      <trkpt lat="47.60609" lon="-2.20593">
        <ele>72.38</ele>
        <time>2013-07-14T06:42:48Z</time>
      </trkpt>
      <trkpt lat="47.60604" lon="-2.20625">
        <ele>72.39</ele>
        <time>2013-07-14T06:42:52Z</time>
      </trkpt>
      <trkpt lat="47.60596" lon="-2.20658">
        <ele>72.42</ele>
        <time>2013-07-14T06:42:56Z</time>
      </trkpt>
      <trkpt lat="47.60588" lon="-2.2069">
        <ele>73.13</ele>
        <time>2013-07-14T06:43:00Z</time>
      </trkpt>
      <trkpt lat="47.60579" lon="-2.20719">
        <ele>74.14</ele>
        <time>2013-07-14T06:43:04Z</time>
      </trkpt>
      <trkpt lat="47.6057" lon="-2.20748">
        <ele>75.43</ele>
        <time>2013-07-14T06:43:08Z</time>
      </trkpt>
      <trkpt lat="47.6056" lon="-2.20776">
        <ele>76.39</ele>
        <time>2013-07-14T06:43:12Z</time>
      </trkpt>
      <trkpt lat="47.60553" lon="-2.20805">
        <ele>77.1</ele>
        <time>2013-07-14T06:43:16Z</time>
      </trkpt>
      <trkpt lat="47.60548" lon="-2.20834">
        <ele>78.32</ele>
        <time>2013-07-14T06:43:20Z</time>
      </trkpt>
      <trkpt lat="47.60541" lon="-2.20864">
        <ele>79.3</ele>
        <time>2013-07-14T06:43:24Z</time>
      </trkpt>
      <trkpt lat="47.60536" lon="-2.20894">
        <ele>80.07</ele>
        <time>2013-07-14T06:43:28Z</time>
      </trkpt>
      <trkpt lat="47.6053" lon="-2.2092">
        <ele>80.45</ele>
        <time>2013-07-14T06:43:32Z</time>
      </trkpt>
      <trkpt lat="47.60523" lon="-2.20948">
        <ele>80.29</ele>
        <time>2013-07-14T06:43:36Z</time>
      </trkpt>
      <trkpt lat="47.60516" lon="-2.20975">
        <ele>79.85</ele>
        <time>2013-07-14T06:43:40Z</time>
      </trkpt>
      <trkpt lat="47.60509" lon="-2.21005">
        <ele>79.49</ele>
        <time>2013-07-14T06:43:44Z</time>
      </trkpt>
      <trkpt lat="47.60499" lon="-2.21037">
        <ele>78.7</ele>
        <time>2013-07-14T06:43:48Z</time>
      </trkpt>
      <trkpt lat="47.60492" lon="-2.21062">
        <ele>78.06</ele>
        <time>2013-07-14T06:43:51Z</time>
      </trkpt>
      <trkpt lat="47.60485" lon="-2.21088">
        <ele>77.63</ele>
        <time>2013-07-14T06:43:54Z</time>
      </trkpt>
      <trkpt lat="47.60478" lon="-2.21121">
        <ele>78</ele>
        <time>2013-07-14T06:43:58Z</time>
      </trkpt>
      <trkpt lat="47.60473" lon="-2.21153">
        <ele>78.04</ele>
        <time>2013-07-14T06:44:01Z</time>
      </trkpt>
      <trkpt lat="47.60462" lon="-2.21188">
        <ele>77.28</ele>
        <time>2013-07-14T06:44:04Z</time>
      </trkpt>
      <trkpt lat="47.60452" lon="-2.21221">
        <ele>76.29</ele>
        <time>2013-07-14T06:44:07Z</time>
      </trkpt>
      <trkpt lat="47.60441" lon="-2.21253">
        <ele>75.09</ele>
        <time>2013-07-14T06:44:10Z</time>
      </trkpt>
      <trkpt lat="47.60432" lon="-2.21283">
        <ele>74.06</ele>
        <time>2013-07-14T06:44:13Z</time>
      </trkpt>
      <trkpt lat="47.60423" lon="-2.21313">
        <ele>73.02</ele>
        <time>2013-07-14T06:44:16Z</time>
      </trkpt>
      <trkpt lat="47.60415" lon="-2.2134">
        <ele>72.27</ele>
        <time>2013-07-14T06:44:19Z</time>
      </trkpt>
      <trkpt lat="47.60407" lon="-2.21368">
        <ele>71.75</ele>
        <time>2013-07-14T06:44:22Z</time>
      </trkpt>
      <trkpt lat="47.60399" lon="-2.21397">
        <ele>71.76</ele>
        <time>2013-07-14T06:44:26Z</time>
      </trkpt>
      <trkpt lat="47.60389" lon="-2.21424">
        <ele>71.79</ele>
        <time>2013-07-14T06:44:30Z</time>
      </trkpt>
      <trkpt lat="47.60381" lon="-2.21455">
        <ele>72.01</ele>
        <time>2013-07-14T06:44:34Z</time>
      </trkpt>
      <trkpt lat="47.60375" lon="-2.21484">
        <ele>72.13</ele>
        <time>2013-07-14T06:44:38Z</time>
      </trkpt>
      <trkpt lat="47.60367" lon="-2.21512">
        <ele>72.55</ele>
        <time>2013-07-14T06:44:41Z</time>
      </trkpt>
      <trkpt lat="47.6036" lon="-2.21536">
        <ele>72.66</ele>
        <time>2013-07-14T06:44:43Z</time>
      </trkpt>
      <trkpt lat="47.60353" lon="-2.21564">
        <ele>72.48</ele>
        <time>2013-07-14T06:44:46Z</time>
      </trkpt>
      <trkpt lat="47.60343" lon="-2.21596">
        <ele>71.82</ele>
        <time>2013-07-14T06:44:50Z</time>
      </trkpt>
      <trkpt lat="47.60332" lon="-2.21627">
        <ele>70.57</ele>
        <time>2013-07-14T06:44:54Z</time>
      </trkpt>
      <trkpt lat="47.60316" lon="-2.2165">
        <ele>69.15</ele>
        <time>2013-07-14T06:44:58Z</time>
      </trkpt>
      <trkpt lat="47.603" lon="-2.21672">
        <ele>69.19</ele>
        <time>2013-07-14T06:45:03Z</time>
      </trkpt>
      <trkpt lat="47.60278" lon="-2.21683">
        <ele>69.43</ele>
        <time>2013-07-14T06:45:07Z</time>
      </trkpt>
      <trkpt lat="47.60261" lon="-2.21692">
        <ele>68.8</ele>
        <time>2013-07-14T06:45:11Z</time>
      </trkpt>
      <trkpt lat="47.60243" lon="-2.21699">
        <ele>69.32</ele>
        <time>2013-07-14T06:45:16Z</time>
      </trkpt>
      <trkpt lat="47.60231" lon="-2.2172">
        <ele>71.17</ele>
        <time>2013-07-14T06:45:23Z</time>
      </trkpt>
      <trkpt lat="47.60236" lon="-2.21747">
        <ele>73.79</ele>
        <time>2013-07-14T06:45:29Z</time>
      </trkpt>
      <trkpt lat="47.60241" lon="-2.21775">
        <ele>74.57</ele>
        <time>2013-07-14T06:45:35Z</time>
      </trkpt>
      <trkpt lat="47.60248" lon="-2.21802">
        <ele>74.07</ele>
        <time>2013-07-14T06:45:40Z</time>
      </trkpt>
      <trkpt lat="47.60252" lon="-2.21831">
        <ele>73.84</ele>
        <time>2013-07-14T06:45:45Z</time>
      </trkpt>
      <trkpt lat="47.60257" lon="-2.21863">
        <ele>73.91</ele>
        <time>2013-07-14T06:45:52Z</time>
      </trkpt>
      <trkpt lat="47.60268" lon="-2.21894">
        <ele>74.23</ele>
        <time>2013-07-14T06:45:56Z</time>
      </trkpt>
      <trkpt lat="47.60275" lon="-2.21926">
        <ele>74.41</ele>
        <time>2013-07-14T06:46:00Z</time>
      </trkpt>
      <trkpt lat="47.60288" lon="-2.21947">
        <ele>74.37</ele>
        <time>2013-07-14T06:46:05Z</time>
      </trkpt>
      <trkpt lat="47.60305" lon="-2.21956">
        <ele>73.76</ele>
        <time>2013-07-14T06:46:11Z</time>
      </trkpt>
      <trkpt lat="47.60323" lon="-2.21961">
        <ele>70.97</ele>
        <time>2013-07-14T06:46:16Z</time>
      </trkpt>
      <trkpt lat="47.60337" lon="-2.21983">
        <ele>66.64</ele>
        <time>2013-07-14T06:46:23Z</time>
      </trkpt>
      <trkpt lat="47.60338" lon="-2.22013">
        <ele>64.38</ele>
        <time>2013-07-14T06:46:28Z</time>
      </trkpt>
      <trkpt lat="47.60338" lon="-2.22039">
        <ele>62.76</ele>
        <time>2013-07-14T06:46:33Z</time>
      </trkpt>
      <trkpt lat="47.60352" lon="-2.22015">
        <ele>61.63</ele>
        <time>2013-07-14T06:46:41Z</time>
      </trkpt>
      <trkpt lat="47.60362" lon="-2.21987">
        <ele>61.78</ele>
        <time>2013-07-14T06:46:45Z</time>
      </trkpt>
      <trkpt lat="47.60373" lon="-2.21959">
        <ele>61.32</ele>
        <time>2013-07-14T06:46:49Z</time>
      </trkpt>
      <trkpt lat="47.60379" lon="-2.21934">
        <ele>60.87</ele>
        <time>2013-07-14T06:46:52Z</time>
      </trkpt>
      <trkpt lat="47.60384" lon="-2.21906">
        <ele>60.43</ele>
        <time>2013-07-14T06:46:55Z</time>
      </trkpt>
      <trkpt lat="47.6039" lon="-2.21876">
        <ele>60.04</ele>
        <time>2013-07-14T06:46:58Z</time>
      </trkpt>
      <trkpt lat="47.60396" lon="-2.21847">
        <ele>59.62</ele>
        <time>2013-07-14T06:47:01Z</time>
      </trkpt>
      <trkpt lat="47.60402" lon="-2.2182">
        <ele>59.41</ele>
        <time>2013-07-14T06:47:04Z</time>
      </trkpt>
      <trkpt lat="47.60417" lon="-2.21804">
        <ele>58.55</ele>
        <time>2013-07-14T06:47:07Z</time>
      </trkpt>
      <trkpt lat="47.60435" lon="-2.21809">
        <ele>57.86</ele>
        <time>2013-07-14T06:47:10Z</time>
      </trkpt>
      <trkpt lat="47.60456" lon="-2.21817">
        <ele>57.11</ele>
        <time>2013-07-14T06:47:13Z</time>
      </trkpt>
      <trkpt lat="47.6048" lon="-2.21826">
        <ele>56.13</ele>
        <time>2013-07-14T06:47:16Z</time>
      </trkpt>
      <trkpt lat="47.60505" lon="-2.21835">
        <ele>55.73</ele>
        <time>2013-07-14T06:47:19Z</time>
      </trkpt>
      <trkpt lat="47.6053" lon="-2.21846">
        <ele>54.66</ele>
        <time>2013-07-14T06:47:22Z</time>
      </trkpt>
      <trkpt lat="47.60548" lon="-2.21854">
        <ele>53.81</ele>
        <time>2013-07-14T06:47:24Z</time>
      </trkpt>
      <trkpt lat="47.60573" lon="-2.21867">
        <ele>52.58</ele>
        <time>2013-07-14T06:47:27Z</time>
      </trkpt>
      <trkpt lat="47.60599" lon="-2.21878">
        <ele>51.9</ele>
        <time>2013-07-14T06:47:30Z</time>
      </trkpt>
      <trkpt lat="47.60616" lon="-2.21888">
        <ele>50.78</ele>
        <time>2013-07-14T06:47:32Z</time>
      </trkpt>
      <trkpt lat="47.60633" lon="-2.21899">
        <ele>49.52</ele>
        <time>2013-07-14T06:47:34Z</time>
      </trkpt>
      <trkpt lat="47.6066" lon="-2.21913">
        <ele>48.34</ele>
        <time>2013-07-14T06:47:37Z</time>
      </trkpt>
      <trkpt lat="47.60682" lon="-2.21929">
        <ele>48.34</ele>
        <time>2013-07-14T06:47:40Z</time>
      </trkpt>
      <trkpt lat="47.607" lon="-2.21938">
        <ele>47.79</ele>
        <time>2013-07-14T06:47:43Z</time>
      </trkpt>
      <trkpt lat="47.60719" lon="-2.21948">
        <ele>47.01</ele>
        <time>2013-07-14T06:47:46Z</time>
      </trkpt>
      <trkpt lat="47.60738" lon="-2.21958">
        <ele>46.34</ele>
        <time>2013-07-14T06:47:49Z</time>
      </trkpt>
      <trkpt lat="47.60757" lon="-2.21963">
        <ele>45.68</ele>
        <time>2013-07-14T06:47:52Z</time>
      </trkpt>
      <trkpt lat="47.60772" lon="-2.21982">
        <ele>45.5</ele>
        <time>2013-07-14T06:47:56Z</time>
      </trkpt>
      <trkpt lat="47.6078" lon="-2.22012">
        <ele>45.35</ele>
        <time>2013-07-14T06:48:00Z</time>
      </trkpt>
      <trkpt lat="47.60776" lon="-2.22038">
        <ele>45.54</ele>
        <time>2013-07-14T06:48:03Z</time>
      </trkpt>
      <trkpt lat="47.60784" lon="-2.22065">
        <ele>44.91</ele>
        <time>2013-07-14T06:48:07Z</time>
      </trkpt>
      <trkpt lat="47.60806" lon="-2.22074">
        <ele>42.34</ele>
        <time>2013-07-14T06:48:12Z</time>
      </trkpt>
      <trkpt lat="47.60823" lon="-2.22066">
        <ele>40.48</ele>
        <time>2013-07-14T06:48:17Z</time>
      </trkpt>
      <trkpt lat="47.60837" lon="-2.22044">
        <ele>40.14</ele>
        <time>2013-07-14T06:48:21Z</time>
      </trkpt>
      <trkpt lat="47.6085" lon="-2.2202">
        <ele>40.79</ele>
        <time>2013-07-14T06:48:26Z</time>
      </trkpt>
      <trkpt lat="47.60862" lon="-2.21999">
        <ele>41.66</ele>
        <time>2013-07-14T06:48:30Z</time>
      </trkpt>
      <trkpt lat="47.60874" lon="-2.21978">
        <ele>41.72</ele>
        <time>2013-07-14T06:48:33Z</time>
      </trkpt>
      <trkpt lat="47.60892" lon="-2.21961">
        <ele>41.41</ele>
        <time>2013-07-14T06:48:36Z</time>
      </trkpt>
      <trkpt lat="47.60913" lon="-2.21959">
        <ele>40.82</ele>
        <time>2013-07-14T06:48:40Z</time>
      </trkpt>
      <trkpt lat="47.60937" lon="-2.21965">
        <ele>41.27</ele>
        <time>2013-07-14T06:48:44Z</time>
      </trkpt>
      <trkpt lat="47.60954" lon="-2.21979">
        <ele>41.99</ele>
        <time>2013-07-14T06:48:47Z</time>
      </trkpt>
      <trkpt lat="47.60972" lon="-2.21994">
        <ele>42.74</ele>
        <time>2013-07-14T06:48:50Z</time>
      </trkpt>
      <trkpt lat="47.60989" lon="-2.22009">
        <ele>43.58</ele>
        <time>2013-07-14T06:48:53Z</time>
      </trkpt>
      <trkpt lat="47.61007" lon="-2.22029">
        <ele>43.89</ele>
        <time>2013-07-14T06:48:56Z</time>
      </trkpt>
      <trkpt lat="47.61025" lon="-2.22045">
        <ele>43.97</ele>
        <time>2013-07-14T06:48:59Z</time>
      </trkpt>
      <trkpt lat="47.61044" lon="-2.22061">
        <ele>43.28</ele>
        <time>2013-07-14T06:49:02Z</time>
      </trkpt>
      <trkpt lat="47.61062" lon="-2.22077">
        <ele>41.46</ele>
        <time>2013-07-14T06:49:05Z</time>
      </trkpt>
      <trkpt lat="47.61082" lon="-2.2209">
        <ele>39.18</ele>
        <time>2013-07-14T06:49:08Z</time>
      </trkpt>
      <trkpt lat="47.61109" lon="-2.22101">
        <ele>37.19</ele>
        <time>2013-07-14T06:49:11Z</time>
      </trkpt>
      <trkpt lat="47.6113" lon="-2.2211">
        <ele>36.96</ele>
        <time>2013-07-14T06:49:14Z</time>
      </trkpt>
      <trkpt lat="47.61149" lon="-2.22111">
        <ele>36.47</ele>
        <time>2013-07-14T06:49:17Z</time>
      </trkpt>
      <trkpt lat="47.61168" lon="-2.22114">
        <ele>35.61</ele>
        <time>2013-07-14T06:49:20Z</time>
      </trkpt>
      <trkpt lat="47.61191" lon="-2.22122">
        <ele>34.68</ele>
        <time>2013-07-14T06:49:24Z</time>
      </trkpt>
      <trkpt lat="47.61213" lon="-2.22132">
        <ele>33.17</ele>
        <time>2013-07-14T06:49:28Z</time>
      </trkpt>
      <trkpt lat="47.61235" lon="-2.22139">
        <ele>31.39</ele>
        <time>2013-07-14T06:49:32Z</time>
      </trkpt>
      <trkpt lat="47.61256" lon="-2.22148">
        <ele>29.21</ele>
        <time>2013-07-14T06:49:36Z</time>
      </trkpt>
      <trkpt lat="47.61275" lon="-2.22137">
        <ele>28.14</ele>
        <time>2013-07-14T06:49:40Z</time>
      </trkpt>
      <trkpt lat="47.61285" lon="-2.22113">
        <ele>28.46</ele>
        <time>2013-07-14T06:49:45Z</time>
      </trkpt>
      <trkpt lat="47.61295" lon="-2.22087">
        <ele>29.27</ele>
        <time>2013-07-14T06:49:51Z</time>
      </trkpt>
      <trkpt lat="47.61303" lon="-2.22062">
        <ele>30.17</ele>
        <time>2013-07-14T06:49:57Z</time>
      </trkpt>
      <trkpt lat="47.61312" lon="-2.22035">
        <ele>32.83</ele>
        <time>2013-07-14T06:50:05Z</time>
      </trkpt>
      <trkpt lat="47.61325" lon="-2.22012">
        <ele>33.43</ele>
        <time>2013-07-14T06:50:09Z</time>
      </trkpt>
      <trkpt lat="47.6134" lon="-2.21992">
        <ele>33.69</ele>
        <time>2013-07-14T06:50:13Z</time>
      </trkpt>
      <trkpt lat="47.61358" lon="-2.21971">
        <ele>33.94</ele>
        <time>2013-07-14T06:50:17Z</time>
      </trkpt>
      <trkpt lat="47.61373" lon="-2.21954">
        <ele>33.92</ele>
        <time>2013-07-14T06:50:20Z</time>
      </trkpt>
      <trkpt lat="47.61389" lon="-2.21937">
        <ele>33.71</ele>
        <time>2013-07-14T06:50:23Z</time>
      </trkpt>
      <trkpt lat="47.61407" lon="-2.21918">
        <ele>33.64</ele>
        <time>2013-07-14T06:50:27Z</time>
      </trkpt>
      <trkpt lat="47.61425" lon="-2.21899">
        <ele>33.65</ele>
        <time>2013-07-14T06:50:31Z</time>
      </trkpt>
      <trkpt lat="47.61444" lon="-2.21881">
        <ele>33.72</ele>
        <time>2013-07-14T06:50:35Z</time>
      </trkpt>
      <trkpt lat="47.61462" lon="-2.21863">
        <ele>34.23</ele>
        <time>2013-07-14T06:50:39Z</time>
      </trkpt>
      <trkpt lat="47.6148" lon="-2.21856">
        <ele>35.31</ele>
        <time>2013-07-14T06:50:43Z</time>
      </trkpt>
      <trkpt lat="47.61501" lon="-2.21854">
        <ele>36.44</ele>
        <time>2013-07-14T06:50:49Z</time>
      </trkpt>
      <trkpt lat="47.6152" lon="-2.21845">
        <ele>37.7</ele>
        <time>2013-07-14T06:50:54Z</time>
      </trkpt>
      <trkpt lat="47.61529" lon="-2.21823">
        <ele>40.13</ele>
        <time>2013-07-14T06:51:07Z</time>
      </trkpt>
      <trkpt lat="47.61517" lon="-2.21792">
        <ele>46.04</ele>
        <time>2013-07-14T06:51:24Z</time>
      </trkpt>
      <trkpt lat="47.61506" lon="-2.21771">
        <ele>49.08</ele>
        <time>2013-07-14T06:51:36Z</time>
      </trkpt>
      <trkpt lat="47.61486" lon="-2.21779">
        <ele>49.15</ele>
        <time>2013-07-14T06:51:41Z</time>
      </trkpt>
      <trkpt lat="47.61468" lon="-2.21798">
        <ele>49.21</ele>
        <time>2013-07-14T06:51:45Z</time>
      </trkpt>
      <trkpt lat="47.61448" lon="-2.21803">
        <ele>47</ele>
        <time>2013-07-14T06:51:52Z</time>
      </trkpt>
      <trkpt lat="47.61428" lon="-2.21784">
        <ele>46.61</ele>
        <time>2013-07-14T06:52:03Z</time>
      </trkpt>
      <trkpt lat="47.61413" lon="-2.21764">
        <ele>47.16</ele>
        <time>2013-07-14T06:52:12Z</time>
      </trkpt>
      <trkpt lat="47.61398" lon="-2.21748">
        <ele>47.05</ele>
        <time>2013-07-14T06:52:21Z</time>
      </trkpt>
      <trkpt lat="47.61379" lon="-2.21754">
        <ele>49.29</ele>
        <time>2013-07-14T06:52:39Z</time>
      </trkpt>
      <trkpt lat="47.6136" lon="-2.21759">
        <ele>48.53</ele>
        <time>2013-07-14T06:52:46Z</time>
      </trkpt>
      <trkpt lat="47.61346" lon="-2.21781">
        <ele>50.86</ele>
        <time>2013-07-14T06:52:56Z</time>
      </trkpt>
      <trkpt lat="47.61337" lon="-2.21809">
        <ele>53.32</ele>
        <time>2013-07-14T06:53:03Z</time>
      </trkpt>
      <trkpt lat="47.6132" lon="-2.2182">
        <ele>53.59</ele>
        <time>2013-07-14T06:53:10Z</time>
      </trkpt>
      <trkpt lat="47.61302" lon="-2.21824">
        <ele>52.47</ele>
        <time>2013-07-14T06:53:13Z</time>
      </trkpt>
      <trkpt lat="47.6129" lon="-2.21772">
        <ele>56.19</ele>
        <time>2013-07-14T06:53:38Z</time>
      </trkpt>
      <trkpt lat="47.61284" lon="-2.21746">
        <ele>60.34</ele>
        <time>2013-07-14T06:53:46Z</time>
      </trkpt>
      <trkpt lat="47.61281" lon="-2.2171">
        <ele>64.17</ele>
        <time>2013-07-14T06:54:01Z</time>
      </trkpt>
      <trkpt lat="47.6126" lon="-2.21721">
        <ele>63.07</ele>
        <time>2013-07-14T06:54:16Z</time>
      </trkpt>
      <trkpt lat="47.61243" lon="-2.21711">
        <ele>61.45</ele>
        <time>2013-07-14T06:54:21Z</time>
      </trkpt>
      <trkpt lat="47.61224" lon="-2.21713">
        <ele>60.62</ele>
        <time>2013-07-14T06:54:33Z</time>
      </trkpt>
      <trkpt lat="47.61193" lon="-2.21704">
        <ele>59.95</ele>
        <time>2013-07-14T06:55:35Z</time>
      </trkpt>
      <trkpt lat="47.6118" lon="-2.21683">
        <ele>60.26</ele>
        <time>2013-07-14T06:55:49Z</time>
      </trkpt>
      <trkpt lat="47.61185" lon="-2.21655">
        <ele>61.58</ele>
        <time>2013-07-14T06:55:57Z</time>
      </trkpt>
      <trkpt lat="47.61183" lon="-2.21628">
        <ele>63.45</ele>
        <time>2013-07-14T06:56:08Z</time>
      </trkpt>
      <trkpt lat="47.61201" lon="-2.21613">
        <ele>74.18</ele>
        <time>2013-07-14T06:57:35Z</time>
      </trkpt>
      <trkpt lat="47.61216" lon="-2.21598">
        <ele>75.63</ele>
        <time>2013-07-14T06:57:40Z</time>
      </trkpt>
      <trkpt lat="47.61234" lon="-2.21577">
        <ele>76.42</ele>
        <time>2013-07-14T06:57:44Z</time>
      </trkpt>
      <trkpt lat="47.61248" lon="-2.21557">
        <ele>76.83</ele>
        <time>2013-07-14T06:57:50Z</time>
      </trkpt>
      <trkpt lat="47.61263" lon="-2.21534">
        <ele>75.52</ele>
        <time>2013-07-14T06:57:55Z</time>
      </trkpt>
      <trkpt lat="47.61276" lon="-2.21512">
        <ele>73.88</ele>
        <time>2013-07-14T06:57:59Z</time>
      </trkpt>
      <trkpt lat="47.61288" lon="-2.2149">
        <ele>72.4</ele>
        <time>2013-07-14T06:58:03Z</time>
      </trkpt>
      <trkpt lat="47.61304" lon="-2.21468">
        <ele>70.54</ele>
        <time>2013-07-14T06:58:08Z</time>
      </trkpt>
      <trkpt lat="47.61319" lon="-2.21445">
        <ele>69.29</ele>
        <time>2013-07-14T06:58:13Z</time>
      </trkpt>
      <trkpt lat="47.61331" lon="-2.21425">
        <ele>69.12</ele>
        <time>2013-07-14T06:58:17Z</time>
      </trkpt>
      <trkpt lat="47.61345" lon="-2.21401">
        <ele>69.49</ele>
        <time>2013-07-14T06:58:22Z</time>
      </trkpt>
      <trkpt lat="47.61355" lon="-2.21378">
        <ele>70.25</ele>
        <time>2013-07-14T06:58:26Z</time>
      </trkpt>
      <trkpt lat="47.61371" lon="-2.21355">
        <ele>71.02</ele>
        <time>2013-07-14T06:58:31Z</time>
      </trkpt>
      <trkpt lat="47.61384" lon="-2.21332">
        <ele>70.65</ele>
        <time>2013-07-14T06:58:35Z</time>
      </trkpt>
      <trkpt lat="47.61393" lon="-2.21305">
        <ele>70.59</ele>
        <time>2013-07-14T06:58:39Z</time>
      </trkpt>
      <trkpt lat="47.61398" lon="-2.21275">
        <ele>70.24</ele>
        <time>2013-07-14T06:58:43Z</time>
      </trkpt>
      <trkpt lat="47.61401" lon="-2.21246">
        <ele>69.41</ele>
        <time>2013-07-14T06:58:47Z</time>
      </trkpt>
      <trkpt lat="47.61405" lon="-2.21216">
        <ele>68.96</ele>
        <time>2013-07-14T06:58:51Z</time>
      </trkpt>
      <trkpt lat="47.6141" lon="-2.21184">
        <ele>68.98</ele>
        <time>2013-07-14T06:58:55Z</time>
      </trkpt>
      <trkpt lat="47.61417" lon="-2.21153">
        <ele>69.15</ele>
        <time>2013-07-14T06:58:59Z</time>
      </trkpt>
      <trkpt lat="47.61423" lon="-2.21119">
        <ele>69.67</ele>
        <time>2013-07-14T06:59:03Z</time>
      </trkpt>
      <trkpt lat="47.61428" lon="-2.21089">
        <ele>70.22</ele>
        <time>2013-07-14T06:59:06Z</time>
      </trkpt>
      <trkpt lat="47.61434" lon="-2.21059">
        <ele>71.13</ele>
        <time>2013-07-14T06:59:09Z</time>
      </trkpt>
      <trkpt lat="47.61439" lon="-2.21029">
        <ele>71.86</ele>
        <time>2013-07-14T06:59:12Z</time>
      </trkpt>
      <trkpt lat="47.61446" lon="-2.21002">
        <ele>71.98</ele>
        <time>2013-07-14T06:59:15Z</time>
      </trkpt>
      <trkpt lat="47.61458" lon="-2.2097">
        <ele>72.45</ele>
        <time>2013-07-14T06:59:19Z</time>
      </trkpt>
      <trkpt lat="47.61473" lon="-2.2095">
        <ele>72.14</ele>
        <time>2013-07-14T06:59:22Z</time>
      </trkpt>
      <trkpt lat="47.61489" lon="-2.20933">
        <ele>71.56</ele>
        <time>2013-07-14T06:59:25Z</time>
      </trkpt>
      <trkpt lat="47.61508" lon="-2.20914">
        <ele>70.87</ele>
        <time>2013-07-14T06:59:29Z</time>
      </trkpt>
      <trkpt lat="47.61524" lon="-2.20899">
        <ele>71.27</ele>
        <time>2013-07-14T06:59:34Z</time>
      </trkpt>
      <trkpt lat="47.61549" lon="-2.20873">
        <ele>64.23</ele>
        <time>2013-07-14T07:00:41Z</time>
      </trkpt>
      <trkpt lat="47.61535" lon="-2.20853">
        <ele>50.97</ele>
        <time>2013-07-14T07:06:51Z</time>
      </trkpt>
      <trkpt lat="47.6152" lon="-2.20838">
        <ele>51.04</ele>
        <time>2013-07-14T07:06:56Z</time>
      </trkpt>
      <trkpt lat="47.61502" lon="-2.20824">
        <ele>50.84</ele>
        <time>2013-07-14T07:07:00Z</time>
      </trkpt>
      <trkpt lat="47.61483" lon="-2.20811">
        <ele>50.37</ele>
        <time>2013-07-14T07:07:05Z</time>
      </trkpt>
      <trkpt lat="47.61465" lon="-2.20801">
        <ele>50.8</ele>
        <time>2013-07-14T07:07:10Z</time>
      </trkpt>
      <trkpt lat="47.61452" lon="-2.20781">
        <ele>50.77</ele>
        <time>2013-07-14T07:07:14Z</time>
      </trkpt>
      <trkpt lat="47.61454" lon="-2.20751">
        <ele>50.45</ele>
        <time>2013-07-14T07:07:18Z</time>
      </trkpt>
      <trkpt lat="47.61459" lon="-2.2072">
        <ele>50.54</ele>
        <time>2013-07-14T07:07:22Z</time>
      </trkpt>
      <trkpt lat="47.61464" lon="-2.20694">
        <ele>50.59</ele>
        <time>2013-07-14T07:07:25Z</time>
      </trkpt>
      <trkpt lat="47.61469" lon="-2.20665">
        <ele>50.45</ele>
        <time>2013-07-14T07:07:28Z</time>
      </trkpt>
      <trkpt lat="47.61475" lon="-2.20636">
        <ele>50.28</ele>
        <time>2013-07-14T07:07:31Z</time>
      </trkpt>
      <trkpt lat="47.6148" lon="-2.20605">
        <ele>50.5</ele>
        <time>2013-07-14T07:07:34Z</time>
      </trkpt>
      <trkpt lat="47.61487" lon="-2.20574">
        <ele>50.49</ele>
        <time>2013-07-14T07:07:37Z</time>
      </trkpt>
      <trkpt lat="47.61493" lon="-2.20541">
        <ele>50.36</ele>
        <time>2013-07-14T07:07:40Z</time>
      </trkpt>
      <trkpt lat="47.61498" lon="-2.20508">
        <ele>50.42</ele>
        <time>2013-07-14T07:07:43Z</time>
      </trkpt>
      <trkpt lat="47.61497" lon="-2.20478">
        <ele>50.5</ele>
        <time>2013-07-14T07:07:46Z</time>
      </trkpt>
      <trkpt lat="47.61493" lon="-2.20449">
        <ele>49.91</ele>
        <time>2013-07-14T07:07:49Z</time>
      </trkpt>
      <trkpt lat="47.61485" lon="-2.2042">
        <ele>48.83</ele>
        <time>2013-07-14T07:07:53Z</time>
      </trkpt>
      <trkpt lat="47.61482" lon="-2.2039">
        <ele>48.63</ele>
        <time>2013-07-14T07:07:57Z</time>
      </trkpt>
      <trkpt lat="47.61491" lon="-2.20364">
        <ele>49.71</ele>
        <time>2013-07-14T07:08:01Z</time>
      </trkpt>
      <trkpt lat="47.61498" lon="-2.20336">
        <ele>51.21</ele>
        <time>2013-07-14T07:08:05Z</time>
      </trkpt>
      <trkpt lat="47.61508" lon="-2.20306">
        <ele>51.51</ele>
        <time>2013-07-14T07:08:08Z</time>
      </trkpt>
      <trkpt lat="47.61523" lon="-2.20279">
        <ele>50.75</ele>
        <time>2013-07-14T07:08:11Z</time>
      </trkpt>
      <trkpt lat="47.61543" lon="-2.20279">
        <ele>49.82</ele>
        <time>2013-07-14T07:08:14Z</time>
      </trkpt>
      <trkpt lat="47.61566" lon="-2.2027">
        <ele>48.52</ele>
        <time>2013-07-14T07:08:18Z</time>
      </trkpt>
      <trkpt lat="47.61582" lon="-2.20251">
        <ele>47.37</ele>
        <time>2013-07-14T07:08:22Z</time>
      </trkpt>
      <trkpt lat="47.61599" lon="-2.20231">
        <ele>45.28</ele>
        <time>2013-07-14T07:08:26Z</time>
      </trkpt>
      <trkpt lat="47.61617" lon="-2.20211">
        <ele>45.47</ele>
        <time>2013-07-14T07:08:30Z</time>
      </trkpt>
      <trkpt lat="47.61632" lon="-2.2019">
        <ele>46.87</ele>
        <time>2013-07-14T07:08:34Z</time>
      </trkpt>
      <trkpt lat="47.61652" lon="-2.20178">
        <ele>48.48</ele>
        <time>2013-07-14T07:08:38Z</time>
      </trkpt>
      <trkpt lat="47.61669" lon="-2.20171">
        <ele>50.19</ele>
        <time>2013-07-14T07:08:41Z</time>
      </trkpt>
      <trkpt lat="47.61684" lon="-2.20149">
        <ele>50.7</ele>
        <time>2013-07-14T07:08:46Z</time>
      </trkpt>
      <trkpt lat="47.61689" lon="-2.20123">
        <ele>50.62</ele>
        <time>2013-07-14T07:08:51Z</time>
      </trkpt>
      <trkpt lat="47.61691" lon="-2.20097">
        <ele>52.01</ele>
        <time>2013-07-14T07:08:55Z</time>
      </trkpt>
      <trkpt lat="47.61692" lon="-2.20068">
        <ele>55.36</ele>
        <time>2013-07-14T07:09:00Z</time>
      </trkpt>
      <trkpt lat="47.6169" lon="-2.20038">
        <ele>57.54</ele>
        <time>2013-07-14T07:09:06Z</time>
      </trkpt>
      <trkpt lat="47.61692" lon="-2.20001">
        <ele>59.64</ele>
        <time>2013-07-14T07:09:11Z</time>
      </trkpt>
      <trkpt lat="47.61695" lon="-2.19969">
        <ele>60.54</ele>
        <time>2013-07-14T07:09:13Z</time>
      </trkpt>
      <trkpt lat="47.61694" lon="-2.19935">
        <ele>62.44</ele>
        <time>2013-07-14T07:09:17Z</time>
      </trkpt>
      <trkpt lat="47.61698" lon="-2.19907">
        <ele>63.84</ele>
        <time>2013-07-14T07:09:21Z</time>
      </trkpt>
      <trkpt lat="47.61702" lon="-2.19881">
        <ele>63.18</ele>
        <time>2013-07-14T07:09:24Z</time>
      </trkpt>
      <trkpt lat="47.617" lon="-2.19854">
        <ele>62.7</ele>
        <time>2013-07-14T07:09:28Z</time>
      </trkpt>
      <trkpt lat="47.61705" lon="-2.19824">
        <ele>63.44</ele>
        <time>2013-07-14T07:09:31Z</time>
      </trkpt>
      <trkpt lat="47.61712" lon="-2.19798">
        <ele>64.62</ele>
        <time>2013-07-14T07:09:33Z</time>
      </trkpt>
      <trkpt lat="47.61724" lon="-2.19766">
        <ele>65.44</ele>
        <time>2013-07-14T07:09:36Z</time>
      </trkpt>
      <trkpt lat="47.61732" lon="-2.19739">
        <ele>66.5</ele>
        <time>2013-07-14T07:09:39Z</time>
      </trkpt>
      <trkpt lat="47.61746" lon="-2.19718">
        <ele>67.68</ele>
        <time>2013-07-14T07:09:42Z</time>
      </trkpt>
      <trkpt lat="47.61758" lon="-2.19694">
        <ele>67.95</ele>
        <time>2013-07-14T07:09:44Z</time>
      </trkpt>
      <trkpt lat="47.61771" lon="-2.19671">
        <ele>67.64</ele>
        <time>2013-07-14T07:09:47Z</time>
      </trkpt>
      <trkpt lat="47.61784" lon="-2.19642">
        <ele>68.46</ele>
        <time>2013-07-14T07:09:53Z</time>
      </trkpt>
      <trkpt lat="47.61793" lon="-2.19614">
        <ele>69.11</ele>
        <time>2013-07-14T07:09:56Z</time>
      </trkpt>
      <trkpt lat="47.618" lon="-2.19585">
        <ele>70.09</ele>
        <time>2013-07-14T07:10:00Z</time>
      </trkpt>
      <trkpt lat="47.61808" lon="-2.19552">
        <ele>71.58</ele>
        <time>2013-07-14T07:10:05Z</time>
      </trkpt>
      <trkpt lat="47.61818" lon="-2.19528">
        <ele>68.67</ele>
        <time>2013-07-14T07:10:11Z</time>
      </trkpt>
      <trkpt lat="47.61824" lon="-2.19503">
        <ele>62.69</ele>
        <time>2013-07-14T07:10:20Z</time>
      </trkpt>
      <trkpt lat="47.61825" lon="-2.19471">
        <ele>62.18</ele>
        <time>2013-07-14T07:10:24Z</time>
      </trkpt>
      <trkpt lat="47.61831" lon="-2.19439">
        <ele>60.93</ele>
        <time>2013-07-14T07:10:28Z</time>
      </trkpt>
      <trkpt lat="47.61841" lon="-2.19415">
        <ele>59.85</ele>
        <time>2013-07-14T07:10:31Z</time>
      </trkpt>
      <trkpt lat="47.61853" lon="-2.1939">
        <ele>57.95</ele>
        <time>2013-07-14T07:10:34Z</time>
      </trkpt>
      <trkpt lat="47.61863" lon="-2.19367">
        <ele>55.9</ele>
        <time>2013-07-14T07:10:37Z</time>
      </trkpt>
      <trkpt lat="47.61873" lon="-2.19342">
        <ele>54.15</ele>
        <time>2013-07-14T07:10:40Z</time>
      </trkpt>
      <trkpt lat="47.61892" lon="-2.19319">
        <ele>53.58</ele>
        <time>2013-07-14T07:10:44Z</time>
      </trkpt>
      <trkpt lat="47.61909" lon="-2.19301">
        <ele>52.91</ele>
        <time>2013-07-14T07:10:48Z</time>
      </trkpt>
      <trkpt lat="47.61932" lon="-2.19298">
        <ele>51.83</ele>
        <time>2013-07-14T07:10:52Z</time>
      </trkpt>
      <trkpt lat="47.61951" lon="-2.19305">
        <ele>50.05</ele>
        <time>2013-07-14T07:10:55Z</time>
      </trkpt>
      <trkpt lat="47.61961" lon="-2.19329">
        <ele>48.73</ele>
        <time>2013-07-14T07:10:58Z</time>
      </trkpt>
      <trkpt lat="47.61965" lon="-2.19356">
        <ele>48.19</ele>
        <time>2013-07-14T07:11:01Z</time>
      </trkpt>
      <trkpt lat="47.61968" lon="-2.19391">
        <ele>47.81</ele>
        <time>2013-07-14T07:11:05Z</time>
      </trkpt>
      <trkpt lat="47.61969" lon="-2.19419">
        <ele>47.26</ele>
        <time>2013-07-14T07:11:08Z</time>
      </trkpt>
      <trkpt lat="47.61969" lon="-2.19448">
        <ele>46.56</ele>
        <time>2013-07-14T07:11:11Z</time>
      </trkpt>
      <trkpt lat="47.61976" lon="-2.19475">
        <ele>45.6</ele>
        <time>2013-07-14T07:11:15Z</time>
      </trkpt>
      <trkpt lat="47.61992" lon="-2.19488">
        <ele>44.68</ele>
        <time>2013-07-14T07:11:21Z</time>
      </trkpt>
      <trkpt lat="47.62009" lon="-2.19504">
        <ele>44.65</ele>
        <time>2013-07-14T07:11:27Z</time>
      </trkpt>
      <trkpt lat="47.62026" lon="-2.19517">
        <ele>45.47</ele>
        <time>2013-07-14T07:11:34Z</time>
      </trkpt>
      <trkpt lat="47.62043" lon="-2.19532">
        <ele>46.54</ele>
        <time>2013-07-14T07:11:42Z</time>
      </trkpt>
      <trkpt lat="47.6206" lon="-2.19548">
        <ele>47.66</ele>
        <time>2013-07-14T07:11:48Z</time>
      </trkpt>
      <trkpt lat="47.62077" lon="-2.19559">
        <ele>50.05</ele>
        <time>2013-07-14T07:11:59Z</time>
      </trkpt>
      <trkpt lat="47.62094" lon="-2.1957">
        <ele>52.01</ele>
        <time>2013-07-14T07:12:07Z</time>
      </trkpt>
      <trkpt lat="47.6211" lon="-2.19584">
        <ele>54.02</ele>
        <time>2013-07-14T07:12:17Z</time>
      </trkpt>
      <trkpt lat="47.62126" lon="-2.19601">
        <ele>55.83</ele>
        <time>2013-07-14T07:12:29Z</time>
      </trkpt>
      <trkpt lat="47.6214" lon="-2.19622">
        <ele>57.82</ele>
        <time>2013-07-14T07:12:40Z</time>
      </trkpt>
      <trkpt lat="47.62148" lon="-2.19654">
        <ele>61.67</ele>
        <time>2013-07-14T07:12:55Z</time>
      </trkpt>
      <trkpt lat="47.62146" lon="-2.19682">
        <ele>64.95</ele>
        <time>2013-07-14T07:13:11Z</time>
      </trkpt>
      <trkpt lat="47.62165" lon="-2.19741">
        <ele>68.03</ele>
        <time>2013-07-14T07:13:40Z</time>
      </trkpt>
      <trkpt lat="47.62171" lon="-2.19768">
        <ele>71.81</ele>
        <time>2013-07-14T07:13:47Z</time>
      </trkpt>
      <trkpt lat="47.62175" lon="-2.19796">
        <ele>76.3</ele>
        <time>2013-07-14T07:13:56Z</time>
      </trkpt>
      <trkpt lat="47.62177" lon="-2.19823">
        <ele>81.31</ele>
        <time>2013-07-14T07:14:03Z</time>
      </trkpt>
      <trkpt lat="47.62178" lon="-2.1985">
        <ele>84.38</ele>
        <time>2013-07-14T07:14:11Z</time>
      </trkpt>
      <trkpt lat="47.62175" lon="-2.19878">
        <ele>84.97</ele>
        <time>2013-07-14T07:14:18Z</time>
      </trkpt>
      <trkpt lat="47.62168" lon="-2.19906">
        <ele>86.85</ele>
        <time>2013-07-14T07:14:28Z</time>
      </trkpt>
      <trkpt lat="47.62164" lon="-2.19938">
        <ele>86.38</ele>
        <time>2013-07-14T07:14:34Z</time>
      </trkpt>
      <trkpt lat="47.62158" lon="-2.19963">
        <ele>85.28</ele>
        <time>2013-07-14T07:14:38Z</time>
      </trkpt>
      <trkpt lat="47.62164" lon="-2.1999">
        <ele>85.03</ele>
        <time>2013-07-14T07:14:41Z</time>
      </trkpt>
      <trkpt lat="47.62161" lon="-2.20016">
        <ele>85.49</ele>
        <time>2013-07-14T07:14:45Z</time>
      </trkpt>
      <trkpt lat="47.62158" lon="-2.20043">
        <ele>87.16</ele>
        <time>2013-07-14T07:14:51Z</time>
      </trkpt>
      <trkpt lat="47.62156" lon="-2.20072">
        <ele>86.65</ele>
        <time>2013-07-14T07:14:56Z</time>
      </trkpt>
      <trkpt lat="47.62161" lon="-2.20101">
        <ele>84.94</ele>
        <time>2013-07-14T07:15:01Z</time>
      </trkpt>
      <trkpt lat="47.62168" lon="-2.20131">
        <ele>83.46</ele>
        <time>2013-07-14T07:15:07Z</time>
      </trkpt>
      <trkpt lat="47.62168" lon="-2.20158">
        <ele>82.81</ele>
        <time>2013-07-14T07:15:13Z</time>
      </trkpt>
      <trkpt lat="47.62165" lon="-2.20187">
        <ele>83.93</ele>
        <time>2013-07-14T07:15:19Z</time>
      </trkpt>
      <trkpt lat="47.62165" lon="-2.20217">
        <ele>84.59</ele>
        <time>2013-07-14T07:15:24Z</time>
      </trkpt>
      <trkpt lat="47.62155" lon="-2.20245">
        <ele>84.51</ele>
        <time>2013-07-14T07:15:28Z</time>
      </trkpt>
      <trkpt lat="47.62143" lon="-2.20267">
        <ele>83.67</ele>
        <time>2013-07-14T07:15:31Z</time>
      </trkpt>
      <trkpt lat="47.6213" lon="-2.20291">
        <ele>82.78</ele>
        <time>2013-07-14T07:15:34Z</time>
      </trkpt>
      <trkpt lat="47.62115" lon="-2.20316">
        <ele>81.89</ele>
        <time>2013-07-14T07:15:38Z</time>
      </trkpt>
      <trkpt lat="47.62108" lon="-2.20348">
        <ele>81.08</ele>
        <time>2013-07-14T07:15:42Z</time>
      </trkpt>
      <trkpt lat="47.621" lon="-2.2038">
        <ele>80.07</ele>
        <time>2013-07-14T07:15:45Z</time>
      </trkpt>
      <trkpt lat="47.621" lon="-2.20409">
        <ele>79</ele>
        <time>2013-07-14T07:15:47Z</time>
      </trkpt>
      <trkpt lat="47.62089" lon="-2.20443">
        <ele>76.67</ele>
        <time>2013-07-14T07:15:50Z</time>
      </trkpt>
      <trkpt lat="47.62073" lon="-2.20473">
        <ele>73.64</ele>
        <time>2013-07-14T07:15:53Z</time>
      </trkpt>
      <trkpt lat="47.62062" lon="-2.205">
        <ele>70.7</ele>
        <time>2013-07-14T07:15:56Z</time>
      </trkpt>
      <trkpt lat="47.62054" lon="-2.20534">
        <ele>68.94</ele>
        <time>2013-07-14T07:15:59Z</time>
      </trkpt>
      <trkpt lat="47.62046" lon="-2.20569">
        <ele>67.88</ele>
        <time>2013-07-14T07:16:02Z</time>
      </trkpt>
      <trkpt lat="47.62037" lon="-2.20603">
        <ele>67.18</ele>
        <time>2013-07-14T07:16:05Z</time>
      </trkpt>
      <trkpt lat="47.62031" lon="-2.20641">
        <ele>66.72</ele>
        <time>2013-07-14T07:16:08Z</time>
      </trkpt>
      <trkpt lat="47.62026" lon="-2.20669">
        <ele>65.68</ele>
        <time>2013-07-14T07:16:10Z</time>
      </trkpt>
      <trkpt lat="47.62027" lon="-2.20696">
        <ele>64.09</ele>
        <time>2013-07-14T07:16:12Z</time>
      </trkpt>
      <trkpt lat="47.62031" lon="-2.20733">
        <ele>59.46</ele>
        <time>2013-07-14T07:16:15Z</time>
      </trkpt>
      <trkpt lat="47.6204" lon="-2.20767">
        <ele>53.95</ele>
        <time>2013-07-14T07:16:18Z</time>
      </trkpt>
      <trkpt lat="47.62051" lon="-2.20792">
        <ele>49.3</ele>
        <time>2013-07-14T07:16:21Z</time>
      </trkpt>
      <trkpt lat="47.62064" lon="-2.2082">
        <ele>44.93</ele>
        <time>2013-07-14T07:16:25Z</time>
      </trkpt>
      <trkpt lat="47.62076" lon="-2.20844">
        <ele>42.41</ele>
        <time>2013-07-14T07:16:29Z</time>
      </trkpt>
      <trkpt lat="47.62089" lon="-2.20873">
        <ele>40.67</ele>
        <time>2013-07-14T07:16:33Z</time>
      </trkpt>
      <trkpt lat="47.62096" lon="-2.20902">
        <ele>39.64</ele>
        <time>2013-07-14T07:16:36Z</time>
      </trkpt>
      <trkpt lat="47.621" lon="-2.20932">
        <ele>38.59</ele>
        <time>2013-07-14T07:16:39Z</time>
      </trkpt>
      <trkpt lat="47.62103" lon="-2.20959">
        <ele>37.45</ele>
        <time>2013-07-14T07:16:43Z</time>
      </trkpt>
      <trkpt lat="47.6212" lon="-2.20981">
        <ele>37.24</ele>
        <time>2013-07-14T07:16:52Z</time>
      </trkpt>
      <trkpt lat="47.62136" lon="-2.21012">
        <ele>37.5</ele>
        <time>2013-07-14T07:16:56Z</time>
      </trkpt>
      <trkpt lat="47.62151" lon="-2.21034">
        <ele>37.51</ele>
        <time>2013-07-14T07:16:58Z</time>
      </trkpt>
      <trkpt lat="47.62166" lon="-2.21053">
        <ele>37.58</ele>
        <time>2013-07-14T07:17:01Z</time>
      </trkpt>
      <trkpt lat="47.62183" lon="-2.21075">
        <ele>37.85</ele>
        <time>2013-07-14T07:17:05Z</time>
      </trkpt>
      <trkpt lat="47.62192" lon="-2.21098">
        <ele>38.06</ele>
        <time>2013-07-14T07:17:08Z</time>
      </trkpt>
      <trkpt lat="47.622" lon="-2.21127">
        <ele>38.05</ele>
        <time>2013-07-14T07:17:10Z</time>
      </trkpt>
      <trkpt lat="47.62202" lon="-2.21162">
        <ele>38.29</ele>
        <time>2013-07-14T07:17:13Z</time>
      </trkpt>
      <trkpt lat="47.62205" lon="-2.21189">
        <ele>36.79</ele>
        <time>2013-07-14T07:17:18Z</time>
      </trkpt>
      <trkpt lat="47.62224" lon="-2.21195">
        <ele>34.93</ele>
        <time>2013-07-14T07:17:22Z</time>
      </trkpt>
      <trkpt lat="47.62245" lon="-2.21202">
        <ele>33.47</ele>
        <time>2013-07-14T07:17:26Z</time>
      </trkpt>
      <trkpt lat="47.62266" lon="-2.21208">
        <ele>32.32</ele>
        <time>2013-07-14T07:17:30Z</time>
      </trkpt>
      <trkpt lat="47.62289" lon="-2.21213">
        <ele>31.27</ele>
        <time>2013-07-14T07:17:34Z</time>
      </trkpt>
      <trkpt lat="47.62308" lon="-2.21216">
        <ele>30.75</ele>
        <time>2013-07-14T07:17:37Z</time>
      </trkpt>
      <trkpt lat="47.62327" lon="-2.21218">
        <ele>30.48</ele>
        <time>2013-07-14T07:17:40Z</time>
      </trkpt>
      <trkpt lat="47.62345" lon="-2.21222">
        <ele>30.34</ele>
        <time>2013-07-14T07:17:43Z</time>
      </trkpt>
      <trkpt lat="47.62363" lon="-2.21226">
        <ele>30.24</ele>
        <time>2013-07-14T07:17:46Z</time>
      </trkpt>
      <trkpt lat="47.62385" lon="-2.21222">
        <ele>30.11</ele>
        <time>2013-07-14T07:17:50Z</time>
      </trkpt>
      <trkpt lat="47.62403" lon="-2.21215">
        <ele>30.51</ele>
        <time>2013-07-14T07:17:54Z</time>
      </trkpt>
      <trkpt lat="47.62421" lon="-2.21195">
        <ele>31.06</ele>
        <time>2013-07-14T07:17:58Z</time>
      </trkpt>
      <trkpt lat="47.62438" lon="-2.2119">
        <ele>31.72</ele>
        <time>2013-07-14T07:18:02Z</time>
      </trkpt>
      <trkpt lat="47.6245" lon="-2.21224">
        <ele>34.51</ele>
        <time>2013-07-14T07:18:06Z</time>
      </trkpt>
      <trkpt lat="47.62461" lon="-2.21254">
        <ele>37.05</ele>
        <time>2013-07-14T07:18:09Z</time>
      </trkpt>
      <trkpt lat="47.62468" lon="-2.21288">
        <ele>39.64</ele>
        <time>2013-07-14T07:18:13Z</time>
      </trkpt>
      <trkpt lat="47.62455" lon="-2.21312">
        <ele>41.47</ele>
        <time>2013-07-14T07:18:17Z</time>
      </trkpt>
      <trkpt lat="47.62448" lon="-2.21339">
        <ele>45.2</ele>
        <time>2013-07-14T07:18:24Z</time>
      </trkpt>
      <trkpt lat="47.62459" lon="-2.21362">
        <ele>41.7</ele>
        <time>2013-07-14T07:18:44Z</time>
      </trkpt>
      <trkpt lat="47.62477" lon="-2.2136">
        <ele>44.59</ele>
        <time>2013-07-14T07:18:54Z</time>
      </trkpt>
      <trkpt lat="47.62501" lon="-2.21382">
        <ele>47.38</ele>
        <time>2013-07-14T07:19:21Z</time>
      </trkpt>
      <trkpt lat="47.62504" lon="-2.2141">
        <ele>52.66</ele>
        <time>2013-07-14T07:19:28Z</time>
      </trkpt>
      <trkpt lat="47.62506" lon="-2.2144">
        <ele>53.85</ele>
        <time>2013-07-14T07:19:34Z</time>
      </trkpt>
      <trkpt lat="47.62511" lon="-2.21471">
        <ele>54.1</ele>
        <time>2013-07-14T07:19:40Z</time>
      </trkpt>
      <trkpt lat="47.62516" lon="-2.21496">
        <ele>54.51</ele>
        <time>2013-07-14T07:19:47Z</time>
      </trkpt>
      <trkpt lat="47.62535" lon="-2.21503">
        <ele>56.76</ele>
        <time>2013-07-14T07:20:00Z</time>
      </trkpt>
      <trkpt lat="47.62545" lon="-2.21532">
        <ele>59.5</ele>
        <time>2013-07-14T07:20:20Z</time>
      </trkpt>
      <trkpt lat="47.62532" lon="-2.21557">
        <ele>64.4</ele>
        <time>2013-07-14T07:20:25Z</time>
      </trkpt>
      <trkpt lat="47.62521" lon="-2.21579">
        <ele>65.38</ele>
        <time>2013-07-14T07:20:30Z</time>
      </trkpt>
      <trkpt lat="47.62511" lon="-2.21602">
        <ele>65.59</ele>
        <time>2013-07-14T07:20:39Z</time>
      </trkpt>
      <trkpt lat="47.62503" lon="-2.21627">
        <ele>65.48</ele>
        <time>2013-07-14T07:20:44Z</time>
      </trkpt>
      <trkpt lat="47.62497" lon="-2.21658">
        <ele>64.7</ele>
        <time>2013-07-14T07:20:55Z</time>
      </trkpt>
      <trkpt lat="47.62491" lon="-2.21692">
        <ele>63.49</ele>
        <time>2013-07-14T07:21:12Z</time>
      </trkpt>
      <trkpt lat="47.62484" lon="-2.21718">
        <ele>62.28</ele>
        <time>2013-07-14T07:21:18Z</time>
      </trkpt>
      <trkpt lat="47.62469" lon="-2.21735">
        <ele>61.7</ele>
        <time>2013-07-14T07:21:22Z</time>
      </trkpt>
      <trkpt lat="47.6245" lon="-2.21754">
        <ele>61.18</ele>
        <time>2013-07-14T07:21:26Z</time>
      </trkpt>
      <trkpt lat="47.62434" lon="-2.21777">
        <ele>60.18</ele>
        <time>2013-07-14T07:21:29Z</time>
      </trkpt>
      <trkpt lat="47.62417" lon="-2.21797">
        <ele>58.76</ele>
        <time>2013-07-14T07:21:32Z</time>
      </trkpt>
      <trkpt lat="47.62424" lon="-2.21825">
        <ele>57.26</ele>
        <time>2013-07-14T07:21:52Z</time>
      </trkpt>
      <trkpt lat="47.62425" lon="-2.21853">
        <ele>58.45</ele>
        <time>2013-07-14T07:21:59Z</time>
      </trkpt>
      <trkpt lat="47.62422" lon="-2.21881">
        <ele>58.8</ele>
        <time>2013-07-14T07:22:04Z</time>
      </trkpt>
      <trkpt lat="47.6242" lon="-2.2191">
        <ele>58.37</ele>
        <time>2013-07-14T07:22:09Z</time>
      </trkpt>
      <trkpt lat="47.62446" lon="-2.21946">
        <ele>59.05</ele>
        <time>2013-07-14T07:22:43Z</time>
      </trkpt>
      <trkpt lat="47.62461" lon="-2.21962">
        <ele>62.38</ele>
        <time>2013-07-14T07:22:49Z</time>
      </trkpt>
      <trkpt lat="47.6248" lon="-2.22009">
        <ele>67.35</ele>
        <time>2013-07-14T07:23:18Z</time>
      </trkpt>
      <trkpt lat="47.62479" lon="-2.22038">
        <ele>75.08</ele>
        <time>2013-07-14T07:23:26Z</time>
      </trkpt>
      <trkpt lat="47.62463" lon="-2.22053">
        <ele>75.14</ele>
        <time>2013-07-14T07:23:30Z</time>
      </trkpt>
      <trkpt lat="47.62445" lon="-2.22068">
        <ele>73.63</ele>
        <time>2013-07-14T07:23:37Z</time>
      </trkpt>
      <trkpt lat="47.62429" lon="-2.22083">
        <ele>73.75</ele>
        <time>2013-07-14T07:23:44Z</time>
      </trkpt>
      <trkpt lat="47.62411" lon="-2.22088">
        <ele>73.81</ele>
        <time>2013-07-14T07:23:47Z</time>
      </trkpt>
      <trkpt lat="47.62394" lon="-2.22105">
        <ele>73.11</ele>
        <time>2013-07-14T07:23:54Z</time>
      </trkpt>
      <trkpt lat="47.62382" lon="-2.22127">
        <ele>72.52</ele>
        <time>2013-07-14T07:23:58Z</time>
      </trkpt>
      <trkpt lat="47.62369" lon="-2.22153">
        <ele>72.18</ele>
        <time>2013-07-14T07:24:02Z</time>
      </trkpt>
      <trkpt lat="47.62354" lon="-2.22169">
        <ele>73.14</ele>
        <time>2013-07-14T07:24:05Z</time>
      </trkpt>
      <trkpt lat="47.62336" lon="-2.22185">
        <ele>73.71</ele>
        <time>2013-07-14T07:24:08Z</time>
      </trkpt>
      <trkpt lat="47.62315" lon="-2.22203">
        <ele>72.77</ele>
        <time>2013-07-14T07:24:11Z</time>
      </trkpt>
      <trkpt lat="47.62292" lon="-2.2222">
        <ele>71.2</ele>
        <time>2013-07-14T07:24:14Z</time>
      </trkpt>
      <trkpt lat="47.62269" lon="-2.22231">
        <ele>69.5</ele>
        <time>2013-07-14T07:24:17Z</time>
      </trkpt>
      <trkpt lat="47.62248" lon="-2.22246">
        <ele>64.81</ele>
        <time>2013-07-14T07:24:21Z</time>
      </trkpt>
      <trkpt lat="47.6223" lon="-2.22254">
        <ele>61.57</ele>
        <time>2013-07-14T07:24:24Z</time>
      </trkpt>
      <trkpt lat="47.62209" lon="-2.22262">
        <ele>57.86</ele>
        <time>2013-07-14T07:24:27Z</time>
      </trkpt>
      <trkpt lat="47.6219" lon="-2.22269">
        <ele>54.29</ele>
        <time>2013-07-14T07:24:30Z</time>
      </trkpt>
      <trkpt lat="47.62176" lon="-2.22286">
        <ele>50.08</ele>
        <time>2013-07-14T07:24:34Z</time>
      </trkpt>
      <trkpt lat="47.62189" lon="-2.22313">
        <ele>44.38</ele>
        <time>2013-07-14T07:24:42Z</time>
      </trkpt>
      <trkpt lat="47.62202" lon="-2.22333">
        <ele>44.04</ele>
        <time>2013-07-14T07:24:47Z</time>
      </trkpt>
      <trkpt lat="47.62217" lon="-2.22356">
        <ele>44.43</ele>
        <time>2013-07-14T07:24:54Z</time>
      </trkpt>
      <trkpt lat="47.6223" lon="-2.22376">
        <ele>44.76</ele>
        <time>2013-07-14T07:25:00Z</time>
      </trkpt>
      <trkpt lat="47.62243" lon="-2.22395">
        <ele>45.73</ele>
        <time>2013-07-14T07:25:07Z</time>
      </trkpt>
      <trkpt lat="47.62257" lon="-2.22415">
        <ele>47.44</ele>
        <time>2013-07-14T07:25:15Z</time>
      </trkpt>
      <trkpt lat="47.62271" lon="-2.22436">
        <ele>49.59</ele>
        <time>2013-07-14T07:25:24Z</time>
      </trkpt>
      <trkpt lat="47.62285" lon="-2.22455">
        <ele>51.63</ele>
        <time>2013-07-14T07:25:33Z</time>
      </trkpt>
      <trkpt lat="47.62301" lon="-2.2247">
        <ele>53.34</ele>
        <time>2013-07-14T07:25:43Z</time>
      </trkpt>
      <trkpt lat="47.62318" lon="-2.22479">
        <ele>56.48</ele>
        <time>2013-07-14T07:25:56Z</time>
      </trkpt>
      <trkpt lat="47.62335" lon="-2.22486">
        <ele>59.79</ele>
        <time>2013-07-14T07:26:09Z</time>
      </trkpt>
      <trkpt lat="47.62351" lon="-2.22501">
        <ele>65.02</ele>
        <time>2013-07-14T07:26:18Z</time>
      </trkpt>
      <trkpt lat="47.62386" lon="-2.22505">
        <ele>68.93</ele>
        <time>2013-07-14T07:26:50Z</time>
      </trkpt>
      <trkpt lat="47.62401" lon="-2.22489">
        <ele>76.02</ele>
        <time>2013-07-14T07:27:02Z</time>
      </trkpt>
      <trkpt lat="47.62417" lon="-2.22475">
        <ele>72.01</ele>
        <time>2013-07-14T07:27:13Z</time>
      </trkpt>
      <trkpt lat="47.62446" lon="-2.22465">
        <ele>69.58</ele>
        <time>2013-07-14T07:28:45Z</time>
      </trkpt>
      <trkpt lat="47.62456" lon="-2.2244">
        <ele>68.71</ele>
        <time>2013-07-14T07:28:55Z</time>
      </trkpt>
      <trkpt lat="47.62465" lon="-2.22412">
        <ele>69.69</ele>
        <time>2013-07-14T07:29:03Z</time>
      </trkpt>
      <trkpt lat="47.62475" lon="-2.22387">
        <ele>71.17</ele>
        <time>2013-07-14T07:29:09Z</time>
      </trkpt>
      <trkpt lat="47.62488" lon="-2.22368">
        <ele>73.61</ele>
        <time>2013-07-14T07:29:18Z</time>
      </trkpt>
      <trkpt lat="47.62484" lon="-2.22341">
        <ele>76.61</ele>
        <time>2013-07-14T07:29:30Z</time>
      </trkpt>
      <trkpt lat="47.62478" lon="-2.22313">
        <ele>81.84</ele>
        <time>2013-07-14T07:29:40Z</time>
      </trkpt>
      <trkpt lat="47.62482" lon="-2.22282">
        <ele>83.14</ele>
        <time>2013-07-14T07:29:44Z</time>
      </trkpt>
      <trkpt lat="47.62482" lon="-2.22247">
        <ele>84.51</ele>
        <time>2013-07-14T07:29:47Z</time>
      </trkpt>
      <trkpt lat="47.62485" lon="-2.22216">
        <ele>87.57</ele>
        <time>2013-07-14T07:29:52Z</time>
      </trkpt>
      <trkpt lat="47.62497" lon="-2.22195">
        <ele>88.9</ele>
        <time>2013-07-14T07:29:56Z</time>
      </trkpt>
      <trkpt lat="47.6251" lon="-2.22175">
        <ele>87.87</ele>
        <time>2013-07-14T07:30:01Z</time>
      </trkpt>
      <trkpt lat="47.62529" lon="-2.22165">
        <ele>86.71</ele>
        <time>2013-07-14T07:30:07Z</time>
      </trkpt>
      <trkpt lat="47.62549" lon="-2.22164">
        <ele>83.43</ele>
        <time>2013-07-14T07:30:13Z</time>
      </trkpt>
      <trkpt lat="47.62563" lon="-2.22187">
        <ele>83.12</ele>
        <time>2013-07-14T07:30:17Z</time>
      </trkpt>
      <trkpt lat="47.62574" lon="-2.2221">
        <ele>82.89</ele>
        <time>2013-07-14T07:30:24Z</time>
      </trkpt>
      <trkpt lat="47.62585" lon="-2.22185">
        <ele>85.15</ele>
        <time>2013-07-14T07:30:31Z</time>
      </trkpt>
      <trkpt lat="47.62601" lon="-2.22169">
        <ele>85</ele>
        <time>2013-07-14T07:30:34Z</time>
      </trkpt>
      <trkpt lat="47.62618" lon="-2.2215">
        <ele>84.08</ele>
        <time>2013-07-14T07:30:38Z</time>
      </trkpt>
      <trkpt lat="47.62634" lon="-2.22137">
        <ele>82.92</ele>
        <time>2013-07-14T07:30:42Z</time>
      </trkpt>
      <trkpt lat="47.62655" lon="-2.22147">
        <ele>81.47</ele>
        <time>2013-07-14T07:30:47Z</time>
      </trkpt>
      <trkpt lat="47.62673" lon="-2.22161">
        <ele>80.65</ele>
        <time>2013-07-14T07:30:53Z</time>
      </trkpt>
      <trkpt lat="47.62691" lon="-2.22174">
        <ele>80.29</ele>
        <time>2013-07-14T07:30:59Z</time>
      </trkpt>
      <trkpt lat="47.6271" lon="-2.22185">
        <ele>80.49</ele>
        <time>2013-07-14T07:31:06Z</time>
      </trkpt>
      <trkpt lat="47.62729" lon="-2.22195">
        <ele>81.09</ele>
        <time>2013-07-14T07:31:14Z</time>
      </trkpt>
      <trkpt lat="47.62748" lon="-2.22203">
        <ele>81.95</ele>
        <time>2013-07-14T07:31:21Z</time>
      </trkpt>
      <trkpt lat="47.62767" lon="-2.22204">
        <ele>82.7</ele>
        <time>2013-07-14T07:31:27Z</time>
      </trkpt>
      <trkpt lat="47.62785" lon="-2.22207">
        <ele>82.6</ele>
        <time>2013-07-14T07:31:32Z</time>
      </trkpt>
      <trkpt lat="47.62805" lon="-2.22208">
        <ele>82.21</ele>
        <time>2013-07-14T07:31:37Z</time>
      </trkpt>
      <trkpt lat="47.62823" lon="-2.2221">
        <ele>81.58</ele>
        <time>2013-07-14T07:31:41Z</time>
      </trkpt>
      <trkpt lat="47.62844" lon="-2.22211">
        <ele>80.78</ele>
        <time>2013-07-14T07:31:45Z</time>
      </trkpt>
      <trkpt lat="47.62867" lon="-2.22214">
        <ele>79.85</ele>
        <time>2013-07-14T07:31:49Z</time>
      </trkpt>
      <trkpt lat="47.62885" lon="-2.22219">
        <ele>78.88</ele>
        <time>2013-07-14T07:31:52Z</time>
      </trkpt>
      <trkpt lat="47.62907" lon="-2.22223">
        <ele>77.9</ele>
        <time>2013-07-14T07:31:56Z</time>
      </trkpt>
      <trkpt lat="47.62929" lon="-2.22228">
        <ele>77.65</ele>
        <time>2013-07-14T07:32:00Z</time>
      </trkpt>
      <trkpt lat="47.6295" lon="-2.22233">
        <ele>77.83</ele>
        <time>2013-07-14T07:32:04Z</time>
      </trkpt>
      <trkpt lat="47.62971" lon="-2.22238">
        <ele>77.84</ele>
        <time>2013-07-14T07:32:08Z</time>
      </trkpt>
      <trkpt lat="47.6299" lon="-2.22249">
        <ele>77.95</ele>
        <time>2013-07-14T07:32:12Z</time>
      </trkpt>
      <trkpt lat="47.63007" lon="-2.22263">
        <ele>77.95</ele>
        <time>2013-07-14T07:32:17Z</time>
      </trkpt>
      <trkpt lat="47.63021" lon="-2.22289">
        <ele>77.57</ele>
        <time>2013-07-14T07:32:22Z</time>
      </trkpt>
      <trkpt lat="47.63027" lon="-2.2232">
        <ele>77.29</ele>
        <time>2013-07-14T07:32:26Z</time>
      </trkpt>
      <trkpt lat="47.63031" lon="-2.22351">
        <ele>77.73</ele>
        <time>2013-07-14T07:32:29Z</time>
      </trkpt>
      <trkpt lat="47.63032" lon="-2.22384">
        <ele>79.2</ele>
        <time>2013-07-14T07:32:33Z</time>
      </trkpt>
      <trkpt lat="47.63032" lon="-2.22412">
        <ele>80.09</ele>
        <time>2013-07-14T07:32:36Z</time>
      </trkpt>
      <trkpt lat="47.6303" lon="-2.22444">
        <ele>81.78</ele>
        <time>2013-07-14T07:32:40Z</time>
      </trkpt>
      <trkpt lat="47.63027" lon="-2.22476">
        <ele>83.07</ele>
        <time>2013-07-14T07:32:44Z</time>
      </trkpt>
      <trkpt lat="47.63027" lon="-2.22505">
        <ele>83.45</ele>
        <time>2013-07-14T07:32:48Z</time>
      </trkpt>
      <trkpt lat="47.63025" lon="-2.22532">
        <ele>83.97</ele>
        <time>2013-07-14T07:32:52Z</time>
      </trkpt>
      <trkpt lat="47.63021" lon="-2.22561">
        <ele>84.97</ele>
        <time>2013-07-14T07:32:57Z</time>
      </trkpt>
      <trkpt lat="47.63017" lon="-2.22589">
        <ele>85.72</ele>
        <time>2013-07-14T07:33:02Z</time>
      </trkpt>
      <trkpt lat="47.63013" lon="-2.22618">
        <ele>85.83</ele>
        <time>2013-07-14T07:33:07Z</time>
      </trkpt>
      <trkpt lat="47.63011" lon="-2.22645">
        <ele>85.55</ele>
        <time>2013-07-14T07:33:12Z</time>
      </trkpt>
      <trkpt lat="47.63006" lon="-2.22676">
        <ele>85.43</ele>
        <time>2013-07-14T07:33:17Z</time>
      </trkpt>
      <trkpt lat="47.63002" lon="-2.22704">
        <ele>86.23</ele>
        <time>2013-07-14T07:33:22Z</time>
      </trkpt>
      <trkpt lat="47.62986" lon="-2.22721">
        <ele>85.81</ele>
        <time>2013-07-14T07:33:27Z</time>
      </trkpt>
      <trkpt lat="47.62965" lon="-2.22723">
        <ele>84.67</ele>
        <time>2013-07-14T07:33:32Z</time>
      </trkpt>
      <trkpt lat="47.62945" lon="-2.22726">
        <ele>84.58</ele>
        <time>2013-07-14T07:33:37Z</time>
      </trkpt>
      <trkpt lat="47.62924" lon="-2.22728">
        <ele>84.81</ele>
        <time>2013-07-14T07:33:42Z</time>
      </trkpt>
      <trkpt lat="47.62904" lon="-2.22731">
        <ele>85.44</ele>
        <time>2013-07-14T07:33:47Z</time>
      </trkpt>
      <trkpt lat="47.62884" lon="-2.22735">
        <ele>86.22</ele>
        <time>2013-07-14T07:33:52Z</time>
      </trkpt>
      <trkpt lat="47.62866" lon="-2.22737">
        <ele>86.37</ele>
        <time>2013-07-14T07:33:56Z</time>
      </trkpt>
      <trkpt lat="47.62848" lon="-2.22743">
        <ele>86.46</ele>
        <time>2013-07-14T07:34:00Z</time>
      </trkpt>
      <trkpt lat="47.6283" lon="-2.22749">
        <ele>86.39</ele>
        <time>2013-07-14T07:34:04Z</time>
      </trkpt>
      <trkpt lat="47.62811" lon="-2.22755">
        <ele>86.27</ele>
        <time>2013-07-14T07:34:08Z</time>
      </trkpt>
      <trkpt lat="47.6279" lon="-2.22763">
        <ele>86.22</ele>
        <time>2013-07-14T07:34:13Z</time>
      </trkpt>
      <trkpt lat="47.62772" lon="-2.2277">
        <ele>86.05</ele>
        <time>2013-07-14T07:34:17Z</time>
      </trkpt>
      <trkpt lat="47.62754" lon="-2.22775">
        <ele>85.86</ele>
        <time>2013-07-14T07:34:21Z</time>
      </trkpt>
      <trkpt lat="47.62736" lon="-2.22783">
        <ele>85.81</ele>
        <time>2013-07-14T07:34:25Z</time>
      </trkpt>
      <trkpt lat="47.62719" lon="-2.22793">
        <ele>85.97</ele>
        <time>2013-07-14T07:34:29Z</time>
      </trkpt>
      <trkpt lat="47.62703" lon="-2.22808">
        <ele>86.41</ele>
        <time>2013-07-14T07:34:33Z</time>
      </trkpt>
      <trkpt lat="47.62687" lon="-2.22825">
        <ele>87.21</ele>
        <time>2013-07-14T07:34:37Z</time>
      </trkpt>
      <trkpt lat="47.62671" lon="-2.2284">
        <ele>88.64</ele>
        <time>2013-07-14T07:34:41Z</time>
      </trkpt>
      <trkpt lat="47.62655" lon="-2.22864">
        <ele>90.22</ele>
        <time>2013-07-14T07:34:46Z</time>
      </trkpt>
      <trkpt lat="47.62637" lon="-2.22879">
        <ele>91.66</ele>
        <time>2013-07-14T07:34:50Z</time>
      </trkpt>
      <trkpt lat="47.62618" lon="-2.22889">
        <ele>93.15</ele>
        <time>2013-07-14T07:34:54Z</time>
      </trkpt>
      <trkpt lat="47.62599" lon="-2.22899">
        <ele>94.62</ele>
        <time>2013-07-14T07:34:58Z</time>
      </trkpt>
      <trkpt lat="47.62579" lon="-2.22908">
        <ele>95.88</ele>
        <time>2013-07-14T07:35:02Z</time>
      </trkpt>
      <trkpt lat="47.62559" lon="-2.22917">
        <ele>97.61</ele>
        <time>2013-07-14T07:35:06Z</time>
      </trkpt>
      <trkpt lat="47.6254" lon="-2.22924">
        <ele>99.05</ele>
        <time>2013-07-14T07:35:10Z</time>
      </trkpt>
      <trkpt lat="47.6252" lon="-2.22933">
        <ele>100.44</ele>
        <time>2013-07-14T07:35:14Z</time>
      </trkpt>
      <trkpt lat="47.62498" lon="-2.22948">
        <ele>102.09</ele>
        <time>2013-07-14T07:35:18Z</time>
      </trkpt>
      <trkpt lat="47.62476" lon="-2.22966">
        <ele>102.82</ele>
        <time>2013-07-14T07:35:21Z</time>
      </trkpt>
      <trkpt lat="47.62461" lon="-2.22984">
        <ele>103.21</ele>
        <time>2013-07-14T07:35:23Z</time>
      </trkpt>
      <trkpt lat="47.62446" lon="-2.23006">
        <ele>103.47</ele>
        <time>2013-07-14T07:35:25Z</time>
      </trkpt>
      <trkpt lat="47.62433" lon="-2.2303">
        <ele>104.03</ele>
        <time>2013-07-14T07:35:27Z</time>
      </trkpt>
      <trkpt lat="47.6242" lon="-2.2305">
        <ele>104.6</ele>
        <time>2013-07-14T07:35:29Z</time>
      </trkpt>
      <trkpt lat="47.62403" lon="-2.23072">
        <ele>105.31</ele>
        <time>2013-07-14T07:35:31Z</time>
      </trkpt>
      <trkpt lat="47.62383" lon="-2.23095">
        <ele>105.39</ele>
        <time>2013-07-14T07:35:33Z</time>
      </trkpt>
      <trkpt lat="47.62366" lon="-2.23116">
        <ele>104.45</ele>
        <time>2013-07-14T07:35:35Z</time>
      </trkpt>
      <trkpt lat="47.6235" lon="-2.23137">
        <ele>103.06</ele>
        <time>2013-07-14T07:35:37Z</time>
      </trkpt>
      <trkpt lat="47.62335" lon="-2.23159">
        <ele>102.07</ele>
        <time>2013-07-14T07:35:39Z</time>
      </trkpt>
      <trkpt lat="47.62318" lon="-2.23184">
        <ele>100.43</ele>
        <time>2013-07-14T07:35:42Z</time>
      </trkpt>
      <trkpt lat="47.62307" lon="-2.23211">
        <ele>97.8</ele>
        <time>2013-07-14T07:35:45Z</time>
      </trkpt>
      <trkpt lat="47.62288" lon="-2.23224">
        <ele>94.21</ele>
        <time>2013-07-14T07:35:49Z</time>
      </trkpt>
      <trkpt lat="47.62303" lon="-2.23241">
        <ele>84.13</ele>
        <time>2013-07-14T07:36:05Z</time>
      </trkpt>
      <trkpt lat="47.62327" lon="-2.233">
        <ele>84.8</ele>
        <time>2013-07-14T07:37:12Z</time>
      </trkpt>
      <trkpt lat="47.6236" lon="-2.23346">
        <ele>87.38</ele>
        <time>2013-07-14T07:38:04Z</time>
      </trkpt>
      <trkpt lat="47.62371" lon="-2.23369">
        <ele>91.71</ele>
        <time>2013-07-14T07:38:14Z</time>
      </trkpt>
      <trkpt lat="47.62385" lon="-2.23427">
        <ele>95.93</ele>
        <time>2013-07-14T07:38:42Z</time>
      </trkpt>
      <trkpt lat="47.62393" lon="-2.23463">
        <ele>99.02</ele>
        <time>2013-07-14T07:38:46Z</time>
      </trkpt>
      <trkpt lat="47.62402" lon="-2.23491">
        <ele>99.75</ele>
        <time>2013-07-14T07:38:49Z</time>
      </trkpt>
      <trkpt lat="47.62388" lon="-2.23513">
        <ele>99.25</ele>
        <time>2013-07-14T07:38:59Z</time>
      </trkpt>
      <trkpt lat="47.62369" lon="-2.23505">
        <ele>97.75</ele>
        <time>2013-07-14T07:39:02Z</time>
      </trkpt>
      <trkpt lat="47.62355" lon="-2.23523">
        <ele>93.67</ele>
        <time>2013-07-14T07:39:30Z</time>
      </trkpt>
      <trkpt lat="47.62373" lon="-2.23525">
        <ele>90.63</ele>
        <time>2013-07-14T07:40:10Z</time>
      </trkpt>
      <trkpt lat="47.62382" lon="-2.23553">
        <ele>91.98</ele>
        <time>2013-07-14T07:40:19Z</time>
      </trkpt>
      <trkpt lat="47.62394" lon="-2.23574">
        <ele>92.12</ele>
        <time>2013-07-14T07:40:31Z</time>
      </trkpt>
      <trkpt lat="47.62418" lon="-2.23576">
        <ele>91.46</ele>
        <time>2013-07-14T07:40:50Z</time>
      </trkpt>
      <trkpt lat="47.62439" lon="-2.23578">
        <ele>92.01</ele>
        <time>2013-07-14T07:41:00Z</time>
      </trkpt>
      <trkpt lat="47.62458" lon="-2.23597">
        <ele>94.58</ele>
        <time>2013-07-14T07:41:58Z</time>
      </trkpt>
      <trkpt lat="47.62472" lon="-2.23572">
        <ele>99.14</ele>
        <time>2013-07-14T07:42:04Z</time>
      </trkpt>
      <trkpt lat="47.62491" lon="-2.23558">
        <ele>97.41</ele>
        <time>2013-07-14T07:42:14Z</time>
      </trkpt>
      <trkpt lat="47.62501" lon="-2.23586">
        <ele>95.17</ele>
        <time>2013-07-14T07:42:22Z</time>
      </trkpt>
      <trkpt lat="47.62497" lon="-2.23613">
        <ele>93.73</ele>
        <time>2013-07-14T07:42:28Z</time>
      </trkpt>
      <trkpt lat="47.62512" lon="-2.23631">
        <ele>98.5</ele>
        <time>2013-07-14T07:42:49Z</time>
      </trkpt>
      <trkpt lat="47.62525" lon="-2.23655">
        <ele>98.77</ele>
        <time>2013-07-14T07:43:04Z</time>
      </trkpt>
      <trkpt lat="47.62519" lon="-2.23684">
        <ele>99.89</ele>
        <time>2013-07-14T07:43:10Z</time>
      </trkpt>
      <trkpt lat="47.62505" lon="-2.23708">
        <ele>99.49</ele>
        <time>2013-07-14T07:43:13Z</time>
      </trkpt>
      <trkpt lat="47.62498" lon="-2.23739">
        <ele>97.55</ele>
        <time>2013-07-14T07:43:29Z</time>
      </trkpt>
      <trkpt lat="47.62481" lon="-2.23759">
        <ele>95.14</ele>
        <time>2013-07-14T07:43:33Z</time>
      </trkpt>
      <trkpt lat="47.62464" lon="-2.23771">
        <ele>93.8</ele>
        <time>2013-07-14T07:43:36Z</time>
      </trkpt>
      <trkpt lat="47.62445" lon="-2.23797">
        <ele>92.6</ele>
        <time>2013-07-14T07:44:15Z</time>
      </trkpt>
      <trkpt lat="47.6243" lon="-2.23821">
        <ele>93.55</ele>
        <time>2013-07-14T07:44:20Z</time>
      </trkpt>
      <trkpt lat="47.62418" lon="-2.23848">
        <ele>93.35</ele>
        <time>2013-07-14T07:44:23Z</time>
      </trkpt>
      <trkpt lat="47.62404" lon="-2.23865">
        <ele>93.18</ele>
        <time>2013-07-14T07:44:27Z</time>
      </trkpt>
      <trkpt lat="47.62391" lon="-2.23884">
        <ele>91.65</ele>
        <time>2013-07-14T07:44:31Z</time>
      </trkpt>
      <trkpt lat="47.62381" lon="-2.23907">
        <ele>89.73</ele>
        <time>2013-07-14T07:44:34Z</time>
      </trkpt>
      <trkpt lat="47.62372" lon="-2.23935">
        <ele>87.62</ele>
        <time>2013-07-14T07:44:38Z</time>
      </trkpt>
      <trkpt lat="47.62365" lon="-2.23963">
        <ele>86.19</ele>
        <time>2013-07-14T07:44:47Z</time>
      </trkpt>
      <trkpt lat="47.62367" lon="-2.23993">
        <ele>85.67</ele>
        <time>2013-07-14T07:44:52Z</time>
      </trkpt>
      <trkpt lat="47.62369" lon="-2.24021">
        <ele>82.48</ele>
        <time>2013-07-14T07:45:02Z</time>
      </trkpt>
      <trkpt lat="47.62391" lon="-2.24083">
        <ele>82.5</ele>
        <time>2013-07-14T07:45:25Z</time>
      </trkpt>
      <trkpt lat="47.62394" lon="-2.24122">
        <ele>84.42</ele>
        <time>2013-07-14T07:45:37Z</time>
      </trkpt>
      <trkpt lat="47.62385" lon="-2.24148">
        <ele>82.93</ele>
        <time>2013-07-14T07:45:41Z</time>
      </trkpt>
      <trkpt lat="47.62371" lon="-2.24164">
        <ele>82.75</ele>
        <time>2013-07-14T07:45:44Z</time>
      </trkpt>
      <trkpt lat="47.62357" lon="-2.24185">
        <ele>82.21</ele>
        <time>2013-07-14T07:45:55Z</time>
      </trkpt>
      <trkpt lat="47.6235" lon="-2.24211">
        <ele>82.15</ele>
        <time>2013-07-14T07:46:04Z</time>
      </trkpt>
      <trkpt lat="47.62344" lon="-2.24239">
        <ele>80.24</ele>
        <time>2013-07-14T07:46:16Z</time>
      </trkpt>
      <trkpt lat="47.62331" lon="-2.2426">
        <ele>79.66</ele>
        <time>2013-07-14T07:46:20Z</time>
      </trkpt>
      <trkpt lat="47.62312" lon="-2.24269">
        <ele>78.94</ele>
        <time>2013-07-14T07:46:24Z</time>
      </trkpt>
      <trkpt lat="47.62294" lon="-2.2428">
        <ele>77.42</ele>
        <time>2013-07-14T07:46:30Z</time>
      </trkpt>
      <trkpt lat="47.62285" lon="-2.24305">
        <ele>72.78</ele>
        <time>2013-07-14T07:46:38Z</time>
      </trkpt>
      <trkpt lat="47.62303" lon="-2.24318">
        <ele>67.66</ele>
        <time>2013-07-14T07:46:49Z</time>
      </trkpt>
      <trkpt lat="47.62323" lon="-2.24336">
        <ele>66.12</ele>
        <time>2013-07-14T07:46:58Z</time>
      </trkpt>
      <trkpt lat="47.62344" lon="-2.24359">
        <ele>65.02</ele>
        <time>2013-07-14T07:47:12Z</time>
      </trkpt>
      <trkpt lat="47.62363" lon="-2.24376">
        <ele>66.45</ele>
        <time>2013-07-14T07:47:29Z</time>
      </trkpt>
      <trkpt lat="47.62395" lon="-2.24407">
        <ele>70.75</ele>
        <time>2013-07-14T07:48:05Z</time>
      </trkpt>
      <trkpt lat="47.62413" lon="-2.24418">
        <ele>74.65</ele>
        <time>2013-07-14T07:48:31Z</time>
      </trkpt>
      <trkpt lat="47.62439" lon="-2.24456">
        <ele>79.63</ele>
        <time>2013-07-14T07:49:05Z</time>
      </trkpt>
      <trkpt lat="47.62451" lon="-2.24397">
        <ele>83.1</ele>
        <time>2013-07-14T07:49:30Z</time>
      </trkpt>
      <trkpt lat="47.62455" lon="-2.2437">
        <ele>84.3</ele>
        <time>2013-07-14T07:49:36Z</time>
      </trkpt>
      <trkpt lat="47.62458" lon="-2.24343">
        <ele>85.69</ele>
        <time>2013-07-14T07:49:46Z</time>
      </trkpt>
      <trkpt lat="47.62463" lon="-2.24315">
        <ele>91.38</ele>
        <time>2013-07-14T07:49:56Z</time>
      </trkpt>
      <trkpt lat="47.62468" lon="-2.2429">
        <ele>92.52</ele>
        <time>2013-07-14T07:50:02Z</time>
      </trkpt>
      <trkpt lat="47.62471" lon="-2.24261">
        <ele>92.96</ele>
        <time>2013-07-14T07:50:08Z</time>
      </trkpt>
      <trkpt lat="47.62471" lon="-2.24234">
        <ele>94.26</ele>
        <time>2013-07-14T07:50:13Z</time>
      </trkpt>
      <trkpt lat="47.62472" lon="-2.24205">
        <ele>95.2</ele>
        <time>2013-07-14T07:50:20Z</time>
      </trkpt>
      <trkpt lat="47.62477" lon="-2.24176">
        <ele>94.86</ele>
        <time>2013-07-14T07:50:27Z</time>
      </trkpt>
      <trkpt lat="47.62482" lon="-2.24148">
        <ele>94.52</ele>
        <time>2013-07-14T07:50:31Z</time>
      </trkpt>
      <trkpt lat="47.62483" lon="-2.24118">
        <ele>94.72</ele>
        <time>2013-07-14T07:50:35Z</time>
      </trkpt>
      <trkpt lat="47.62498" lon="-2.24097">
        <ele>93.12</ele>
        <time>2013-07-14T07:50:40Z</time>
      </trkpt>
      <trkpt lat="47.62514" lon="-2.24085">
        <ele>91.44</ele>
        <time>2013-07-14T07:50:47Z</time>
      </trkpt>
      <trkpt lat="47.62537" lon="-2.2409">
        <ele>92.82</ele>
        <time>2013-07-14T07:51:02Z</time>
      </trkpt>
      <trkpt lat="47.6253" lon="-2.2406">
        <ele>98.55</ele>
        <time>2013-07-14T07:51:21Z</time>
      </trkpt>
      <trkpt lat="47.6253" lon="-2.24033">
        <ele>99.09</ele>
        <time>2013-07-14T07:51:25Z</time>
      </trkpt>
      <trkpt lat="47.62536" lon="-2.24004">
        <ele>101.97</ele>
        <time>2013-07-14T07:51:30Z</time>
      </trkpt>
      <trkpt lat="47.62542" lon="-2.23977">
        <ele>105.15</ele>
        <time>2013-07-14T07:51:36Z</time>
      </trkpt>
      <trkpt lat="47.62539" lon="-2.23951">
        <ele>106.17</ele>
        <time>2013-07-14T07:51:44Z</time>
      </trkpt>
      <trkpt lat="47.62534" lon="-2.2392">
        <ele>106.41</ele>
        <time>2013-07-14T07:51:50Z</time>
      </trkpt>
      <trkpt lat="47.6253" lon="-2.23888">
        <ele>107</ele>
        <time>2013-07-14T07:51:55Z</time>
      </trkpt>
      <trkpt lat="47.62533" lon="-2.2386">
        <ele>107.42</ele>
        <time>2013-07-14T07:51:59Z</time>
      </trkpt>
      <trkpt lat="47.62541" lon="-2.23835">
        <ele>108.33</ele>
        <time>2013-07-14T07:52:12Z</time>
      </trkpt>
      <trkpt lat="47.62543" lon="-2.23806">
        <ele>108.98</ele>
        <time>2013-07-14T07:52:17Z</time>
      </trkpt>
      <trkpt lat="47.62552" lon="-2.23777">
        <ele>110.01</ele>
        <time>2013-07-14T07:52:25Z</time>
      </trkpt>
      <trkpt lat="47.62565" lon="-2.23754">
        <ele>111.33</ele>
        <time>2013-07-14T07:52:29Z</time>
      </trkpt>
      <trkpt lat="47.62577" lon="-2.23734">
        <ele>112.41</ele>
        <time>2013-07-14T07:52:33Z</time>
      </trkpt>
      <trkpt lat="47.62592" lon="-2.23712">
        <ele>112.79</ele>
        <time>2013-07-14T07:52:38Z</time>
      </trkpt>
      <trkpt lat="47.62606" lon="-2.23694">
        <ele>112.56</ele>
        <time>2013-07-14T07:52:44Z</time>
      </trkpt>
      <trkpt lat="47.62622" lon="-2.23676">
        <ele>110.37</ele>
        <time>2013-07-14T07:52:51Z</time>
      </trkpt>
      <trkpt lat="47.62634" lon="-2.23647">
        <ele>107.8</ele>
        <time>2013-07-14T07:52:55Z</time>
      </trkpt>
      <trkpt lat="47.62648" lon="-2.23621">
        <ele>104.95</ele>
        <time>2013-07-14T07:52:58Z</time>
      </trkpt>
      <trkpt lat="47.62659" lon="-2.236">
        <ele>99.87</ele>
        <time>2013-07-14T07:53:05Z</time>
      </trkpt>
      <trkpt lat="47.6268" lon="-2.23589">
        <ele>97.1</ele>
        <time>2013-07-14T07:53:09Z</time>
      </trkpt>
      <trkpt lat="47.627" lon="-2.23585">
        <ele>93</ele>
        <time>2013-07-14T07:53:14Z</time>
      </trkpt>
      <trkpt lat="47.6272" lon="-2.23595">
        <ele>90.63</ele>
        <time>2013-07-14T07:53:19Z</time>
      </trkpt>
      <trkpt lat="47.62733" lon="-2.23621">
        <ele>90.17</ele>
        <time>2013-07-14T07:53:24Z</time>
      </trkpt>
      <trkpt lat="47.62735" lon="-2.2365">
        <ele>90.04</ele>
        <time>2013-07-14T07:53:28Z</time>
      </trkpt>
      <trkpt lat="47.62737" lon="-2.23679">
        <ele>89.37</ele>
        <time>2013-07-14T07:53:32Z</time>
      </trkpt>
      <trkpt lat="47.62736" lon="-2.23712">
        <ele>88.95</ele>
        <time>2013-07-14T07:53:36Z</time>
      </trkpt>
      <trkpt lat="47.62737" lon="-2.2374">
        <ele>88.94</ele>
        <time>2013-07-14T07:53:40Z</time>
      </trkpt>
      <trkpt lat="47.62737" lon="-2.23767">
        <ele>89.07</ele>
        <time>2013-07-14T07:53:44Z</time>
      </trkpt>
      <trkpt lat="47.62737" lon="-2.23798">
        <ele>89.18</ele>
        <time>2013-07-14T07:53:48Z</time>
      </trkpt>
      <trkpt lat="47.62755" lon="-2.23795">
        <ele>89.61</ele>
        <time>2013-07-14T07:54:02Z</time>
      </trkpt>
      <trkpt lat="47.62773" lon="-2.23804">
        <ele>90.12</ele>
        <time>2013-07-14T07:54:07Z</time>
      </trkpt>
      <trkpt lat="47.62791" lon="-2.2382">
        <ele>90.25</ele>
        <time>2013-07-14T07:54:13Z</time>
      </trkpt>
      <trkpt lat="47.62808" lon="-2.23837">
        <ele>91.37</ele>
        <time>2013-07-14T07:54:19Z</time>
      </trkpt>
      <trkpt lat="47.62825" lon="-2.2385">
        <ele>93.82</ele>
        <time>2013-07-14T07:54:26Z</time>
      </trkpt>
      <trkpt lat="47.62844" lon="-2.23863">
        <ele>94.22</ele>
        <time>2013-07-14T07:54:31Z</time>
      </trkpt>
      <trkpt lat="47.62865" lon="-2.23858">
        <ele>93.13</ele>
        <time>2013-07-14T07:54:41Z</time>
      </trkpt>
      <trkpt lat="47.62883" lon="-2.23859">
        <ele>92.53</ele>
        <time>2013-07-14T07:54:45Z</time>
      </trkpt>
      <trkpt lat="47.62892" lon="-2.23884">
        <ele>86.23</ele>
        <time>2013-07-14T07:55:41Z</time>
      </trkpt>
      <trkpt lat="47.629" lon="-2.23908">
        <ele>84.84</ele>
        <time>2013-07-14T07:55:48Z</time>
      </trkpt>
      <trkpt lat="47.62914" lon="-2.23935">
        <ele>86.62</ele>
        <time>2013-07-14T07:55:54Z</time>
      </trkpt>
      <trkpt lat="47.62912" lon="-2.23965">
        <ele>86.57</ele>
        <time>2013-07-14T07:55:59Z</time>
      </trkpt>
      <trkpt lat="47.62899" lon="-2.23984">
        <ele>86.89</ele>
        <time>2013-07-14T07:56:06Z</time>
      </trkpt>
      <trkpt lat="47.62883" lon="-2.24005">
        <ele>87</ele>
        <time>2013-07-14T07:56:31Z</time>
      </trkpt>
      <trkpt lat="47.629" lon="-2.24023">
        <ele>84.94</ele>
        <time>2013-07-14T07:56:47Z</time>
      </trkpt>
      <trkpt lat="47.62915" lon="-2.24042">
        <ele>87.71</ele>
        <time>2013-07-14T07:56:54Z</time>
      </trkpt>
      <trkpt lat="47.62913" lon="-2.24069">
        <ele>88.29</ele>
        <time>2013-07-14T07:57:05Z</time>
      </trkpt>
      <trkpt lat="47.62932" lon="-2.24076">
        <ele>89.73</ele>
        <time>2013-07-14T07:57:13Z</time>
      </trkpt>
      <trkpt lat="47.62952" lon="-2.24086">
        <ele>89.28</ele>
        <time>2013-07-14T07:57:19Z</time>
      </trkpt>
      <trkpt lat="47.62971" lon="-2.24087">
        <ele>89.42</ele>
        <time>2013-07-14T07:57:26Z</time>
      </trkpt>
      <trkpt lat="47.62993" lon="-2.24099">
        <ele>88.78</ele>
        <time>2013-07-14T07:57:31Z</time>
      </trkpt>
      <trkpt lat="47.63005" lon="-2.24121">
        <ele>88.76</ele>
        <time>2013-07-14T07:57:33Z</time>
      </trkpt>
      <trkpt lat="47.63021" lon="-2.24146">
        <ele>88.73</ele>
        <time>2013-07-14T07:57:36Z</time>
      </trkpt>
      <trkpt lat="47.63038" lon="-2.24157">
        <ele>91.14</ele>
        <time>2013-07-14T07:57:42Z</time>
      </trkpt>
      <trkpt lat="47.63054" lon="-2.24174">
        <ele>93.95</ele>
        <time>2013-07-14T07:57:50Z</time>
      </trkpt>
      <trkpt lat="47.6307" lon="-2.24191">
        <ele>93.97</ele>
        <time>2013-07-14T07:57:55Z</time>
      </trkpt>
      <trkpt lat="47.63089" lon="-2.2421">
        <ele>93.8</ele>
        <time>2013-07-14T07:57:59Z</time>
      </trkpt>
      <trkpt lat="47.63103" lon="-2.24231">
        <ele>93.14</ele>
        <time>2013-07-14T07:58:03Z</time>
      </trkpt>
      <trkpt lat="47.63111" lon="-2.24265">
        <ele>91.82</ele>
        <time>2013-07-14T07:58:06Z</time>
      </trkpt>
      <trkpt lat="47.63112" lon="-2.24294">
        <ele>89.53</ele>
        <time>2013-07-14T07:58:11Z</time>
      </trkpt>
      <trkpt lat="47.63109" lon="-2.24324">
        <ele>86.85</ele>
        <time>2013-07-14T07:58:18Z</time>
      </trkpt>
      <trkpt lat="47.63104" lon="-2.24352">
        <ele>84.91</ele>
        <time>2013-07-14T07:58:24Z</time>
      </trkpt>
      <trkpt lat="47.63093" lon="-2.24373">
        <ele>83.97</ele>
        <time>2013-07-14T07:58:30Z</time>
      </trkpt>
      <trkpt lat="47.63087" lon="-2.24403">
        <ele>82.55</ele>
        <time>2013-07-14T07:58:38Z</time>
      </trkpt>
      <trkpt lat="47.63086" lon="-2.24435">
        <ele>84.86</ele>
        <time>2013-07-14T07:58:43Z</time>
      </trkpt>
      <trkpt lat="47.63087" lon="-2.24468">
        <ele>85.43</ele>
        <time>2013-07-14T07:58:48Z</time>
      </trkpt>
      <trkpt lat="47.6308" lon="-2.24496">
        <ele>82.63</ele>
        <time>2013-07-14T07:58:52Z</time>
      </trkpt>
      <trkpt lat="47.63078" lon="-2.24526">
        <ele>80.02</ele>
        <time>2013-07-14T07:59:00Z</time>
      </trkpt>
      <trkpt lat="47.63074" lon="-2.24558">
        <ele>78.87</ele>
        <time>2013-07-14T07:59:06Z</time>
      </trkpt>
      <trkpt lat="47.63067" lon="-2.24588">
        <ele>77.87</ele>
        <time>2013-07-14T07:59:10Z</time>
      </trkpt>
      <trkpt lat="47.63056" lon="-2.24609">
        <ele>77.44</ele>
        <time>2013-07-14T07:59:14Z</time>
      </trkpt>
      <trkpt lat="47.63042" lon="-2.24628">
        <ele>77.94</ele>
        <time>2013-07-14T07:59:19Z</time>
      </trkpt>
      <trkpt lat="47.63028" lon="-2.2465">
        <ele>79.25</ele>
        <time>2013-07-14T07:59:25Z</time>
      </trkpt>
      <trkpt lat="47.63022" lon="-2.24677">
        <ele>80.74</ele>
        <time>2013-07-14T07:59:34Z</time>
      </trkpt>
      <trkpt lat="47.63025" lon="-2.24706">
        <ele>82.46</ele>
        <time>2013-07-14T07:59:41Z</time>
      </trkpt>
      <trkpt lat="47.63021" lon="-2.24732">
        <ele>84.46</ele>
        <time>2013-07-14T07:59:50Z</time>
      </trkpt>
      <trkpt lat="47.63016" lon="-2.24761">
        <ele>85.01</ele>
        <time>2013-07-14T07:59:58Z</time>
      </trkpt>
      <trkpt lat="47.63008" lon="-2.24786">
        <ele>84.58</ele>
        <time>2013-07-14T08:00:04Z</time>
      </trkpt>
      <trkpt lat="47.62991" lon="-2.24802">
        <ele>85.17</ele>
        <time>2013-07-14T08:00:11Z</time>
      </trkpt>
      <trkpt lat="47.62971" lon="-2.24808">
        <ele>85.85</ele>
        <time>2013-07-14T08:00:18Z</time>
      </trkpt>
      <trkpt lat="47.62951" lon="-2.24808">
        <ele>87.06</ele>
        <time>2013-07-14T08:00:23Z</time>
      </trkpt>
      <trkpt lat="47.62932" lon="-2.24803">
        <ele>87.86</ele>
        <time>2013-07-14T08:00:27Z</time>
      </trkpt>
      <trkpt lat="47.62913" lon="-2.24806">
        <ele>88.15</ele>
        <time>2013-07-14T08:00:32Z</time>
      </trkpt>
      <trkpt lat="47.62895" lon="-2.248">
        <ele>88.27</ele>
        <time>2013-07-14T08:00:36Z</time>
      </trkpt>
      <trkpt lat="47.62874" lon="-2.24796">
        <ele>88.45</ele>
        <time>2013-07-14T08:00:42Z</time>
      </trkpt>
      <trkpt lat="47.62854" lon="-2.24797">
        <ele>87.92</ele>
        <time>2013-07-14T08:00:48Z</time>
      </trkpt>
      <trkpt lat="47.62832" lon="-2.24798">
        <ele>87.24</ele>
        <time>2013-07-14T08:00:54Z</time>
      </trkpt>
      <trkpt lat="47.62814" lon="-2.24802">
        <ele>87.71</ele>
        <time>2013-07-14T08:01:02Z</time>
      </trkpt>
      <trkpt lat="47.6282" lon="-2.2483">
        <ele>89.54</ele>
        <time>2013-07-14T08:01:08Z</time>
      </trkpt>
      <trkpt lat="47.6283" lon="-2.24854">
        <ele>92.1</ele>
        <time>2013-07-14T08:01:13Z</time>
      </trkpt>
      <trkpt lat="47.62841" lon="-2.24883">
        <ele>93.02</ele>
        <time>2013-07-14T08:01:17Z</time>
      </trkpt>
      <trkpt lat="47.62855" lon="-2.24902">
        <ele>93.28</ele>
        <time>2013-07-14T08:01:22Z</time>
      </trkpt>
      <trkpt lat="47.6287" lon="-2.24925">
        <ele>92.85</ele>
        <time>2013-07-14T08:01:29Z</time>
      </trkpt>
      <trkpt lat="47.62885" lon="-2.24954">
        <ele>93.34</ele>
        <time>2013-07-14T08:01:34Z</time>
      </trkpt>
      <trkpt lat="47.62896" lon="-2.24984">
        <ele>94.78</ele>
        <time>2013-07-14T08:01:38Z</time>
      </trkpt>
      <trkpt lat="47.62904" lon="-2.25012">
        <ele>96.29</ele>
        <time>2013-07-14T08:01:43Z</time>
      </trkpt>
      <trkpt lat="47.62914" lon="-2.25036">
        <ele>97.61</ele>
        <time>2013-07-14T08:01:48Z</time>
      </trkpt>
      <trkpt lat="47.62922" lon="-2.25062">
        <ele>98.25</ele>
        <time>2013-07-14T08:01:52Z</time>
      </trkpt>
      <trkpt lat="47.6293" lon="-2.25088">
        <ele>98.65</ele>
        <time>2013-07-14T08:01:55Z</time>
      </trkpt>
      <trkpt lat="47.6294" lon="-2.25115">
        <ele>98.82</ele>
        <time>2013-07-14T08:01:58Z</time>
      </trkpt>
      <trkpt lat="47.62949" lon="-2.25141">
        <ele>98.31</ele>
        <time>2013-07-14T08:02:01Z</time>
      </trkpt>
      <trkpt lat="47.62957" lon="-2.2517">
        <ele>96.8</ele>
        <time>2013-07-14T08:02:04Z</time>
      </trkpt>
      <trkpt lat="47.6296" lon="-2.25199">
        <ele>94.44</ele>
        <time>2013-07-14T08:02:07Z</time>
      </trkpt>
      <trkpt lat="47.62977" lon="-2.25226">
        <ele>93.07</ele>
        <time>2013-07-14T08:02:11Z</time>
      </trkpt>
      <trkpt lat="47.62987" lon="-2.25251">
        <ele>93.72</ele>
        <time>2013-07-14T08:02:14Z</time>
      </trkpt>
      <trkpt lat="47.62995" lon="-2.25279">
        <ele>95.04</ele>
        <time>2013-07-14T08:02:17Z</time>
      </trkpt>
      <trkpt lat="47.63001" lon="-2.25314">
        <ele>96.54</ele>
        <time>2013-07-14T08:02:20Z</time>
      </trkpt>
      <trkpt lat="47.63006" lon="-2.2535">
        <ele>97.07</ele>
        <time>2013-07-14T08:02:23Z</time>
      </trkpt>
      <trkpt lat="47.63007" lon="-2.25379">
        <ele>96.68</ele>
        <time>2013-07-14T08:02:25Z</time>
      </trkpt>
      <trkpt lat="47.63006" lon="-2.25408">
        <ele>94.93</ele>
        <time>2013-07-14T08:02:27Z</time>
      </trkpt>
      <trkpt lat="47.62999" lon="-2.25441">
        <ele>91.52</ele>
        <time>2013-07-14T08:02:30Z</time>
      </trkpt>
      <trkpt lat="47.62983" lon="-2.25462">
        <ele>87.43</ele>
        <time>2013-07-14T08:02:33Z</time>
      </trkpt>
      <trkpt lat="47.6298" lon="-2.25489">
        <ele>79.16</ele>
        <time>2013-07-14T08:02:44Z</time>
      </trkpt>
      <trkpt lat="47.62991" lon="-2.25512">
        <ele>78.11</ele>
        <time>2013-07-14T08:02:49Z</time>
      </trkpt>
      <trkpt lat="47.62987" lon="-2.25538">
        <ele>76.38</ele>
        <time>2013-07-14T08:02:53Z</time>
      </trkpt>
      <trkpt lat="47.62974" lon="-2.25564">
        <ele>73.87</ele>
        <time>2013-07-14T08:02:57Z</time>
      </trkpt>
      <trkpt lat="47.62956" lon="-2.25584">
        <ele>73.12</ele>
        <time>2013-07-14T08:03:01Z</time>
      </trkpt>
      <trkpt lat="47.62941" lon="-2.256">
        <ele>72.04</ele>
        <time>2013-07-14T08:03:05Z</time>
      </trkpt>
      <trkpt lat="47.62923" lon="-2.25611">
        <ele>70.78</ele>
        <time>2013-07-14T08:03:10Z</time>
      </trkpt>
      <trkpt lat="47.62912" lon="-2.25634">
        <ele>68.31</ele>
        <time>2013-07-14T08:03:19Z</time>
      </trkpt>
      <trkpt lat="47.62908" lon="-2.25666">
        <ele>67.66</ele>
        <time>2013-07-14T08:03:25Z</time>
      </trkpt>
      <trkpt lat="47.62911" lon="-2.257">
        <ele>67.88</ele>
        <time>2013-07-14T08:03:30Z</time>
      </trkpt>
      <trkpt lat="47.62916" lon="-2.25728">
        <ele>68.54</ele>
        <time>2013-07-14T08:03:35Z</time>
      </trkpt>
      <trkpt lat="47.62928" lon="-2.25753">
        <ele>70.04</ele>
        <time>2013-07-14T08:03:46Z</time>
      </trkpt>
      <trkpt lat="47.62945" lon="-2.25763">
        <ele>70.3</ele>
        <time>2013-07-14T08:03:50Z</time>
      </trkpt>
      <trkpt lat="47.62961" lon="-2.25782">
        <ele>69.8</ele>
        <time>2013-07-14T08:03:54Z</time>
      </trkpt>
      <trkpt lat="47.62979" lon="-2.25798">
        <ele>68.11</ele>
        <time>2013-07-14T08:04:00Z</time>
      </trkpt>
      <trkpt lat="47.62989" lon="-2.25823">
        <ele>66.67</ele>
        <time>2013-07-14T08:04:04Z</time>
      </trkpt>
      <trkpt lat="47.62998" lon="-2.25854">
        <ele>64.11</ele>
        <time>2013-07-14T08:04:09Z</time>
      </trkpt>
      <trkpt lat="47.62997" lon="-2.25882">
        <ele>61.48</ele>
        <time>2013-07-14T08:04:13Z</time>
      </trkpt>
      <trkpt lat="47.62994" lon="-2.25912">
        <ele>59.32</ele>
        <time>2013-07-14T08:04:17Z</time>
      </trkpt>
      <trkpt lat="47.62976" lon="-2.2593">
        <ele>56.9</ele>
        <time>2013-07-14T08:05:02Z</time>
      </trkpt>
      <trkpt lat="47.62963" lon="-2.25947">
        <ele>63.62</ele>
        <time>2013-07-14T08:05:40Z</time>
      </trkpt>
      <trkpt lat="47.6295" lon="-2.25967">
        <ele>64.3</ele>
        <time>2013-07-14T08:05:46Z</time>
      </trkpt>
      <trkpt lat="47.62938" lon="-2.25992">
        <ele>64.92</ele>
        <time>2013-07-14T08:05:51Z</time>
      </trkpt>
      <trkpt lat="47.6293" lon="-2.26016">
        <ele>65.82</ele>
        <time>2013-07-14T08:05:55Z</time>
      </trkpt>
      <trkpt lat="47.62923" lon="-2.26047">
        <ele>66.34</ele>
        <time>2013-07-14T08:05:59Z</time>
      </trkpt>
      <trkpt lat="47.62921" lon="-2.26073">
        <ele>66.14</ele>
        <time>2013-07-14T08:06:02Z</time>
      </trkpt>
      <trkpt lat="47.62913" lon="-2.26104">
        <ele>65.37</ele>
        <time>2013-07-14T08:06:05Z</time>
      </trkpt>
      <trkpt lat="47.629" lon="-2.26124">
        <ele>64.13</ele>
        <time>2013-07-14T08:06:09Z</time>
      </trkpt>
      <trkpt lat="47.62887" lon="-2.26166">
        <ele>65.12</ele>
        <time>2013-07-14T08:06:31Z</time>
      </trkpt>
      <trkpt lat="47.62885" lon="-2.26203">
        <ele>68.99</ele>
        <time>2013-07-14T08:06:43Z</time>
      </trkpt>
      <trkpt lat="47.6288" lon="-2.26231">
        <ele>70.45</ele>
        <time>2013-07-14T08:06:49Z</time>
      </trkpt>
      <trkpt lat="47.62876" lon="-2.26264">
        <ele>69.23</ele>
        <time>2013-07-14T08:06:54Z</time>
      </trkpt>
      <trkpt lat="47.62869" lon="-2.2629">
        <ele>67.33</ele>
        <time>2013-07-14T08:07:01Z</time>
      </trkpt>
      <trkpt lat="47.62855" lon="-2.26309">
        <ele>67.34</ele>
        <time>2013-07-14T08:07:11Z</time>
      </trkpt>
      <trkpt lat="47.6283" lon="-2.26337">
        <ele>69.6</ele>
        <time>2013-07-14T08:07:31Z</time>
      </trkpt>
      <trkpt lat="47.62825" lon="-2.26365">
        <ele>74.45</ele>
        <time>2013-07-14T08:07:37Z</time>
      </trkpt>
      <trkpt lat="47.62824" lon="-2.26399">
        <ele>75.24</ele>
        <time>2013-07-14T08:07:41Z</time>
      </trkpt>
      <trkpt lat="47.62818" lon="-2.26428">
        <ele>74.72</ele>
        <time>2013-07-14T08:07:45Z</time>
      </trkpt>
      <trkpt lat="47.62811" lon="-2.26455">
        <ele>72.99</ele>
        <time>2013-07-14T08:07:50Z</time>
      </trkpt>
      <trkpt lat="47.62803" lon="-2.26481">
        <ele>72.01</ele>
        <time>2013-07-14T08:07:55Z</time>
      </trkpt>
      <trkpt lat="47.6279" lon="-2.26506">
        <ele>71.31</ele>
        <time>2013-07-14T08:08:00Z</time>
      </trkpt>
      <trkpt lat="47.62779" lon="-2.2653">
        <ele>70.8</ele>
        <time>2013-07-14T08:08:05Z</time>
      </trkpt>
      <trkpt lat="47.62762" lon="-2.26536">
        <ele>70.8</ele>
        <time>2013-07-14T08:08:16Z</time>
      </trkpt>
      <trkpt lat="47.62758" lon="-2.26564">
        <ele>70.88</ele>
        <time>2013-07-14T08:08:22Z</time>
      </trkpt>
      <trkpt lat="47.62756" lon="-2.26597">
        <ele>72.72</ele>
        <time>2013-07-14T08:08:33Z</time>
      </trkpt>
      <trkpt lat="47.62762" lon="-2.26623">
        <ele>71.91</ele>
        <time>2013-07-14T08:08:37Z</time>
      </trkpt>
      <trkpt lat="47.62753" lon="-2.26646">
        <ele>68.35</ele>
        <time>2013-07-14T08:08:45Z</time>
      </trkpt>
      <trkpt lat="47.6274" lon="-2.26682">
        <ele>67.54</ele>
        <time>2013-07-14T08:09:01Z</time>
      </trkpt>
      <trkpt lat="47.62736" lon="-2.26713">
        <ele>68.58</ele>
        <time>2013-07-14T08:09:06Z</time>
      </trkpt>
      <trkpt lat="47.62735" lon="-2.26742">
        <ele>68.81</ele>
        <time>2013-07-14T08:09:12Z</time>
      </trkpt>
      <trkpt lat="47.62734" lon="-2.26771">
        <ele>68.09</ele>
        <time>2013-07-14T08:09:17Z</time>
      </trkpt>
      <trkpt lat="47.62733" lon="-2.26801">
        <ele>68.48</ele>
        <time>2013-07-14T08:09:24Z</time>
      </trkpt>
      <trkpt lat="47.62732" lon="-2.2683">
        <ele>70.96</ele>
        <time>2013-07-14T08:09:30Z</time>
      </trkpt>
      <trkpt lat="47.62733" lon="-2.26858">
        <ele>71.95</ele>
        <time>2013-07-14T08:09:33Z</time>
      </trkpt>
      <trkpt lat="47.62731" lon="-2.26888">
        <ele>71.93</ele>
        <time>2013-07-14T08:09:35Z</time>
      </trkpt>
      <trkpt lat="47.62729" lon="-2.26914">
        <ele>71.05</ele>
        <time>2013-07-14T08:09:38Z</time>
      </trkpt>
      <trkpt lat="47.62731" lon="-2.26943">
        <ele>67.46</ele>
        <time>2013-07-14T08:09:45Z</time>
      </trkpt>
      <trkpt lat="47.62729" lon="-2.26971">
        <ele>64.75</ele>
        <time>2013-07-14T08:09:50Z</time>
      </trkpt>
      <trkpt lat="47.62724" lon="-2.27">
        <ele>62.19</ele>
        <time>2013-07-14T08:09:55Z</time>
      </trkpt>
      <trkpt lat="47.62715" lon="-2.27025">
        <ele>60.48</ele>
        <time>2013-07-14T08:09:59Z</time>
      </trkpt>
      <trkpt lat="47.62701" lon="-2.27048">
        <ele>58.92</ele>
        <time>2013-07-14T08:10:03Z</time>
      </trkpt>
      <trkpt lat="47.62684" lon="-2.27069">
        <ele>58.06</ele>
        <time>2013-07-14T08:10:08Z</time>
      </trkpt>
      <trkpt lat="47.62673" lon="-2.27093">
        <ele>58.74</ele>
        <time>2013-07-14T08:10:13Z</time>
      </trkpt>
      <trkpt lat="47.62657" lon="-2.27111">
        <ele>59.55</ele>
        <time>2013-07-14T08:10:17Z</time>
      </trkpt>
      <trkpt lat="47.62644" lon="-2.2713">
        <ele>59.77</ele>
        <time>2013-07-14T08:10:22Z</time>
      </trkpt>
      <trkpt lat="47.62626" lon="-2.27146">
        <ele>59.76</ele>
        <time>2013-07-14T08:10:26Z</time>
      </trkpt>
      <trkpt lat="47.62605" lon="-2.27156">
        <ele>59.3</ele>
        <time>2013-07-14T08:10:29Z</time>
      </trkpt>
      <trkpt lat="47.62584" lon="-2.27156">
        <ele>58.76</ele>
        <time>2013-07-14T08:10:32Z</time>
      </trkpt>
      <trkpt lat="47.62565" lon="-2.27152">
        <ele>58.25</ele>
        <time>2013-07-14T08:10:37Z</time>
      </trkpt>
      <trkpt lat="47.62544" lon="-2.27149">
        <ele>58.65</ele>
        <time>2013-07-14T08:10:43Z</time>
      </trkpt>
      <trkpt lat="47.62528" lon="-2.27137">
        <ele>60.02</ele>
        <time>2013-07-14T08:10:51Z</time>
      </trkpt>
      <trkpt lat="47.62515" lon="-2.27115">
        <ele>61.1</ele>
        <time>2013-07-14T08:11:01Z</time>
      </trkpt>
      <trkpt lat="47.62502" lon="-2.27091">
        <ele>61.21</ele>
        <time>2013-07-14T08:11:08Z</time>
      </trkpt>
      <trkpt lat="47.62487" lon="-2.27076">
        <ele>62.35</ele>
        <time>2013-07-14T08:11:23Z</time>
      </trkpt>
      <trkpt lat="47.62467" lon="-2.27082">
        <ele>61.3</ele>
        <time>2013-07-14T08:11:30Z</time>
      </trkpt>
      <trkpt lat="47.62448" lon="-2.27083">
        <ele>61.63</ele>
        <time>2013-07-14T08:11:36Z</time>
      </trkpt>
      <trkpt lat="47.62432" lon="-2.27097">
        <ele>60.75</ele>
        <time>2013-07-14T08:11:46Z</time>
      </trkpt>
      <trkpt lat="47.62449" lon="-2.27115">
        <ele>57.12</ele>
        <time>2013-07-14T08:12:04Z</time>
      </trkpt>
      <trkpt lat="47.62467" lon="-2.27123">
        <ele>56.49</ele>
        <time>2013-07-14T08:12:07Z</time>
      </trkpt>
      <trkpt lat="47.62481" lon="-2.27146">
        <ele>55.69</ele>
        <time>2013-07-14T08:12:14Z</time>
      </trkpt>
      <trkpt lat="47.62488" lon="-2.27172">
        <ele>52.56</ele>
        <time>2013-07-14T08:12:20Z</time>
      </trkpt>
      <trkpt lat="47.6251" lon="-2.27182">
        <ele>49.46</ele>
        <time>2013-07-14T08:12:28Z</time>
      </trkpt>
      <trkpt lat="47.62559" lon="-2.27198">
        <ele>46.97</ele>
        <time>2013-07-14T08:12:48Z</time>
      </trkpt>
      <trkpt lat="47.6258" lon="-2.272">
        <ele>45.23</ele>
        <time>2013-07-14T08:12:52Z</time>
      </trkpt>
      <trkpt lat="47.62603" lon="-2.27201">
        <ele>43.47</ele>
        <time>2013-07-14T08:13:06Z</time>
      </trkpt>
      <trkpt lat="47.62622" lon="-2.27191">
        <ele>44.06</ele>
        <time>2013-07-14T08:13:10Z</time>
      </trkpt>
      <trkpt lat="47.62662" lon="-2.27161">
        <ele>43.9</ele>
        <time>2013-07-14T08:13:27Z</time>
      </trkpt>
      <trkpt lat="47.62674" lon="-2.27132">
        <ele>44.37</ele>
        <time>2013-07-14T08:13:40Z</time>
      </trkpt>
      <trkpt lat="47.62692" lon="-2.27114">
        <ele>45.07</ele>
        <time>2013-07-14T08:13:44Z</time>
      </trkpt>
      <trkpt lat="47.62708" lon="-2.27099">
        <ele>46.03</ele>
        <time>2013-07-14T08:13:47Z</time>
      </trkpt>
      <trkpt lat="47.62725" lon="-2.27087">
        <ele>46.59</ele>
        <time>2013-07-14T08:13:49Z</time>
      </trkpt>
      <trkpt lat="47.62746" lon="-2.27071">
        <ele>47.31</ele>
        <time>2013-07-14T08:13:51Z</time>
      </trkpt>
      <trkpt lat="47.62761" lon="-2.27048">
        <ele>49.12</ele>
        <time>2013-07-14T08:13:55Z</time>
      </trkpt>
      <trkpt lat="47.62762" lon="-2.27016">
        <ele>51.03</ele>
        <time>2013-07-14T08:14:02Z</time>
      </trkpt>
      <trkpt lat="47.6276" lon="-2.26988">
        <ele>50.95</ele>
        <time>2013-07-14T08:14:08Z</time>
      </trkpt>
      <trkpt lat="47.62753" lon="-2.26962">
        <ele>52.28</ele>
        <time>2013-07-14T08:14:14Z</time>
      </trkpt>
      <trkpt lat="47.62753" lon="-2.2693">
        <ele>53.3</ele>
        <time>2013-07-14T08:14:19Z</time>
      </trkpt>
      <trkpt lat="47.62751" lon="-2.26899">
        <ele>54.48</ele>
        <time>2013-07-14T08:14:25Z</time>
      </trkpt>
      <trkpt lat="47.62754" lon="-2.26861">
        <ele>55.51</ele>
        <time>2013-07-14T08:14:33Z</time>
      </trkpt>
      <trkpt lat="47.62758" lon="-2.26834">
        <ele>56.12</ele>
        <time>2013-07-14T08:14:38Z</time>
      </trkpt>
      <trkpt lat="47.6276" lon="-2.26788">
        <ele>57.77</ele>
        <time>2013-07-14T08:14:55Z</time>
      </trkpt>
      <trkpt lat="47.62762" lon="-2.26759">
        <ele>59.19</ele>
        <time>2013-07-14T08:15:04Z</time>
      </trkpt>
      <trkpt lat="47.62764" lon="-2.26732">
        <ele>59.34</ele>
        <time>2013-07-14T08:15:15Z</time>
      </trkpt>
      <trkpt lat="47.62748" lon="-2.26694">
        <ele>59.9</ele>
        <time>2013-07-14T08:15:32Z</time>
      </trkpt>
      <trkpt lat="47.62748" lon="-2.26666">
        <ele>59.65</ele>
        <time>2013-07-14T08:15:39Z</time>
      </trkpt>
      <trkpt lat="47.62773" lon="-2.26646">
        <ele>60.99</ele>
        <time>2013-07-14T08:16:00Z</time>
      </trkpt>
      <trkpt lat="47.62766" lon="-2.26621">
        <ele>60.57</ele>
        <time>2013-07-14T08:16:14Z</time>
      </trkpt>
      <trkpt lat="47.62773" lon="-2.26592">
        <ele>60.8</ele>
        <time>2013-07-14T08:16:20Z</time>
      </trkpt>
      <trkpt lat="47.6278" lon="-2.26564">
        <ele>61.61</ele>
        <time>2013-07-14T08:16:27Z</time>
      </trkpt>
      <trkpt lat="47.62777" lon="-2.26538">
        <ele>62.07</ele>
        <time>2013-07-14T08:16:33Z</time>
      </trkpt>
      <trkpt lat="47.62791" lon="-2.2651">
        <ele>61.57</ele>
        <time>2013-07-14T08:16:37Z</time>
      </trkpt>
      <trkpt lat="47.62809" lon="-2.26486">
        <ele>61.91</ele>
        <time>2013-07-14T08:16:40Z</time>
      </trkpt>
      <trkpt lat="47.62823" lon="-2.2647">
        <ele>62.35</ele>
        <time>2013-07-14T08:16:42Z</time>
      </trkpt>
      <trkpt lat="47.62834" lon="-2.26446">
        <ele>62.97</ele>
        <time>2013-07-14T08:16:45Z</time>
      </trkpt>
      <trkpt lat="47.62837" lon="-2.26412">
        <ele>64.3</ele>
        <time>2013-07-14T08:16:50Z</time>
      </trkpt>
      <trkpt lat="47.6284" lon="-2.26382">
        <ele>65.29</ele>
        <time>2013-07-14T08:16:56Z</time>
      </trkpt>
      <trkpt lat="47.62852" lon="-2.26355">
        <ele>65.31</ele>
        <time>2013-07-14T08:17:01Z</time>
      </trkpt>
      <trkpt lat="47.62861" lon="-2.2633">
        <ele>64.74</ele>
        <time>2013-07-14T08:17:07Z</time>
      </trkpt>
      <trkpt lat="47.62874" lon="-2.26306">
        <ele>64.63</ele>
        <time>2013-07-14T08:17:11Z</time>
      </trkpt>
      <trkpt lat="47.62878" lon="-2.26279">
        <ele>63.81</ele>
        <time>2013-07-14T08:17:22Z</time>
      </trkpt>
      <trkpt lat="47.6289" lon="-2.26253">
        <ele>64.7</ele>
        <time>2013-07-14T08:17:26Z</time>
      </trkpt>
      <trkpt lat="47.62892" lon="-2.26226">
        <ele>64.17</ele>
        <time>2013-07-14T08:17:29Z</time>
      </trkpt>
      <trkpt lat="47.62881" lon="-2.26194">
        <ele>63.72</ele>
        <time>2013-07-14T08:17:32Z</time>
      </trkpt>
      <trkpt lat="47.6287" lon="-2.26173">
        <ele>63.2</ele>
        <time>2013-07-14T08:17:35Z</time>
      </trkpt>
      <trkpt lat="47.62883" lon="-2.26154">
        <ele>59.87</ele>
        <time>2013-07-14T08:17:43Z</time>
      </trkpt>
      <trkpt lat="47.62922" lon="-2.26121">
        <ele>56.22</ele>
        <time>2013-07-14T08:17:59Z</time>
      </trkpt>
      <trkpt lat="47.62941" lon="-2.26109">
        <ele>56.36</ele>
        <time>2013-07-14T08:18:06Z</time>
      </trkpt>
      <trkpt lat="47.62949" lon="-2.26081">
        <ele>54.77</ele>
        <time>2013-07-14T08:18:15Z</time>
      </trkpt>
      <trkpt lat="47.62969" lon="-2.26074">
        <ele>54.08</ele>
        <time>2013-07-14T08:18:19Z</time>
      </trkpt>
      <trkpt lat="47.62987" lon="-2.26073">
        <ele>53.71</ele>
        <time>2013-07-14T08:18:23Z</time>
      </trkpt>
      <trkpt lat="47.63005" lon="-2.26081">
        <ele>49.7</ele>
        <time>2013-07-14T08:18:30Z</time>
      </trkpt>
      <trkpt lat="47.63041" lon="-2.26114">
        <ele>48.23</ele>
        <time>2013-07-14T08:19:12Z</time>
      </trkpt>
      <trkpt lat="47.63051" lon="-2.26142">
        <ele>60.22</ele>
        <time>2013-07-14T08:19:29Z</time>
      </trkpt>
      <trkpt lat="47.63073" lon="-2.26168">
        <ele>63.91</ele>
        <time>2013-07-14T08:19:48Z</time>
      </trkpt>
      <trkpt lat="47.63071" lon="-2.26195">
        <ele>64.09</ele>
        <time>2013-07-14T08:19:56Z</time>
      </trkpt>
      <trkpt lat="47.63067" lon="-2.26224">
        <ele>62.38</ele>
        <time>2013-07-14T08:20:02Z</time>
      </trkpt>
      <trkpt lat="47.63066" lon="-2.26255">
        <ele>62.88</ele>
        <time>2013-07-14T08:20:07Z</time>
      </trkpt>
      <trkpt lat="47.63061" lon="-2.26282">
        <ele>63.74</ele>
        <time>2013-07-14T08:20:12Z</time>
      </trkpt>
      <trkpt lat="47.63055" lon="-2.26313">
        <ele>64.67</ele>
        <time>2013-07-14T08:20:17Z</time>
      </trkpt>
      <trkpt lat="47.6306" lon="-2.26344">
        <ele>64.67</ele>
        <time>2013-07-14T08:20:20Z</time>
      </trkpt>
      <trkpt lat="47.63056" lon="-2.26375">
        <ele>64.14</ele>
        <time>2013-07-14T08:20:25Z</time>
      </trkpt>
      <trkpt lat="47.63044" lon="-2.26396">
        <ele>63.05</ele>
        <time>2013-07-14T08:20:30Z</time>
      </trkpt>
      <trkpt lat="47.63029" lon="-2.26414">
        <ele>62.74</ele>
        <time>2013-07-14T08:20:34Z</time>
      </trkpt>
      <trkpt lat="47.63014" lon="-2.2643">
        <ele>62.83</ele>
        <time>2013-07-14T08:20:37Z</time>
      </trkpt>
      <trkpt lat="47.62988" lon="-2.26445">
        <ele>62.77</ele>
        <time>2013-07-14T08:20:40Z</time>
      </trkpt>
      <trkpt lat="47.62967" lon="-2.26453">
        <ele>62.35</ele>
        <time>2013-07-14T08:20:44Z</time>
      </trkpt>
      <trkpt lat="47.62946" lon="-2.2645">
        <ele>62.22</ele>
        <time>2013-07-14T08:20:47Z</time>
      </trkpt>
      <trkpt lat="47.62928" lon="-2.26459">
        <ele>61.52</ele>
        <time>2013-07-14T08:20:50Z</time>
      </trkpt>
      <trkpt lat="47.62912" lon="-2.26482">
        <ele>59.48</ele>
        <time>2013-07-14T08:20:56Z</time>
      </trkpt>
      <trkpt lat="47.62907" lon="-2.26513">
        <ele>58.27</ele>
        <time>2013-07-14T08:20:59Z</time>
      </trkpt>
      <trkpt lat="47.62901" lon="-2.26541">
        <ele>57.49</ele>
        <time>2013-07-14T08:21:01Z</time>
      </trkpt>
      <trkpt lat="47.62895" lon="-2.26571">
        <ele>56.75</ele>
        <time>2013-07-14T08:21:03Z</time>
      </trkpt>
      <trkpt lat="47.62889" lon="-2.26601">
        <ele>55.55</ele>
        <time>2013-07-14T08:21:05Z</time>
      </trkpt>
      <trkpt lat="47.62882" lon="-2.26626">
        <ele>54.4</ele>
        <time>2013-07-14T08:21:07Z</time>
      </trkpt>
      <trkpt lat="47.62871" lon="-2.26648">
        <ele>53.66</ele>
        <time>2013-07-14T08:21:09Z</time>
      </trkpt>
      <trkpt lat="47.62854" lon="-2.26678">
        <ele>53.02</ele>
        <time>2013-07-14T08:21:12Z</time>
      </trkpt>
      <trkpt lat="47.62841" lon="-2.26703">
        <ele>52.87</ele>
        <time>2013-07-14T08:21:15Z</time>
      </trkpt>
      <trkpt lat="47.62831" lon="-2.26726">
        <ele>52.25</ele>
        <time>2013-07-14T08:21:20Z</time>
      </trkpt>
      <trkpt lat="47.62829" lon="-2.26753">
        <ele>51.65</ele>
        <time>2013-07-14T08:21:24Z</time>
      </trkpt>
      <trkpt lat="47.62828" lon="-2.2678">
        <ele>52.72</ele>
        <time>2013-07-14T08:21:33Z</time>
      </trkpt>
      <trkpt lat="47.62848" lon="-2.26827">
        <ele>55.35</ele>
        <time>2013-07-14T08:22:17Z</time>
      </trkpt>
      <trkpt lat="47.62858" lon="-2.26858">
        <ele>61.93</ele>
        <time>2013-07-14T08:22:36Z</time>
      </trkpt>
      <trkpt lat="47.62856" lon="-2.26884">
        <ele>60.38</ele>
        <time>2013-07-14T08:22:40Z</time>
      </trkpt>
      <trkpt lat="47.62845" lon="-2.26908">
        <ele>58.22</ele>
        <time>2013-07-14T08:22:45Z</time>
      </trkpt>
      <trkpt lat="47.6283" lon="-2.26925">
        <ele>56.86</ele>
        <time>2013-07-14T08:22:49Z</time>
      </trkpt>
      <trkpt lat="47.62812" lon="-2.26977">
        <ele>50.96</ele>
        <time>2013-07-14T08:23:18Z</time>
      </trkpt>
      <trkpt lat="47.6281" lon="-2.27008">
        <ele>48.93</ele>
        <time>2013-07-14T08:23:30Z</time>
      </trkpt>
      <trkpt lat="47.62807" lon="-2.27039">
        <ele>47.82</ele>
        <time>2013-07-14T08:23:35Z</time>
      </trkpt>
      <trkpt lat="47.62796" lon="-2.27071">
        <ele>47.97</ele>
        <time>2013-07-14T08:23:39Z</time>
      </trkpt>
      <trkpt lat="47.6279" lon="-2.27101">
        <ele>49.22</ele>
        <time>2013-07-14T08:23:43Z</time>
      </trkpt>
      <trkpt lat="47.62781" lon="-2.27126">
        <ele>50.72</ele>
        <time>2013-07-14T08:23:47Z</time>
      </trkpt>
      <trkpt lat="47.6278" lon="-2.27153">
        <ele>51.71</ele>
        <time>2013-07-14T08:23:50Z</time>
      </trkpt>
      <trkpt lat="47.62767" lon="-2.27171">
        <ele>52.68</ele>
        <time>2013-07-14T08:23:55Z</time>
      </trkpt>
      <trkpt lat="47.62757" lon="-2.27197">
        <ele>52.21</ele>
        <time>2013-07-14T08:24:01Z</time>
      </trkpt>
      <trkpt lat="47.62746" lon="-2.27222">
        <ele>51.89</ele>
        <time>2013-07-14T08:24:09Z</time>
      </trkpt>
      <trkpt lat="47.62735" lon="-2.27246">
        <ele>53.14</ele>
        <time>2013-07-14T08:24:20Z</time>
      </trkpt>
      <trkpt lat="47.62721" lon="-2.27269">
        <ele>53.89</ele>
        <time>2013-07-14T08:24:29Z</time>
      </trkpt>
      <trkpt lat="47.62702" lon="-2.27299">
        <ele>49.9</ele>
        <time>2013-07-14T08:24:43Z</time>
      </trkpt>
      <trkpt lat="47.62679" lon="-2.27322">
        <ele>53.41</ele>
        <time>2013-07-14T08:25:04Z</time>
      </trkpt>
      <trkpt lat="47.62653" lon="-2.27338">
        <ele>58.55</ele>
        <time>2013-07-14T08:25:22Z</time>
      </trkpt>
      <trkpt lat="47.62633" lon="-2.2737">
        <ele>61.92</ele>
        <time>2013-07-14T08:25:41Z</time>
      </trkpt>
      <trkpt lat="47.62637" lon="-2.27399">
        <ele>66.12</ele>
        <time>2013-07-14T08:25:53Z</time>
      </trkpt>
      <trkpt lat="47.62633" lon="-2.2743">
        <ele>64.78</ele>
        <time>2013-07-14T08:26:01Z</time>
      </trkpt>
      <trkpt lat="47.62631" lon="-2.27462">
        <ele>64.09</ele>
        <time>2013-07-14T08:26:06Z</time>
      </trkpt>
      <trkpt lat="47.62623" lon="-2.2749">
        <ele>62.8</ele>
        <time>2013-07-14T08:26:11Z</time>
      </trkpt>
      <trkpt lat="47.62625" lon="-2.27518">
        <ele>62.84</ele>
        <time>2013-07-14T08:26:18Z</time>
      </trkpt>
      <trkpt lat="47.62637" lon="-2.27541">
        <ele>67.51</ele>
        <time>2013-07-14T08:26:25Z</time>
      </trkpt>
      <trkpt lat="47.62648" lon="-2.27562">
        <ele>70.85</ele>
        <time>2013-07-14T08:26:32Z</time>
      </trkpt>
      <trkpt lat="47.6265" lon="-2.27589">
        <ele>71.39</ele>
        <time>2013-07-14T08:26:39Z</time>
      </trkpt>
      <trkpt lat="47.62644" lon="-2.27615">
        <ele>70.08</ele>
        <time>2013-07-14T08:26:45Z</time>
      </trkpt>
      <trkpt lat="47.62632" lon="-2.2764">
        <ele>69.19</ele>
        <time>2013-07-14T08:26:50Z</time>
      </trkpt>
      <trkpt lat="47.62626" lon="-2.27666">
        <ele>68.84</ele>
        <time>2013-07-14T08:26:55Z</time>
      </trkpt>
      <trkpt lat="47.62617" lon="-2.27691">
        <ele>68.26</ele>
        <time>2013-07-14T08:27:01Z</time>
      </trkpt>
      <trkpt lat="47.62608" lon="-2.27716">
        <ele>68.92</ele>
        <time>2013-07-14T08:27:07Z</time>
      </trkpt>
      <trkpt lat="47.62595" lon="-2.27743">
        <ele>69.21</ele>
        <time>2013-07-14T08:27:11Z</time>
      </trkpt>
      <trkpt lat="47.62586" lon="-2.27773">
        <ele>69.28</ele>
        <time>2013-07-14T08:27:15Z</time>
      </trkpt>
      <trkpt lat="47.6258" lon="-2.27799">
        <ele>69.15</ele>
        <time>2013-07-14T08:27:18Z</time>
      </trkpt>
      <trkpt lat="47.62576" lon="-2.27828">
        <ele>69.48</ele>
        <time>2013-07-14T08:27:28Z</time>
      </trkpt>
      <trkpt lat="47.62575" lon="-2.27855">
        <ele>69.12</ele>
        <time>2013-07-14T08:27:34Z</time>
      </trkpt>
      <trkpt lat="47.62575" lon="-2.27885">
        <ele>70.13</ele>
        <time>2013-07-14T08:27:43Z</time>
      </trkpt>
      <trkpt lat="47.62574" lon="-2.27914">
        <ele>69.88</ele>
        <time>2013-07-14T08:27:49Z</time>
      </trkpt>
      <trkpt lat="47.62566" lon="-2.27944">
        <ele>69.34</ele>
        <time>2013-07-14T08:27:52Z</time>
      </trkpt>
      <trkpt lat="47.6256" lon="-2.27975">
        <ele>69.39</ele>
        <time>2013-07-14T08:27:57Z</time>
      </trkpt>
      <trkpt lat="47.62556" lon="-2.28004">
        <ele>69.21</ele>
        <time>2013-07-14T08:28:04Z</time>
      </trkpt>
      <trkpt lat="47.62565" lon="-2.28035">
        <ele>69.02</ele>
        <time>2013-07-14T08:28:17Z</time>
      </trkpt>
      <trkpt lat="47.62567" lon="-2.28065">
        <ele>69.93</ele>
        <time>2013-07-14T08:28:21Z</time>
      </trkpt>
      <trkpt lat="47.62572" lon="-2.28093">
        <ele>70.35</ele>
        <time>2013-07-14T08:28:24Z</time>
      </trkpt>
      <trkpt lat="47.62571" lon="-2.28124">
        <ele>70.38</ele>
        <time>2013-07-14T08:28:27Z</time>
      </trkpt>
      <trkpt lat="47.62561" lon="-2.28153">
        <ele>69.82</ele>
        <time>2013-07-14T08:28:34Z</time>
      </trkpt>
      <trkpt lat="47.62547" lon="-2.28184">
        <ele>69.36</ele>
        <time>2013-07-14T08:28:38Z</time>
      </trkpt>
      <trkpt lat="47.62525" lon="-2.28208">
        <ele>68.17</ele>
        <time>2013-07-14T08:28:41Z</time>
      </trkpt>
      <trkpt lat="47.62509" lon="-2.28231">
        <ele>65.6</ele>
        <time>2013-07-14T08:28:45Z</time>
      </trkpt>
      <trkpt lat="47.62505" lon="-2.28262">
        <ele>62.09</ele>
        <time>2013-07-14T08:28:49Z</time>
      </trkpt>
      <trkpt lat="47.62497" lon="-2.28289">
        <ele>58.42</ele>
        <time>2013-07-14T08:28:53Z</time>
      </trkpt>
      <trkpt lat="47.62475" lon="-2.28296">
        <ele>56.06</ele>
        <time>2013-07-14T08:28:57Z</time>
      </trkpt>
      <trkpt lat="47.62454" lon="-2.28298">
        <ele>54.67</ele>
        <time>2013-07-14T08:29:00Z</time>
      </trkpt>
      <trkpt lat="47.62429" lon="-2.28301">
        <ele>52.6</ele>
        <time>2013-07-14T08:29:03Z</time>
      </trkpt>
      <trkpt lat="47.62408" lon="-2.28301">
        <ele>49.44</ele>
        <time>2013-07-14T08:29:06Z</time>
      </trkpt>
      <trkpt lat="47.62382" lon="-2.28294">
        <ele>46.47</ele>
        <time>2013-07-14T08:29:09Z</time>
      </trkpt>
      <trkpt lat="47.62363" lon="-2.28286">
        <ele>44.42</ele>
        <time>2013-07-14T08:29:11Z</time>
      </trkpt>
      <trkpt lat="47.62342" lon="-2.28276">
        <ele>42.51</ele>
        <time>2013-07-14T08:29:13Z</time>
      </trkpt>
      <trkpt lat="47.62318" lon="-2.28262">
        <ele>40.03</ele>
        <time>2013-07-14T08:29:15Z</time>
      </trkpt>
      <trkpt lat="47.62292" lon="-2.28247">
        <ele>36.7</ele>
        <time>2013-07-14T08:29:17Z</time>
      </trkpt>
      <trkpt lat="47.62269" lon="-2.28226">
        <ele>33.29</ele>
        <time>2013-07-14T08:29:19Z</time>
      </trkpt>
      <trkpt lat="47.62255" lon="-2.28196">
        <ele>30.22</ele>
        <time>2013-07-14T08:29:21Z</time>
      </trkpt>
      <trkpt lat="47.62244" lon="-2.28167">
        <ele>27.72</ele>
        <time>2013-07-14T08:29:23Z</time>
      </trkpt>
      <trkpt lat="47.62241" lon="-2.28134">
        <ele>25.54</ele>
        <time>2013-07-14T08:29:25Z</time>
      </trkpt>
      <trkpt lat="47.62238" lon="-2.28105">
        <ele>23.65</ele>
        <time>2013-07-14T08:29:27Z</time>
      </trkpt>
      <trkpt lat="47.62236" lon="-2.28078">
        <ele>22.06</ele>
        <time>2013-07-14T08:29:29Z</time>
      </trkpt>
      <trkpt lat="47.62233" lon="-2.28042">
        <ele>20.4</ele>
        <time>2013-07-14T08:29:32Z</time>
      </trkpt>
      <trkpt lat="47.62231" lon="-2.28006">
        <ele>19.47</ele>
        <time>2013-07-14T08:29:35Z</time>
      </trkpt>
      <trkpt lat="47.6223" lon="-2.27971">
        <ele>18.9</ele>
        <time>2013-07-14T08:29:38Z</time>
      </trkpt>
      <trkpt lat="47.62229" lon="-2.27935">
        <ele>18.82</ele>
        <time>2013-07-14T08:29:41Z</time>
      </trkpt>
      <trkpt lat="47.62226" lon="-2.27904">
        <ele>18.88</ele>
        <time>2013-07-14T08:29:44Z</time>
      </trkpt>
      <trkpt lat="47.62224" lon="-2.27871">
        <ele>18.72</ele>
        <time>2013-07-14T08:29:47Z</time>
      </trkpt>
      <trkpt lat="47.62223" lon="-2.2784">
        <ele>18.5</ele>
        <time>2013-07-14T08:29:50Z</time>
      </trkpt>
      <trkpt lat="47.62221" lon="-2.2781">
        <ele>18.2</ele>
        <time>2013-07-14T08:29:53Z</time>
      </trkpt>
      <trkpt lat="47.6222" lon="-2.27782">
        <ele>17.94</ele>
        <time>2013-07-14T08:29:56Z</time>
      </trkpt>
      <trkpt lat="47.62219" lon="-2.27755">
        <ele>18.07</ele>
        <time>2013-07-14T08:29:59Z</time>
      </trkpt>
      <trkpt lat="47.62218" lon="-2.27729">
        <ele>18.28</ele>
        <time>2013-07-14T08:30:02Z</time>
      </trkpt>
      <trkpt lat="47.62214" lon="-2.27695">
        <ele>18.14</ele>
        <time>2013-07-14T08:30:06Z</time>
      </trkpt>
      <trkpt lat="47.6221" lon="-2.27667">
        <ele>17.86</ele>
        <time>2013-07-14T08:30:09Z</time>
      </trkpt>
      <trkpt lat="47.62206" lon="-2.27637">
        <ele>17.12</ele>
        <time>2013-07-14T08:30:12Z</time>
      </trkpt>
      <trkpt lat="47.62202" lon="-2.27606">
        <ele>16.14</ele>
        <time>2013-07-14T08:30:15Z</time>
      </trkpt>
      <trkpt lat="47.62198" lon="-2.27575">
        <ele>15.34</ele>
        <time>2013-07-14T08:30:18Z</time>
      </trkpt>
      <trkpt lat="47.62194" lon="-2.27546">
        <ele>14.84</ele>
        <time>2013-07-14T08:30:21Z</time>
      </trkpt>
      <trkpt lat="47.62191" lon="-2.27519">
        <ele>14.52</ele>
        <time>2013-07-14T08:30:24Z</time>
      </trkpt>
      <trkpt lat="47.6218" lon="-2.27489">
        <ele>14.76</ele>
        <time>2013-07-14T08:30:28Z</time>
      </trkpt>
      <trkpt lat="47.62168" lon="-2.27465">
        <ele>15.14</ele>
        <time>2013-07-14T08:30:32Z</time>
      </trkpt>
      <trkpt lat="47.62153" lon="-2.2744">
        <ele>16.83</ele>
        <time>2013-07-14T08:30:36Z</time>
      </trkpt>
      <trkpt lat="47.62153" lon="-2.27408">
        <ele>19.93</ele>
        <time>2013-07-14T08:30:40Z</time>
      </trkpt>
      <trkpt lat="47.62158" lon="-2.27377">
        <ele>21.42</ele>
        <time>2013-07-14T08:30:44Z</time>
      </trkpt>
      <trkpt lat="47.62164" lon="-2.2735">
        <ele>21.21</ele>
        <time>2013-07-14T08:30:48Z</time>
      </trkpt>
      <trkpt lat="47.6217" lon="-2.27318">
        <ele>20.84</ele>
        <time>2013-07-14T08:30:53Z</time>
      </trkpt>
      <trkpt lat="47.62175" lon="-2.27286">
        <ele>20.33</ele>
        <time>2013-07-14T08:30:58Z</time>
      </trkpt>
      <trkpt lat="47.6218" lon="-2.27254">
        <ele>20.9</ele>
        <time>2013-07-14T08:31:03Z</time>
      </trkpt>
      <trkpt lat="47.62184" lon="-2.27227">
        <ele>21.46</ele>
        <time>2013-07-14T08:31:07Z</time>
      </trkpt>
      <trkpt lat="47.62189" lon="-2.27201">
        <ele>21.72</ele>
        <time>2013-07-14T08:31:11Z</time>
      </trkpt>
      <trkpt lat="47.62193" lon="-2.27171">
        <ele>23.29</ele>
        <time>2013-07-14T08:31:16Z</time>
      </trkpt>
      <trkpt lat="47.62192" lon="-2.27141">
        <ele>25.19</ele>
        <time>2013-07-14T08:31:24Z</time>
      </trkpt>
      <trkpt lat="47.6219" lon="-2.27109">
        <ele>27.32</ele>
        <time>2013-07-14T08:31:29Z</time>
      </trkpt>
      <trkpt lat="47.62187" lon="-2.27076">
        <ele>29.05</ele>
        <time>2013-07-14T08:31:33Z</time>
      </trkpt>
      <trkpt lat="47.62185" lon="-2.27049">
        <ele>29.22</ele>
        <time>2013-07-14T08:31:37Z</time>
      </trkpt>
      <trkpt lat="47.62181" lon="-2.27019">
        <ele>28.27</ele>
        <time>2013-07-14T08:31:42Z</time>
      </trkpt>
      <trkpt lat="47.62184" lon="-2.26987">
        <ele>27.26</ele>
        <time>2013-07-14T08:31:47Z</time>
      </trkpt>
      <trkpt lat="47.6219" lon="-2.2696">
        <ele>25.86</ele>
        <time>2013-07-14T08:31:51Z</time>
      </trkpt>
      <trkpt lat="47.62196" lon="-2.26931">
        <ele>24.81</ele>
        <time>2013-07-14T08:31:56Z</time>
      </trkpt>
      <trkpt lat="47.62202" lon="-2.26905">
        <ele>24.87</ele>
        <time>2013-07-14T08:32:01Z</time>
      </trkpt>
      <trkpt lat="47.6221" lon="-2.26875">
        <ele>25.34</ele>
        <time>2013-07-14T08:32:07Z</time>
      </trkpt>
      <trkpt lat="47.62216" lon="-2.26848">
        <ele>25.79</ele>
        <time>2013-07-14T08:32:13Z</time>
      </trkpt>
      <trkpt lat="47.6222" lon="-2.26818">
        <ele>26.49</ele>
        <time>2013-07-14T08:32:20Z</time>
      </trkpt>
      <trkpt lat="47.62223" lon="-2.2679">
        <ele>27.44</ele>
        <time>2013-07-14T08:32:26Z</time>
      </trkpt>
      <trkpt lat="47.62224" lon="-2.26759">
        <ele>28.37</ele>
        <time>2013-07-14T08:32:32Z</time>
      </trkpt>
      <trkpt lat="47.62223" lon="-2.26729">
        <ele>29.26</ele>
        <time>2013-07-14T08:32:38Z</time>
      </trkpt>
      <trkpt lat="47.62224" lon="-2.26701">
        <ele>30.32</ele>
        <time>2013-07-14T08:32:44Z</time>
      </trkpt>
      <trkpt lat="47.62224" lon="-2.2667">
        <ele>32.35</ele>
        <time>2013-07-14T08:32:51Z</time>
      </trkpt>
      <trkpt lat="47.62226" lon="-2.26641">
        <ele>33.81</ele>
        <time>2013-07-14T08:32:58Z</time>
      </trkpt>
      <trkpt lat="47.6223" lon="-2.26611">
        <ele>35.5</ele>
        <time>2013-07-14T08:33:05Z</time>
      </trkpt>
      <trkpt lat="47.62232" lon="-2.26583">
        <ele>36.64</ele>
        <time>2013-07-14T08:33:11Z</time>
      </trkpt>
      <trkpt lat="47.62234" lon="-2.26556">
        <ele>37.63</ele>
        <time>2013-07-14T08:33:17Z</time>
      </trkpt>
      <trkpt lat="47.6222" lon="-2.26539">
        <ele>38.1</ele>
        <time>2013-07-14T08:33:25Z</time>
      </trkpt>
      <trkpt lat="47.62205" lon="-2.26562">
        <ele>37.91</ele>
        <time>2013-07-14T08:33:29Z</time>
      </trkpt>
      <trkpt lat="47.62188" lon="-2.26585">
        <ele>38.35</ele>
        <time>2013-07-14T08:33:33Z</time>
      </trkpt>
      <trkpt lat="47.62173" lon="-2.26603">
        <ele>38.71</ele>
        <time>2013-07-14T08:33:36Z</time>
      </trkpt>
      <trkpt lat="47.62156" lon="-2.26621">
        <ele>38.42</ele>
        <time>2013-07-14T08:33:39Z</time>
      </trkpt>
      <trkpt lat="47.62139" lon="-2.26639">
        <ele>38.49</ele>
        <time>2013-07-14T08:33:42Z</time>
      </trkpt>
      <trkpt lat="47.6212" lon="-2.26655">
        <ele>38.35</ele>
        <time>2013-07-14T08:33:45Z</time>
      </trkpt>
      <trkpt lat="47.62102" lon="-2.26667">
        <ele>38.46</ele>
        <time>2013-07-14T08:33:50Z</time>
      </trkpt>
      <trkpt lat="47.62078" lon="-2.26667">
        <ele>36.4</ele>
        <time>2013-07-14T08:35:49Z</time>
      </trkpt>
      <trkpt lat="47.62068" lon="-2.26696">
        <ele>30.13</ele>
        <time>2013-07-14T08:40:50Z</time>
      </trkpt>
      <trkpt lat="47.62045" lon="-2.26696">
        <ele>29.3</ele>
        <time>2013-07-14T08:40:54Z</time>
      </trkpt>
      <trkpt lat="47.62022" lon="-2.26689">
        <ele>27.68</ele>
        <time>2013-07-14T08:40:58Z</time>
      </trkpt>
      <trkpt lat="47.62" lon="-2.26682">
        <ele>26.31</ele>
        <time>2013-07-14T08:41:02Z</time>
      </trkpt>
      <trkpt lat="47.61977" lon="-2.26677">
        <ele>25.55</ele>
        <time>2013-07-14T08:41:06Z</time>
      </trkpt>
      <trkpt lat="47.61957" lon="-2.26673">
        <ele>25.24</ele>
        <time>2013-07-14T08:41:09Z</time>
      </trkpt>
      <trkpt lat="47.61938" lon="-2.26667">
        <ele>24.88</ele>
        <time>2013-07-14T08:41:12Z</time>
      </trkpt>
      <trkpt lat="47.61922" lon="-2.26654">
        <ele>24.59</ele>
        <time>2013-07-14T08:41:15Z</time>
      </trkpt>
      <trkpt lat="47.61907" lon="-2.26638">
        <ele>24.53</ele>
        <time>2013-07-14T08:41:18Z</time>
      </trkpt>
      <trkpt lat="47.61887" lon="-2.26619">
        <ele>24.6</ele>
        <time>2013-07-14T08:41:22Z</time>
      </trkpt>
      <trkpt lat="47.61873" lon="-2.26602">
        <ele>24.93</ele>
        <time>2013-07-14T08:41:25Z</time>
      </trkpt>
      <trkpt lat="47.61857" lon="-2.2659">
        <ele>25.56</ele>
        <time>2013-07-14T08:41:28Z</time>
      </trkpt>
      <trkpt lat="47.6184" lon="-2.26568">
        <ele>25.94</ele>
        <time>2013-07-14T08:41:32Z</time>
      </trkpt>
      <trkpt lat="47.61825" lon="-2.26551">
        <ele>25.84</ele>
        <time>2013-07-14T08:41:36Z</time>
      </trkpt>
      <trkpt lat="47.61807" lon="-2.26557">
        <ele>24.54</ele>
        <time>2013-07-14T08:42:02Z</time>
      </trkpt>
      <trkpt lat="47.61797" lon="-2.26581">
        <ele>25.44</ele>
        <time>2013-07-14T08:42:06Z</time>
      </trkpt>
      <trkpt lat="47.61786" lon="-2.26605">
        <ele>26.18</ele>
        <time>2013-07-14T08:42:10Z</time>
      </trkpt>
      <trkpt lat="47.61774" lon="-2.26631">
        <ele>26.74</ele>
        <time>2013-07-14T08:42:14Z</time>
      </trkpt>
      <trkpt lat="47.61764" lon="-2.26657">
        <ele>27.34</ele>
        <time>2013-07-14T08:42:18Z</time>
      </trkpt>
      <trkpt lat="47.61752" lon="-2.2668">
        <ele>27.68</ele>
        <time>2013-07-14T08:42:22Z</time>
      </trkpt>
      <trkpt lat="47.6174" lon="-2.26704">
        <ele>27.71</ele>
        <time>2013-07-14T08:42:26Z</time>
      </trkpt>
      <trkpt lat="47.61729" lon="-2.26726">
        <ele>27.34</ele>
        <time>2013-07-14T08:42:30Z</time>
      </trkpt>
      <trkpt lat="47.61711" lon="-2.26743">
        <ele>27.02</ele>
        <time>2013-07-14T08:42:35Z</time>
      </trkpt>
      <trkpt lat="47.61693" lon="-2.26735">
        <ele>27</ele>
        <time>2013-07-14T08:42:39Z</time>
      </trkpt>
      <trkpt lat="47.61675" lon="-2.26719">
        <ele>26.64</ele>
        <time>2013-07-14T08:42:43Z</time>
      </trkpt>
      <trkpt lat="47.61657" lon="-2.26702">
        <ele>26.39</ele>
        <time>2013-07-14T08:42:47Z</time>
      </trkpt>
      <trkpt lat="47.61639" lon="-2.26684">
        <ele>26.48</ele>
        <time>2013-07-14T08:42:51Z</time>
      </trkpt>
      <trkpt lat="47.61623" lon="-2.26667">
        <ele>26.47</ele>
        <time>2013-07-14T08:42:55Z</time>
      </trkpt>
      <trkpt lat="47.61607" lon="-2.26683">
        <ele>26.11</ele>
        <time>2013-07-14T08:43:00Z</time>
      </trkpt>
      <trkpt lat="47.61595" lon="-2.26709">
        <ele>25.92</ele>
        <time>2013-07-14T08:43:04Z</time>
      </trkpt>
      <trkpt lat="47.61583" lon="-2.26736">
        <ele>25.8</ele>
        <time>2013-07-14T08:43:08Z</time>
      </trkpt>
      <trkpt lat="47.61571" lon="-2.26762">
        <ele>25.7</ele>
        <time>2013-07-14T08:43:12Z</time>
      </trkpt>
      <trkpt lat="47.61559" lon="-2.26789">
        <ele>25.52</ele>
        <time>2013-07-14T08:43:16Z</time>
      </trkpt>
      <trkpt lat="47.61547" lon="-2.26816">
        <ele>25.23</ele>
        <time>2013-07-14T08:43:20Z</time>
      </trkpt>
      <trkpt lat="47.61536" lon="-2.26844">
        <ele>25.12</ele>
        <time>2013-07-14T08:43:24Z</time>
      </trkpt>
      <trkpt lat="47.61523" lon="-2.26873">
        <ele>24.58</ele>
        <time>2013-07-14T08:43:28Z</time>
      </trkpt>
      <trkpt lat="47.61512" lon="-2.26897">
        <ele>23.8</ele>
        <time>2013-07-14T08:43:31Z</time>
      </trkpt>
      <trkpt lat="47.61503" lon="-2.26923">
        <ele>23.21</ele>
        <time>2013-07-14T08:43:34Z</time>
      </trkpt>
      <trkpt lat="47.61498" lon="-2.26956">
        <ele>22.96</ele>
        <time>2013-07-14T08:43:38Z</time>
      </trkpt>
      <trkpt lat="47.61499" lon="-2.26984">
        <ele>23.21</ele>
        <time>2013-07-14T08:43:42Z</time>
      </trkpt>
      <trkpt lat="47.61501" lon="-2.27011">
        <ele>23.63</ele>
        <time>2013-07-14T08:43:46Z</time>
      </trkpt>
      <trkpt lat="47.61502" lon="-2.27039">
        <ele>24.18</ele>
        <time>2013-07-14T08:43:50Z</time>
      </trkpt>
      <trkpt lat="47.61502" lon="-2.27066">
        <ele>24.85</ele>
        <time>2013-07-14T08:43:54Z</time>
      </trkpt>
      <trkpt lat="47.61504" lon="-2.27098">
        <ele>25.57</ele>
        <time>2013-07-14T08:43:59Z</time>
      </trkpt>
      <trkpt lat="47.61506" lon="-2.27127">
        <ele>26.13</ele>
        <time>2013-07-14T08:44:04Z</time>
      </trkpt>
      <trkpt lat="47.61511" lon="-2.27155">
        <ele>26.55</ele>
        <time>2013-07-14T08:44:09Z</time>
      </trkpt>
      <trkpt lat="47.61516" lon="-2.27183">
        <ele>26.87</ele>
        <time>2013-07-14T08:44:14Z</time>
      </trkpt>
      <trkpt lat="47.6152" lon="-2.27211">
        <ele>27.23</ele>
        <time>2013-07-14T08:44:19Z</time>
      </trkpt>
      <trkpt lat="47.61525" lon="-2.27239">
        <ele>27.64</ele>
        <time>2013-07-14T08:44:24Z</time>
      </trkpt>
      <trkpt lat="47.61531" lon="-2.2727">
        <ele>28.12</ele>
        <time>2013-07-14T08:44:29Z</time>
      </trkpt>
      <trkpt lat="47.61537" lon="-2.27296">
        <ele>28.41</ele>
        <time>2013-07-14T08:44:33Z</time>
      </trkpt>
      <trkpt lat="47.61546" lon="-2.2732">
        <ele>28.47</ele>
        <time>2013-07-14T08:44:37Z</time>
      </trkpt>
      <trkpt lat="47.61554" lon="-2.27345">
        <ele>28.62</ele>
        <time>2013-07-14T08:44:42Z</time>
      </trkpt>
      <trkpt lat="47.61565" lon="-2.2737">
        <ele>29.57</ele>
        <time>2013-07-14T08:44:47Z</time>
      </trkpt>
      <trkpt lat="47.61576" lon="-2.27392">
        <ele>30.71</ele>
        <time>2013-07-14T08:44:51Z</time>
      </trkpt>
      <trkpt lat="47.61589" lon="-2.27419">
        <ele>31.5</ele>
        <time>2013-07-14T08:44:56Z</time>
      </trkpt>
      <trkpt lat="47.61603" lon="-2.27442">
        <ele>31.79</ele>
        <time>2013-07-14T08:45:01Z</time>
      </trkpt>
      <trkpt lat="47.61617" lon="-2.27462">
        <ele>31.69</ele>
        <time>2013-07-14T08:45:05Z</time>
      </trkpt>
      <trkpt lat="47.61633" lon="-2.27487">
        <ele>31.3</ele>
        <time>2013-07-14T08:45:09Z</time>
      </trkpt>
      <trkpt lat="47.61647" lon="-2.27512">
        <ele>30.18</ele>
        <time>2013-07-14T08:45:12Z</time>
      </trkpt>
      <trkpt lat="47.61663" lon="-2.27539">
        <ele>28.31</ele>
        <time>2013-07-14T08:45:15Z</time>
      </trkpt>
      <trkpt lat="47.6168" lon="-2.27566">
        <ele>26.15</ele>
        <time>2013-07-14T08:45:18Z</time>
      </trkpt>
      <trkpt lat="47.61692" lon="-2.27586">
        <ele>24.59</ele>
        <time>2013-07-14T08:45:20Z</time>
      </trkpt>
      <trkpt lat="47.61703" lon="-2.2761">
        <ele>22.79</ele>
        <time>2013-07-14T08:45:22Z</time>
      </trkpt>
      <trkpt lat="47.6171" lon="-2.27636">
        <ele>20.86</ele>
        <time>2013-07-14T08:45:24Z</time>
      </trkpt>
      <trkpt lat="47.61716" lon="-2.27662">
        <ele>18.93</ele>
        <time>2013-07-14T08:45:26Z</time>
      </trkpt>
      <trkpt lat="47.61725" lon="-2.27695">
        <ele>15.92</ele>
        <time>2013-07-14T08:45:29Z</time>
      </trkpt>
      <trkpt lat="47.61732" lon="-2.27725">
        <ele>12.15</ele>
        <time>2013-07-14T08:45:33Z</time>
      </trkpt>
      <trkpt lat="47.61724" lon="-2.2775">
        <ele>9.89</ele>
        <time>2013-07-14T08:45:37Z</time>
      </trkpt>
      <trkpt lat="47.61707" lon="-2.27772">
        <ele>9.47</ele>
        <time>2013-07-14T08:45:41Z</time>
      </trkpt>
      <trkpt lat="47.61689" lon="-2.27795">
        <ele>9.4</ele>
        <time>2013-07-14T08:45:45Z</time>
      </trkpt>
      <trkpt lat="47.61675" lon="-2.27814">
        <ele>9.63</ele>
        <time>2013-07-14T08:45:48Z</time>
      </trkpt>
      <trkpt lat="47.61659" lon="-2.27831">
        <ele>9.74</ele>
        <time>2013-07-14T08:45:51Z</time>
      </trkpt>
      <trkpt lat="47.61645" lon="-2.27848">
        <ele>9.87</ele>
        <time>2013-07-14T08:45:54Z</time>
      </trkpt>
      <trkpt lat="47.61627" lon="-2.27869">
        <ele>10.54</ele>
        <time>2013-07-14T08:45:58Z</time>
      </trkpt>
      <trkpt lat="47.61609" lon="-2.27889">
        <ele>11.16</ele>
        <time>2013-07-14T08:46:02Z</time>
      </trkpt>
      <trkpt lat="47.61589" lon="-2.27906">
        <ele>12.05</ele>
        <time>2013-07-14T08:46:06Z</time>
      </trkpt>
      <trkpt lat="47.61572" lon="-2.27919">
        <ele>12.58</ele>
        <time>2013-07-14T08:46:09Z</time>
      </trkpt>
      <trkpt lat="47.61551" lon="-2.27935">
        <ele>12.95</ele>
        <time>2013-07-14T08:46:13Z</time>
      </trkpt>
      <trkpt lat="47.61532" lon="-2.27948">
        <ele>12.74</ele>
        <time>2013-07-14T08:46:17Z</time>
      </trkpt>
      <trkpt lat="47.61515" lon="-2.27959">
        <ele>12.06</ele>
        <time>2013-07-14T08:46:21Z</time>
      </trkpt>
      <trkpt lat="47.61498" lon="-2.27969">
        <ele>11.45</ele>
        <time>2013-07-14T08:46:25Z</time>
      </trkpt>
      <trkpt lat="47.61477" lon="-2.27981">
        <ele>12.12</ele>
        <time>2013-07-14T08:46:30Z</time>
      </trkpt>
      <trkpt lat="47.61458" lon="-2.27987">
        <ele>12.81</ele>
        <time>2013-07-14T08:46:35Z</time>
      </trkpt>
      <trkpt lat="47.61437" lon="-2.2799">
        <ele>12.94</ele>
        <time>2013-07-14T08:46:38Z</time>
      </trkpt>
      <trkpt lat="47.61416" lon="-2.27994">
        <ele>12.54</ele>
        <time>2013-07-14T08:46:41Z</time>
      </trkpt>
      <trkpt lat="47.61392" lon="-2.27998">
        <ele>12.4</ele>
        <time>2013-07-14T08:46:45Z</time>
      </trkpt>
      <trkpt lat="47.61374" lon="-2.28002">
        <ele>12.39</ele>
        <time>2013-07-14T08:46:48Z</time>
      </trkpt>
      <trkpt lat="47.61353" lon="-2.28004">
        <ele>12.65</ele>
        <time>2013-07-14T08:46:52Z</time>
      </trkpt>
      <trkpt lat="47.61334" lon="-2.28003">
        <ele>13.39</ele>
        <time>2013-07-14T08:46:56Z</time>
      </trkpt>
      <trkpt lat="47.61314" lon="-2.28004">
        <ele>14.15</ele>
        <time>2013-07-14T08:47:02Z</time>
      </trkpt>
      <trkpt lat="47.61296" lon="-2.28014">
        <ele>14.11</ele>
        <time>2013-07-14T08:47:08Z</time>
      </trkpt>
      <trkpt lat="47.61277" lon="-2.28023">
        <ele>14.58</ele>
        <time>2013-07-14T08:47:13Z</time>
      </trkpt>
      <trkpt lat="47.61258" lon="-2.28027">
        <ele>15.02</ele>
        <time>2013-07-14T08:47:18Z</time>
      </trkpt>
      <trkpt lat="47.6124" lon="-2.28034">
        <ele>16.19</ele>
        <time>2013-07-14T08:47:24Z</time>
      </trkpt>
      <trkpt lat="47.61221" lon="-2.28038">
        <ele>16.08</ele>
        <time>2013-07-14T08:47:28Z</time>
      </trkpt>
      <trkpt lat="47.61197" lon="-2.28039">
        <ele>15.12</ele>
        <time>2013-07-14T08:47:32Z</time>
      </trkpt>
      <trkpt lat="47.61177" lon="-2.28041">
        <ele>13.84</ele>
        <time>2013-07-14T08:47:35Z</time>
      </trkpt>
      <trkpt lat="47.61156" lon="-2.28048">
        <ele>12.53</ele>
        <time>2013-07-14T08:47:38Z</time>
      </trkpt>
      <trkpt lat="47.61135" lon="-2.28048">
        <ele>11.39</ele>
        <time>2013-07-14T08:47:41Z</time>
      </trkpt>
      <trkpt lat="47.61116" lon="-2.28041">
        <ele>10.34</ele>
        <time>2013-07-14T08:47:44Z</time>
      </trkpt>
      <trkpt lat="47.61099" lon="-2.2803">
        <ele>9.58</ele>
        <time>2013-07-14T08:47:47Z</time>
      </trkpt>
      <trkpt lat="47.61081" lon="-2.28019">
        <ele>8.95</ele>
        <time>2013-07-14T08:47:50Z</time>
      </trkpt>
      <trkpt lat="47.61063" lon="-2.28009">
        <ele>8.38</ele>
        <time>2013-07-14T08:47:53Z</time>
      </trkpt>
      <trkpt lat="47.61045" lon="-2.28001">
        <ele>7.95</ele>
        <time>2013-07-14T08:47:56Z</time>
      </trkpt>
      <trkpt lat="47.61028" lon="-2.27993">
        <ele>7.64</ele>
        <time>2013-07-14T08:47:59Z</time>
      </trkpt>
      <trkpt lat="47.6101" lon="-2.27986">
        <ele>7.39</ele>
        <time>2013-07-14T08:48:02Z</time>
      </trkpt>
      <trkpt lat="47.60992" lon="-2.27989">
        <ele>7.3</ele>
        <time>2013-07-14T08:48:05Z</time>
      </trkpt>
      <trkpt lat="47.60969" lon="-2.27998">
        <ele>7.42</ele>
        <time>2013-07-14T08:48:09Z</time>
      </trkpt>
      <trkpt lat="47.60947" lon="-2.28009">
        <ele>7.67</ele>
        <time>2013-07-14T08:48:13Z</time>
      </trkpt>
      <trkpt lat="47.6093" lon="-2.28019">
        <ele>7.93</ele>
        <time>2013-07-14T08:48:16Z</time>
      </trkpt>
      <trkpt lat="47.60913" lon="-2.28031">
        <ele>8.44</ele>
        <time>2013-07-14T08:48:19Z</time>
      </trkpt>
      <trkpt lat="47.60897" lon="-2.28046">
        <ele>9.39</ele>
        <time>2013-07-14T08:48:22Z</time>
      </trkpt>
      <trkpt lat="47.60876" lon="-2.28055">
        <ele>10.59</ele>
        <time>2013-07-14T08:48:26Z</time>
      </trkpt>
      <trkpt lat="47.60857" lon="-2.28059">
        <ele>10.4</ele>
        <time>2013-07-14T08:48:29Z</time>
      </trkpt>
      <trkpt lat="47.60836" lon="-2.28066">
        <ele>10.19</ele>
        <time>2013-07-14T08:48:33Z</time>
      </trkpt>
      <trkpt lat="47.60817" lon="-2.28073">
        <ele>10.53</ele>
        <time>2013-07-14T08:48:37Z</time>
      </trkpt>
      <trkpt lat="47.60797" lon="-2.28077">
        <ele>12.01</ele>
        <time>2013-07-14T08:48:44Z</time>
      </trkpt>
      <trkpt lat="47.60801" lon="-2.28032">
        <ele>16.71</ele>
        <time>2013-07-14T08:49:06Z</time>
      </trkpt>
      <trkpt lat="47.60814" lon="-2.28013">
        <ele>20.88</ele>
        <time>2013-07-14T08:49:18Z</time>
      </trkpt>
      <trkpt lat="47.60836" lon="-2.27981">
        <ele>22.33</ele>
        <time>2013-07-14T08:49:44Z</time>
      </trkpt>
      <trkpt lat="47.60851" lon="-2.27965">
        <ele>25.14</ele>
        <time>2013-07-14T08:50:00Z</time>
      </trkpt>
      <trkpt lat="47.60857" lon="-2.27938">
        <ele>26.34</ele>
        <time>2013-07-14T08:50:09Z</time>
      </trkpt>
      <trkpt lat="47.60858" lon="-2.2791">
        <ele>27.14</ele>
        <time>2013-07-14T08:50:16Z</time>
      </trkpt>
      <trkpt lat="47.6086" lon="-2.27879">
        <ele>27.28</ele>
        <time>2013-07-14T08:50:22Z</time>
      </trkpt>
      <trkpt lat="47.60862" lon="-2.27852">
        <ele>27.26</ele>
        <time>2013-07-14T08:50:27Z</time>
      </trkpt>
      <trkpt lat="47.60864" lon="-2.27823">
        <ele>27.33</ele>
        <time>2013-07-14T08:50:32Z</time>
      </trkpt>
      <trkpt lat="47.60866" lon="-2.27792">
        <ele>27.48</ele>
        <time>2013-07-14T08:50:37Z</time>
      </trkpt>
      <trkpt lat="47.6087" lon="-2.27761">
        <ele>27.39</ele>
        <time>2013-07-14T08:50:43Z</time>
      </trkpt>
      <trkpt lat="47.60875" lon="-2.27734">
        <ele>27.18</ele>
        <time>2013-07-14T08:50:47Z</time>
      </trkpt>
      <trkpt lat="47.60882" lon="-2.27706">
        <ele>26.98</ele>
        <time>2013-07-14T08:50:51Z</time>
      </trkpt>
      <trkpt lat="47.6089" lon="-2.27677">
        <ele>26.66</ele>
        <time>2013-07-14T08:50:55Z</time>
      </trkpt>
      <trkpt lat="47.60898" lon="-2.27648">
        <ele>26.23</ele>
        <time>2013-07-14T08:50:59Z</time>
      </trkpt>
      <trkpt lat="47.60904" lon="-2.27623">
        <ele>25.91</ele>
        <time>2013-07-14T08:51:03Z</time>
      </trkpt>
      <trkpt lat="47.60911" lon="-2.27595">
        <ele>25.82</ele>
        <time>2013-07-14T08:51:08Z</time>
      </trkpt>
      <trkpt lat="47.60917" lon="-2.27566">
        <ele>25.61</ele>
        <time>2013-07-14T08:51:14Z</time>
      </trkpt>
      <trkpt lat="47.609" lon="-2.27541">
        <ele>25.06</ele>
        <time>2013-07-14T08:51:19Z</time>
      </trkpt>
      <trkpt lat="47.60882" lon="-2.27526">
        <ele>24.32</ele>
        <time>2013-07-14T08:51:22Z</time>
      </trkpt>
      <trkpt lat="47.60863" lon="-2.27507">
        <ele>23.22</ele>
        <time>2013-07-14T08:51:25Z</time>
      </trkpt>
      <trkpt lat="47.60843" lon="-2.27484">
        <ele>21.73</ele>
        <time>2013-07-14T08:51:28Z</time>
      </trkpt>
      <trkpt lat="47.60825" lon="-2.27455">
        <ele>20.02</ele>
        <time>2013-07-14T08:51:31Z</time>
      </trkpt>
      <trkpt lat="47.60811" lon="-2.27435">
        <ele>18.54</ele>
        <time>2013-07-14T08:51:33Z</time>
      </trkpt>
      <trkpt lat="47.60795" lon="-2.27418">
        <ele>17</ele>
        <time>2013-07-14T08:51:35Z</time>
      </trkpt>
      <trkpt lat="47.60775" lon="-2.27406">
        <ele>15.33</ele>
        <time>2013-07-14T08:51:37Z</time>
      </trkpt>
      <trkpt lat="47.60753" lon="-2.27402">
        <ele>13.73</ele>
        <time>2013-07-14T08:51:39Z</time>
      </trkpt>
      <trkpt lat="47.60731" lon="-2.27411">
        <ele>12.39</ele>
        <time>2013-07-14T08:51:41Z</time>
      </trkpt>
      <trkpt lat="47.60712" lon="-2.27426">
        <ele>11.17</ele>
        <time>2013-07-14T08:51:43Z</time>
      </trkpt>
      <trkpt lat="47.6069" lon="-2.27433">
        <ele>9.95</ele>
        <time>2013-07-14T08:51:45Z</time>
      </trkpt>
      <trkpt lat="47.60669" lon="-2.27425">
        <ele>9.13</ele>
        <time>2013-07-14T08:51:47Z</time>
      </trkpt>
      <trkpt lat="47.60653" lon="-2.27407">
        <ele>8.86</ele>
        <time>2013-07-14T08:51:49Z</time>
      </trkpt>
      <trkpt lat="47.60629" lon="-2.27406">
        <ele>7.77</ele>
        <time>2013-07-14T08:51:52Z</time>
      </trkpt>
      <trkpt lat="47.60605" lon="-2.27421">
        <ele>6.76</ele>
        <time>2013-07-14T08:51:55Z</time>
      </trkpt>
      <trkpt lat="47.60587" lon="-2.27438">
        <ele>6.16</ele>
        <time>2013-07-14T08:51:58Z</time>
      </trkpt>
      <trkpt lat="47.6057" lon="-2.27445">
        <ele>6.87</ele>
        <time>2013-07-14T08:52:02Z</time>
      </trkpt>
      <trkpt lat="47.60559" lon="-2.27417">
        <ele>9.61</ele>
        <time>2013-07-14T08:52:07Z</time>
      </trkpt>
      <trkpt lat="47.60558" lon="-2.27387">
        <ele>13.66</ele>
        <time>2013-07-14T08:52:13Z</time>
      </trkpt>
      <trkpt lat="47.60555" lon="-2.2736">
        <ele>16.49</ele>
        <time>2013-07-14T08:52:19Z</time>
      </trkpt>
      <trkpt lat="47.60551" lon="-2.27327">
        <ele>18.75</ele>
        <time>2013-07-14T08:52:30Z</time>
      </trkpt>
      <trkpt lat="47.60562" lon="-2.27299">
        <ele>20.62</ele>
        <time>2013-07-14T08:52:40Z</time>
      </trkpt>
      <trkpt lat="47.60578" lon="-2.27284">
        <ele>21.08</ele>
        <time>2013-07-14T08:52:43Z</time>
      </trkpt>
      <trkpt lat="47.60591" lon="-2.27264">
        <ele>21.36</ele>
        <time>2013-07-14T08:52:46Z</time>
      </trkpt>
      <trkpt lat="47.6059" lon="-2.27237">
        <ele>21.14</ele>
        <time>2013-07-14T08:52:54Z</time>
      </trkpt>
      <trkpt lat="47.60582" lon="-2.2721">
        <ele>21.85</ele>
        <time>2013-07-14T08:53:06Z</time>
      </trkpt>
      <trkpt lat="47.60565" lon="-2.27197">
        <ele>22.13</ele>
        <time>2013-07-14T08:53:13Z</time>
      </trkpt>
      <trkpt lat="47.60547" lon="-2.27195">
        <ele>23.01</ele>
        <time>2013-07-14T08:53:18Z</time>
      </trkpt>
      <trkpt lat="47.6053" lon="-2.27182">
        <ele>23.19</ele>
        <time>2013-07-14T08:53:24Z</time>
      </trkpt>
      <trkpt lat="47.60512" lon="-2.27171">
        <ele>25.88</ele>
        <time>2013-07-14T08:53:29Z</time>
      </trkpt>
      <trkpt lat="47.60494" lon="-2.27163">
        <ele>26.67</ele>
        <time>2013-07-14T08:53:33Z</time>
      </trkpt>
      <trkpt lat="47.60477" lon="-2.27152">
        <ele>26.96</ele>
        <time>2013-07-14T08:53:37Z</time>
      </trkpt>
      <trkpt lat="47.60464" lon="-2.27131">
        <ele>27.56</ele>
        <time>2013-07-14T08:53:43Z</time>
      </trkpt>
      <trkpt lat="47.60467" lon="-2.27103">
        <ele>27.53</ele>
        <time>2013-07-14T08:53:46Z</time>
      </trkpt>
      <trkpt lat="47.60474" lon="-2.27074">
        <ele>26.17</ele>
        <time>2013-07-14T08:53:49Z</time>
      </trkpt>
      <trkpt lat="47.60483" lon="-2.27042">
        <ele>23.53</ele>
        <time>2013-07-14T08:53:52Z</time>
      </trkpt>
      <trkpt lat="47.60492" lon="-2.27015">
        <ele>21.79</ele>
        <time>2013-07-14T08:53:55Z</time>
      </trkpt>
      <trkpt lat="47.60498" lon="-2.2699">
        <ele>20.14</ele>
        <time>2013-07-14T08:53:58Z</time>
      </trkpt>
      <trkpt lat="47.60479" lon="-2.26977">
        <ele>18.14</ele>
        <time>2013-07-14T08:54:05Z</time>
      </trkpt>
      <trkpt lat="47.60459" lon="-2.26982">
        <ele>18.19</ele>
        <time>2013-07-14T08:54:09Z</time>
      </trkpt>
      <trkpt lat="47.60439" lon="-2.26988">
        <ele>18.35</ele>
        <time>2013-07-14T08:54:12Z</time>
      </trkpt>
      <trkpt lat="47.60417" lon="-2.26991">
        <ele>19.35</ele>
        <time>2013-07-14T08:54:16Z</time>
      </trkpt>
      <trkpt lat="47.60398" lon="-2.26984">
        <ele>20.87</ele>
        <time>2013-07-14T08:54:21Z</time>
      </trkpt>
      <trkpt lat="47.60384" lon="-2.27003">
        <ele>21.12</ele>
        <time>2013-07-14T08:54:26Z</time>
      </trkpt>
      <trkpt lat="47.60365" lon="-2.27018">
        <ele>22.64</ele>
        <time>2013-07-14T08:54:31Z</time>
      </trkpt>
      <trkpt lat="47.60346" lon="-2.27024">
        <ele>23.47</ele>
        <time>2013-07-14T08:54:36Z</time>
      </trkpt>
      <trkpt lat="47.60325" lon="-2.27028">
        <ele>23.48</ele>
        <time>2013-07-14T08:54:40Z</time>
      </trkpt>
      <trkpt lat="47.60303" lon="-2.2703">
        <ele>23.28</ele>
        <time>2013-07-14T08:54:45Z</time>
      </trkpt>
      <trkpt lat="47.60284" lon="-2.27029">
        <ele>23.48</ele>
        <time>2013-07-14T08:54:49Z</time>
      </trkpt>
      <trkpt lat="47.60262" lon="-2.27028">
        <ele>23.57</ele>
        <time>2013-07-14T08:54:55Z</time>
      </trkpt>
      <trkpt lat="47.60244" lon="-2.27027">
        <ele>24.67</ele>
        <time>2013-07-14T08:55:01Z</time>
      </trkpt>
      <trkpt lat="47.60225" lon="-2.27029">
        <ele>26.18</ele>
        <time>2013-07-14T08:55:07Z</time>
      </trkpt>
      <trkpt lat="47.60206" lon="-2.27026">
        <ele>27.29</ele>
        <time>2013-07-14T08:55:14Z</time>
      </trkpt>
      <trkpt lat="47.60185" lon="-2.27026">
        <ele>28.15</ele>
        <time>2013-07-14T08:55:22Z</time>
      </trkpt>
      <trkpt lat="47.60165" lon="-2.27022">
        <ele>27.45</ele>
        <time>2013-07-14T08:55:28Z</time>
      </trkpt>
      <trkpt lat="47.60124" lon="-2.27006">
        <ele>27.13</ele>
        <time>2013-07-14T08:56:07Z</time>
      </trkpt>
      <trkpt lat="47.60083" lon="-2.26999">
        <ele>28.43</ele>
        <time>2013-07-14T08:56:42Z</time>
      </trkpt>
      <trkpt lat="47.60045" lon="-2.26995">
        <ele>30.78</ele>
        <time>2013-07-14T08:57:12Z</time>
      </trkpt>
      <trkpt lat="47.60026" lon="-2.26987">
        <ele>34.15</ele>
        <time>2013-07-14T08:57:19Z</time>
      </trkpt>
      <trkpt lat="47.60009" lon="-2.26977">
        <ele>35.46</ele>
        <time>2013-07-14T08:57:25Z</time>
      </trkpt>
      <trkpt lat="47.59992" lon="-2.26967">
        <ele>37.24</ele>
        <time>2013-07-14T08:57:33Z</time>
      </trkpt>
      <trkpt lat="47.59993" lon="-2.27">
        <ele>38.8</ele>
        <time>2013-07-14T08:57:41Z</time>
      </trkpt>
      <trkpt lat="47.59996" lon="-2.27029">
        <ele>39.03</ele>
        <time>2013-07-14T08:57:44Z</time>
      </trkpt>
      <trkpt lat="47.59997" lon="-2.2706">
        <ele>38.48</ele>
        <time>2013-07-14T08:57:47Z</time>
      </trkpt>
      <trkpt lat="47.6" lon="-2.27092">
        <ele>37.58</ele>
        <time>2013-07-14T08:57:50Z</time>
      </trkpt>
      <trkpt lat="47.60003" lon="-2.27127">
        <ele>36.66</ele>
        <time>2013-07-14T08:57:53Z</time>
      </trkpt>
      <trkpt lat="47.60005" lon="-2.27163">
        <ele>35.99</ele>
        <time>2013-07-14T08:57:56Z</time>
      </trkpt>
      <trkpt lat="47.60006" lon="-2.27197">
        <ele>36.05</ele>
        <time>2013-07-14T08:57:59Z</time>
      </trkpt>
      <trkpt lat="47.60008" lon="-2.27228">
        <ele>36.74</ele>
        <time>2013-07-14T08:58:02Z</time>
      </trkpt>
      <trkpt lat="47.60009" lon="-2.27259">
        <ele>38.45</ele>
        <time>2013-07-14T08:58:06Z</time>
      </trkpt>
      <trkpt lat="47.60008" lon="-2.27286">
        <ele>40.84</ele>
        <time>2013-07-14T08:58:38Z</time>
      </trkpt>
      <trkpt lat="47.6001" lon="-2.27313">
        <ele>40.29</ele>
        <time>2013-07-14T08:58:46Z</time>
      </trkpt>
      <trkpt lat="47.60013" lon="-2.2734">
        <ele>41.99</ele>
        <time>2013-07-14T08:58:54Z</time>
      </trkpt>
      <trkpt lat="47.60013" lon="-2.27369">
        <ele>43.18</ele>
        <time>2013-07-14T08:59:02Z</time>
      </trkpt>
      <trkpt lat="47.60016" lon="-2.27397">
        <ele>45.01</ele>
        <time>2013-07-14T08:59:09Z</time>
      </trkpt>
      <trkpt lat="47.60005" lon="-2.2742">
        <ele>45.98</ele>
        <time>2013-07-14T08:59:17Z</time>
      </trkpt>
      <trkpt lat="47.59987" lon="-2.27422">
        <ele>46.63</ele>
        <time>2013-07-14T08:59:25Z</time>
      </trkpt>
      <trkpt lat="47.59967" lon="-2.27425">
        <ele>47.56</ele>
        <time>2013-07-14T08:59:32Z</time>
      </trkpt>
      <trkpt lat="47.59947" lon="-2.27425">
        <ele>48.08</ele>
        <time>2013-07-14T08:59:40Z</time>
      </trkpt>
      <trkpt lat="47.59929" lon="-2.27425">
        <ele>48.19</ele>
        <time>2013-07-14T08:59:47Z</time>
      </trkpt>
      <trkpt lat="47.59909" lon="-2.27426">
        <ele>48.89</ele>
        <time>2013-07-14T08:59:54Z</time>
      </trkpt>
      <trkpt lat="47.5989" lon="-2.27426">
        <ele>49.85</ele>
        <time>2013-07-14T09:00:02Z</time>
      </trkpt>
      <trkpt lat="47.59869" lon="-2.27424">
        <ele>50.17</ele>
        <time>2013-07-14T09:00:10Z</time>
      </trkpt>
      <trkpt lat="47.59851" lon="-2.2742">
        <ele>51.48</ele>
        <time>2013-07-14T09:00:19Z</time>
      </trkpt>
      <trkpt lat="47.59844" lon="-2.27389">
        <ele>54.1</ele>
        <time>2013-07-14T09:00:27Z</time>
      </trkpt>
      <trkpt lat="47.5984" lon="-2.27354">
        <ele>55.09</ele>
        <time>2013-07-14T09:00:31Z</time>
      </trkpt>
      <trkpt lat="47.59835" lon="-2.27321">
        <ele>55.53</ele>
        <time>2013-07-14T09:00:34Z</time>
      </trkpt>
      <trkpt lat="47.5983" lon="-2.27287">
        <ele>56.33</ele>
        <time>2013-07-14T09:00:37Z</time>
      </trkpt>
      <trkpt lat="47.59826" lon="-2.27252">
        <ele>57.23</ele>
        <time>2013-07-14T09:00:40Z</time>
      </trkpt>
      <trkpt lat="47.59825" lon="-2.27213">
        <ele>57.51</ele>
        <time>2013-07-14T09:00:43Z</time>
      </trkpt>
      <trkpt lat="47.59825" lon="-2.27181">
        <ele>57</ele>
        <time>2013-07-14T09:00:45Z</time>
      </trkpt>
      <trkpt lat="47.5982" lon="-2.27149">
        <ele>55.84</ele>
        <time>2013-07-14T09:00:49Z</time>
      </trkpt>
      <trkpt lat="47.59818" lon="-2.27119">
        <ele>54.6</ele>
        <time>2013-07-14T09:00:54Z</time>
      </trkpt>
      <trkpt lat="47.59816" lon="-2.27091">
        <ele>54.19</ele>
        <time>2013-07-14T09:00:59Z</time>
      </trkpt>
      <trkpt lat="47.59812" lon="-2.27062">
        <ele>55.42</ele>
        <time>2013-07-14T09:01:06Z</time>
      </trkpt>
      <trkpt lat="47.59813" lon="-2.27034">
        <ele>57.32</ele>
        <time>2013-07-14T09:01:17Z</time>
      </trkpt>
      <trkpt lat="47.59804" lon="-2.26999">
        <ele>59.02</ele>
        <time>2013-07-14T09:01:44Z</time>
      </trkpt>
      <trkpt lat="47.59801" lon="-2.26939">
        <ele>63.73</ele>
        <time>2013-07-14T09:02:14Z</time>
      </trkpt>
      <trkpt lat="47.59796" lon="-2.26881">
        <ele>65.38</ele>
        <time>2013-07-14T09:02:45Z</time>
      </trkpt>
      <trkpt lat="47.59788" lon="-2.26855">
        <ele>68.75</ele>
        <time>2013-07-14T09:03:06Z</time>
      </trkpt>
      <trkpt lat="47.59779" lon="-2.2683">
        <ele>71.95</ele>
        <time>2013-07-14T09:03:17Z</time>
      </trkpt>
      <trkpt lat="47.59763" lon="-2.26816">
        <ele>71.94</ele>
        <time>2013-07-14T09:03:28Z</time>
      </trkpt>
      <trkpt lat="47.59762" lon="-2.26786">
        <ele>71.85</ele>
        <time>2013-07-14T09:03:40Z</time>
      </trkpt>
      <trkpt lat="47.59779" lon="-2.26765">
        <ele>70.43</ele>
        <time>2013-07-14T09:03:44Z</time>
      </trkpt>
      <trkpt lat="47.598" lon="-2.26741">
        <ele>69.27</ele>
        <time>2013-07-14T09:03:47Z</time>
      </trkpt>
      <trkpt lat="47.59817" lon="-2.26718">
        <ele>68.34</ele>
        <time>2013-07-14T09:03:50Z</time>
      </trkpt>
      <trkpt lat="47.59837" lon="-2.26703">
        <ele>67.49</ele>
        <time>2013-07-14T09:03:53Z</time>
      </trkpt>
      <trkpt lat="47.59853" lon="-2.26687">
        <ele>66.42</ele>
        <time>2013-07-14T09:03:57Z</time>
      </trkpt>
      <trkpt lat="47.59835" lon="-2.26676">
        <ele>70.52</ele>
        <time>2013-07-14T09:04:26Z</time>
      </trkpt>
      <trkpt lat="47.59802" lon="-2.26667">
        <ele>71.97</ele>
        <time>2013-07-14T09:04:45Z</time>
      </trkpt>
      <trkpt lat="47.59793" lon="-2.26642">
        <ele>71.09</ele>
        <time>2013-07-14T09:04:58Z</time>
      </trkpt>
      <trkpt lat="47.59771" lon="-2.26657">
        <ele>71.05</ele>
        <time>2013-07-14T09:05:44Z</time>
      </trkpt>
      <trkpt lat="47.59767" lon="-2.26686">
        <ele>72.7</ele>
        <time>2013-07-14T09:05:57Z</time>
      </trkpt>
      <trkpt lat="47.5975" lon="-2.26699">
        <ele>72.6</ele>
        <time>2013-07-14T09:06:04Z</time>
      </trkpt>
      <trkpt lat="47.59732" lon="-2.26688">
        <ele>72.28</ele>
        <time>2013-07-14T09:06:12Z</time>
      </trkpt>
      <trkpt lat="47.59719" lon="-2.26666">
        <ele>73.33</ele>
        <time>2013-07-14T09:06:25Z</time>
      </trkpt>
      <trkpt lat="47.59707" lon="-2.26645">
        <ele>73.69</ele>
        <time>2013-07-14T09:06:31Z</time>
      </trkpt>
      <trkpt lat="47.59693" lon="-2.26629">
        <ele>74.04</ele>
        <time>2013-07-14T09:06:36Z</time>
      </trkpt>
      <trkpt lat="47.59676" lon="-2.26619">
        <ele>72.48</ele>
        <time>2013-07-14T09:06:45Z</time>
      </trkpt>
      <trkpt lat="47.59662" lon="-2.26602">
        <ele>73.49</ele>
        <time>2013-07-14T09:06:53Z</time>
      </trkpt>
      <trkpt lat="47.59667" lon="-2.26576">
        <ele>74.99</ele>
        <time>2013-07-14T09:07:00Z</time>
      </trkpt>
      <trkpt lat="47.59673" lon="-2.26544">
        <ele>76.49</ele>
        <time>2013-07-14T09:07:06Z</time>
      </trkpt>
      <trkpt lat="47.59679" lon="-2.26517">
        <ele>76.39</ele>
        <time>2013-07-14T09:07:11Z</time>
      </trkpt>
      <trkpt lat="47.59685" lon="-2.26492">
        <ele>77.98</ele>
        <time>2013-07-14T09:07:17Z</time>
      </trkpt>
      <trkpt lat="47.59692" lon="-2.26466">
        <ele>79.97</ele>
        <time>2013-07-14T09:07:23Z</time>
      </trkpt>
      <trkpt lat="47.597" lon="-2.26442">
        <ele>80.45</ele>
        <time>2013-07-14T09:07:30Z</time>
      </trkpt>
      <trkpt lat="47.59682" lon="-2.26437">
        <ele>80.72</ele>
        <time>2013-07-14T09:07:44Z</time>
      </trkpt>
      <trkpt lat="47.59664" lon="-2.26432">
        <ele>81.36</ele>
        <time>2013-07-14T09:07:50Z</time>
      </trkpt>
      <trkpt lat="47.59641" lon="-2.26435">
        <ele>82.84</ele>
        <time>2013-07-14T09:08:08Z</time>
      </trkpt>
      <trkpt lat="47.59625" lon="-2.26421">
        <ele>82.98</ele>
        <time>2013-07-14T09:08:15Z</time>
      </trkpt>
      <trkpt lat="47.59612" lon="-2.26374">
        <ele>84.73</ele>
        <time>2013-07-14T09:08:53Z</time>
      </trkpt>
      <trkpt lat="47.5962" lon="-2.26343">
        <ele>85.25</ele>
        <time>2013-07-14T09:09:08Z</time>
      </trkpt>
      <trkpt lat="47.59625" lon="-2.26314">
        <ele>86.5</ele>
        <time>2013-07-14T09:09:16Z</time>
      </trkpt>
      <trkpt lat="47.59626" lon="-2.26285">
        <ele>89.3</ele>
        <time>2013-07-14T09:09:23Z</time>
      </trkpt>
      <trkpt lat="47.59626" lon="-2.26256">
        <ele>92.08</ele>
        <time>2013-07-14T09:09:30Z</time>
      </trkpt>
      <trkpt lat="47.59639" lon="-2.26222">
        <ele>89.77</ele>
        <time>2013-07-14T09:09:39Z</time>
      </trkpt>
      <trkpt lat="47.59654" lon="-2.26207">
        <ele>88.28</ele>
        <time>2013-07-14T09:09:44Z</time>
      </trkpt>
      <trkpt lat="47.59682" lon="-2.26214">
        <ele>85.8</ele>
        <time>2013-07-14T09:10:12Z</time>
      </trkpt>
      <trkpt lat="47.59682" lon="-2.26241">
        <ele>83.65</ele>
        <time>2013-07-14T09:10:19Z</time>
      </trkpt>
      <trkpt lat="47.59687" lon="-2.26277">
        <ele>90.45</ele>
        <time>2013-07-14T09:11:49Z</time>
      </trkpt>
      <trkpt lat="47.59705" lon="-2.26289">
        <ele>92.59</ele>
        <time>2013-07-14T09:12:06Z</time>
      </trkpt>
      <trkpt lat="47.5971" lon="-2.26317">
        <ele>92.19</ele>
        <time>2013-07-14T09:12:28Z</time>
      </trkpt>
      <trkpt lat="47.59725" lon="-2.26302">
        <ele>87.82</ele>
        <time>2013-07-14T09:12:39Z</time>
      </trkpt>
      <trkpt lat="47.59738" lon="-2.26275">
        <ele>85.21</ele>
        <time>2013-07-14T09:12:47Z</time>
      </trkpt>
      <trkpt lat="47.59743" lon="-2.26244">
        <ele>84.41</ele>
        <time>2013-07-14T09:12:51Z</time>
      </trkpt>
      <trkpt lat="47.59746" lon="-2.26214">
        <ele>83.77</ele>
        <time>2013-07-14T09:12:54Z</time>
      </trkpt>
      <trkpt lat="47.59754" lon="-2.26182">
        <ele>82.61</ele>
        <time>2013-07-14T09:12:57Z</time>
      </trkpt>
      <trkpt lat="47.59764" lon="-2.26156">
        <ele>81.68</ele>
        <time>2013-07-14T09:12:59Z</time>
      </trkpt>
      <trkpt lat="47.59772" lon="-2.2613">
        <ele>79.67</ele>
        <time>2013-07-14T09:13:02Z</time>
      </trkpt>
      <trkpt lat="47.59785" lon="-2.26105">
        <ele>78.06</ele>
        <time>2013-07-14T09:13:05Z</time>
      </trkpt>
      <trkpt lat="47.598" lon="-2.2607">
        <ele>77.05</ele>
        <time>2013-07-14T09:13:08Z</time>
      </trkpt>
      <trkpt lat="47.59817" lon="-2.26053">
        <ele>74.52</ele>
        <time>2013-07-14T09:13:10Z</time>
      </trkpt>
      <trkpt lat="47.5984" lon="-2.26044">
        <ele>71.58</ele>
        <time>2013-07-14T09:13:13Z</time>
      </trkpt>
      <trkpt lat="47.59858" lon="-2.26033">
        <ele>70.19</ele>
        <time>2013-07-14T09:13:15Z</time>
      </trkpt>
      <trkpt lat="47.59876" lon="-2.26028">
        <ele>69.13</ele>
        <time>2013-07-14T09:13:17Z</time>
      </trkpt>
      <trkpt lat="47.59899" lon="-2.26021">
        <ele>67.82</ele>
        <time>2013-07-14T09:13:20Z</time>
      </trkpt>
      <trkpt lat="47.59918" lon="-2.26012">
        <ele>66.64</ele>
        <time>2013-07-14T09:13:23Z</time>
      </trkpt>
      <trkpt lat="47.5994" lon="-2.26005">
        <ele>65.69</ele>
        <time>2013-07-14T09:13:26Z</time>
      </trkpt>
      <trkpt lat="47.59961" lon="-2.25999">
        <ele>64.3</ele>
        <time>2013-07-14T09:13:29Z</time>
      </trkpt>
      <trkpt lat="47.59982" lon="-2.25994">
        <ele>63.17</ele>
        <time>2013-07-14T09:13:32Z</time>
      </trkpt>
      <trkpt lat="47.60003" lon="-2.25987">
        <ele>62.26</ele>
        <time>2013-07-14T09:13:35Z</time>
      </trkpt>
      <trkpt lat="47.60023" lon="-2.2598">
        <ele>61.32</ele>
        <time>2013-07-14T09:13:38Z</time>
      </trkpt>
      <trkpt lat="47.60043" lon="-2.25972">
        <ele>60.61</ele>
        <time>2013-07-14T09:13:41Z</time>
      </trkpt>
      <trkpt lat="47.60064" lon="-2.25965">
        <ele>59.37</ele>
        <time>2013-07-14T09:13:45Z</time>
      </trkpt>
      <trkpt lat="47.60068" lon="-2.25933">
        <ele>56.51</ele>
        <time>2013-07-14T09:13:50Z</time>
      </trkpt>
      <trkpt lat="47.60075" lon="-2.25907">
        <ele>55.5</ele>
        <time>2013-07-14T09:13:55Z</time>
      </trkpt>
      <trkpt lat="47.60091" lon="-2.25889">
        <ele>55.98</ele>
        <time>2013-07-14T09:13:59Z</time>
      </trkpt>
      <trkpt lat="47.60092" lon="-2.25858">
        <ele>59.03</ele>
        <time>2013-07-14T09:14:06Z</time>
      </trkpt>
      <trkpt lat="47.60101" lon="-2.25827">
        <ele>58.6</ele>
        <time>2013-07-14T09:14:09Z</time>
      </trkpt>
      <trkpt lat="47.60116" lon="-2.25805">
        <ele>56.6</ele>
        <time>2013-07-14T09:14:12Z</time>
      </trkpt>
      <trkpt lat="47.60133" lon="-2.25785">
        <ele>54.9</ele>
        <time>2013-07-14T09:14:15Z</time>
      </trkpt>
      <trkpt lat="47.60116" lon="-2.25774">
        <ele>53.63</ele>
        <time>2013-07-14T09:14:22Z</time>
      </trkpt>
      <trkpt lat="47.60115" lon="-2.25746">
        <ele>54.9</ele>
        <time>2013-07-14T09:14:30Z</time>
      </trkpt>
      <trkpt lat="47.60122" lon="-2.2572">
        <ele>55.74</ele>
        <time>2013-07-14T09:14:34Z</time>
      </trkpt>
      <trkpt lat="47.60122" lon="-2.2569">
        <ele>56.49</ele>
        <time>2013-07-14T09:14:39Z</time>
      </trkpt>
      <trkpt lat="47.60113" lon="-2.25665">
        <ele>59.23</ele>
        <time>2013-07-14T09:14:46Z</time>
      </trkpt>
      <trkpt lat="47.60082" lon="-2.25658">
        <ele>63.15</ele>
        <time>2013-07-14T09:15:08Z</time>
      </trkpt>
      <trkpt lat="47.60064" lon="-2.25665">
        <ele>63.27</ele>
        <time>2013-07-14T09:15:13Z</time>
      </trkpt>
      <trkpt lat="47.60049" lon="-2.25683">
        <ele>63.05</ele>
        <time>2013-07-14T09:15:18Z</time>
      </trkpt>
      <trkpt lat="47.60037" lon="-2.25709">
        <ele>64.55</ele>
        <time>2013-07-14T09:15:24Z</time>
      </trkpt>
      <trkpt lat="47.60026" lon="-2.25733">
        <ele>66.01</ele>
        <time>2013-07-14T09:15:31Z</time>
      </trkpt>
      <trkpt lat="47.60016" lon="-2.25764">
        <ele>65.43</ele>
        <time>2013-07-14T09:15:41Z</time>
      </trkpt>
      <trkpt lat="47.59996" lon="-2.25754">
        <ele>63.82</ele>
        <time>2013-07-14T09:15:46Z</time>
      </trkpt>
      <trkpt lat="47.59978" lon="-2.25735">
        <ele>62.07</ele>
        <time>2013-07-14T09:15:51Z</time>
      </trkpt>
      <trkpt lat="47.59963" lon="-2.25716">
        <ele>61.12</ele>
        <time>2013-07-14T09:15:56Z</time>
      </trkpt>
      <trkpt lat="47.59948" lon="-2.25693">
        <ele>62.29</ele>
        <time>2013-07-14T09:16:01Z</time>
      </trkpt>
      <trkpt lat="47.59937" lon="-2.25671">
        <ele>62.53</ele>
        <time>2013-07-14T09:16:05Z</time>
      </trkpt>
      <trkpt lat="47.59926" lon="-2.25647">
        <ele>62.53</ele>
        <time>2013-07-14T09:16:09Z</time>
      </trkpt>
      <trkpt lat="47.59915" lon="-2.25623">
        <ele>62.13</ele>
        <time>2013-07-14T09:16:13Z</time>
      </trkpt>
      <trkpt lat="47.59903" lon="-2.25601">
        <ele>61.91</ele>
        <time>2013-07-14T09:16:17Z</time>
      </trkpt>
      <trkpt lat="47.59892" lon="-2.25578">
        <ele>61.9</ele>
        <time>2013-07-14T09:16:21Z</time>
      </trkpt>
      <trkpt lat="47.5988" lon="-2.2555">
        <ele>61.82</ele>
        <time>2013-07-14T09:16:26Z</time>
      </trkpt>
      <trkpt lat="47.59872" lon="-2.25525">
        <ele>61.2</ele>
        <time>2013-07-14T09:16:32Z</time>
      </trkpt>
      <trkpt lat="47.59853" lon="-2.25527">
        <ele>58.35</ele>
        <time>2013-07-14T09:16:45Z</time>
      </trkpt>
      <trkpt lat="47.59834" lon="-2.25526">
        <ele>57.97</ele>
        <time>2013-07-14T09:16:53Z</time>
      </trkpt>
      <trkpt lat="47.59793" lon="-2.25508">
        <ele>59.85</ele>
        <time>2013-07-14T09:17:39Z</time>
      </trkpt>
      <trkpt lat="47.59755" lon="-2.25514">
        <ele>70.4</ele>
        <time>2013-07-14T09:18:29Z</time>
      </trkpt>
      <trkpt lat="47.59758" lon="-2.25547">
        <ele>78.96</ele>
        <time>2013-07-14T09:18:44Z</time>
      </trkpt>
      <trkpt lat="47.59761" lon="-2.25576">
        <ele>80.25</ele>
        <time>2013-07-14T09:18:48Z</time>
      </trkpt>
      <trkpt lat="47.59745" lon="-2.25633">
        <ele>78.96</ele>
        <time>2013-07-14T09:19:12Z</time>
      </trkpt>
      <trkpt lat="47.59731" lon="-2.25651">
        <ele>77.48</ele>
        <time>2013-07-14T09:19:19Z</time>
      </trkpt>
      <trkpt lat="47.59714" lon="-2.25636">
        <ele>75.77</ele>
        <time>2013-07-14T09:19:26Z</time>
      </trkpt>
      <trkpt lat="47.59706" lon="-2.25611">
        <ele>75.06</ele>
        <time>2013-07-14T09:19:32Z</time>
      </trkpt>
      <trkpt lat="47.59692" lon="-2.25587">
        <ele>75.1</ele>
        <time>2013-07-14T09:19:38Z</time>
      </trkpt>
      <trkpt lat="47.59675" lon="-2.25572">
        <ele>74.7</ele>
        <time>2013-07-14T09:19:43Z</time>
      </trkpt>
      <trkpt lat="47.59654" lon="-2.25566">
        <ele>74.41</ele>
        <time>2013-07-14T09:19:48Z</time>
      </trkpt>
      <trkpt lat="47.59633" lon="-2.25558">
        <ele>73.25</ele>
        <time>2013-07-14T09:19:52Z</time>
      </trkpt>
      <trkpt lat="47.59616" lon="-2.25546">
        <ele>71.94</ele>
        <time>2013-07-14T09:19:55Z</time>
      </trkpt>
      <trkpt lat="47.59598" lon="-2.2554">
        <ele>70.62</ele>
        <time>2013-07-14T09:19:58Z</time>
      </trkpt>
      <trkpt lat="47.59579" lon="-2.25532">
        <ele>69.26</ele>
        <time>2013-07-14T09:20:01Z</time>
      </trkpt>
      <trkpt lat="47.59559" lon="-2.25525">
        <ele>68.11</ele>
        <time>2013-07-14T09:20:04Z</time>
      </trkpt>
      <trkpt lat="47.59539" lon="-2.25519">
        <ele>67.09</ele>
        <time>2013-07-14T09:20:07Z</time>
      </trkpt>
      <trkpt lat="47.59519" lon="-2.25514">
        <ele>65.47</ele>
        <time>2013-07-14T09:20:10Z</time>
      </trkpt>
      <trkpt lat="47.59497" lon="-2.25511">
        <ele>63.96</ele>
        <time>2013-07-14T09:20:13Z</time>
      </trkpt>
      <trkpt lat="47.5948" lon="-2.25497">
        <ele>61.3</ele>
        <time>2013-07-14T09:20:18Z</time>
      </trkpt>
      <trkpt lat="47.59481" lon="-2.25471">
        <ele>59.96</ele>
        <time>2013-07-14T09:20:22Z</time>
      </trkpt>
      <trkpt lat="47.59482" lon="-2.25441">
        <ele>59.17</ele>
        <time>2013-07-14T09:20:26Z</time>
      </trkpt>
      <trkpt lat="47.59485" lon="-2.25409">
        <ele>58.59</ele>
        <time>2013-07-14T09:20:30Z</time>
      </trkpt>
      <trkpt lat="47.59485" lon="-2.25382">
        <ele>57.88</ele>
        <time>2013-07-14T09:20:33Z</time>
      </trkpt>
      <trkpt lat="47.59484" lon="-2.25354">
        <ele>56.81</ele>
        <time>2013-07-14T09:20:36Z</time>
      </trkpt>
      <trkpt lat="47.59479" lon="-2.25321">
        <ele>55.63</ele>
        <time>2013-07-14T09:20:40Z</time>
      </trkpt>
      <trkpt lat="47.59474" lon="-2.2529">
        <ele>54.95</ele>
        <time>2013-07-14T09:20:44Z</time>
      </trkpt>
      <trkpt lat="47.5947" lon="-2.25255">
        <ele>54.25</ele>
        <time>2013-07-14T09:20:48Z</time>
      </trkpt>
      <trkpt lat="47.59468" lon="-2.25228">
        <ele>53.66</ele>
        <time>2013-07-14T09:20:51Z</time>
      </trkpt>
      <trkpt lat="47.59468" lon="-2.252">
        <ele>53.16</ele>
        <time>2013-07-14T09:20:54Z</time>
      </trkpt>
      <trkpt lat="47.59469" lon="-2.25171">
        <ele>52.66</ele>
        <time>2013-07-14T09:20:57Z</time>
      </trkpt>
      <trkpt lat="47.59469" lon="-2.25142">
        <ele>52.22</ele>
        <time>2013-07-14T09:21:00Z</time>
      </trkpt>
      <trkpt lat="47.59469" lon="-2.25113">
        <ele>51.98</ele>
        <time>2013-07-14T09:21:03Z</time>
      </trkpt>
      <trkpt lat="47.59471" lon="-2.25086">
        <ele>51.95</ele>
        <time>2013-07-14T09:21:06Z</time>
      </trkpt>
      <trkpt lat="47.59475" lon="-2.25059">
        <ele>52.08</ele>
        <time>2013-07-14T09:21:09Z</time>
      </trkpt>
      <trkpt lat="47.59483" lon="-2.25027">
        <ele>52.31</ele>
        <time>2013-07-14T09:21:13Z</time>
      </trkpt>
      <trkpt lat="47.59489" lon="-2.24997">
        <ele>52.66</ele>
        <time>2013-07-14T09:21:17Z</time>
      </trkpt>
      <trkpt lat="47.59493" lon="-2.24971">
        <ele>53.06</ele>
        <time>2013-07-14T09:21:21Z</time>
      </trkpt>
      <trkpt lat="47.59494" lon="-2.24944">
        <ele>53.41</ele>
        <time>2013-07-14T09:21:25Z</time>
      </trkpt>
      <trkpt lat="47.59495" lon="-2.24913">
        <ele>53.78</ele>
        <time>2013-07-14T09:21:30Z</time>
      </trkpt>
      <trkpt lat="47.59494" lon="-2.24884">
        <ele>54.12</ele>
        <time>2013-07-14T09:21:35Z</time>
      </trkpt>
      <trkpt lat="47.59505" lon="-2.24859">
        <ele>54.79</ele>
        <time>2013-07-14T09:21:40Z</time>
      </trkpt>
      <trkpt lat="47.59526" lon="-2.24857">
        <ele>57</ele>
        <time>2013-07-14T09:21:46Z</time>
      </trkpt>
      <trkpt lat="47.59544" lon="-2.24857">
        <ele>59.52</ele>
        <time>2013-07-14T09:21:52Z</time>
      </trkpt>
      <trkpt lat="47.59565" lon="-2.24856">
        <ele>61.27</ele>
        <time>2013-07-14T09:21:59Z</time>
      </trkpt>
      <trkpt lat="47.59583" lon="-2.24853">
        <ele>62.39</ele>
        <time>2013-07-14T09:22:05Z</time>
      </trkpt>
      <trkpt lat="47.59603" lon="-2.24847">
        <ele>63.72</ele>
        <time>2013-07-14T09:22:12Z</time>
      </trkpt>
      <trkpt lat="47.59624" lon="-2.24842">
        <ele>64.32</ele>
        <time>2013-07-14T09:22:19Z</time>
      </trkpt>
      <trkpt lat="47.59644" lon="-2.24841">
        <ele>64.24</ele>
        <time>2013-07-14T09:22:25Z</time>
      </trkpt>
      <trkpt lat="47.59663" lon="-2.24842">
        <ele>63.91</ele>
        <time>2013-07-14T09:22:29Z</time>
      </trkpt>
      <trkpt lat="47.59682" lon="-2.24842">
        <ele>63.76</ele>
        <time>2013-07-14T09:22:33Z</time>
      </trkpt>
      <trkpt lat="47.59689" lon="-2.24812">
        <ele>62.47</ele>
        <time>2013-07-14T09:22:40Z</time>
      </trkpt>
      <trkpt lat="47.59688" lon="-2.24781">
        <ele>61.74</ele>
        <time>2013-07-14T09:22:45Z</time>
      </trkpt>
      <trkpt lat="47.59687" lon="-2.24754">
        <ele>61.52</ele>
        <time>2013-07-14T09:22:49Z</time>
      </trkpt>
      <trkpt lat="47.59686" lon="-2.24727">
        <ele>61.57</ele>
        <time>2013-07-14T09:22:53Z</time>
      </trkpt>
      <trkpt lat="47.59684" lon="-2.24696">
        <ele>61.64</ele>
        <time>2013-07-14T09:22:57Z</time>
      </trkpt>
      <trkpt lat="47.59682" lon="-2.24664">
        <ele>61.08</ele>
        <time>2013-07-14T09:23:01Z</time>
      </trkpt>
      <trkpt lat="47.5968" lon="-2.24637">
        <ele>60.48</ele>
        <time>2013-07-14T09:23:05Z</time>
      </trkpt>
      <trkpt lat="47.59677" lon="-2.24607">
        <ele>60.03</ele>
        <time>2013-07-14T09:23:10Z</time>
      </trkpt>
      <trkpt lat="47.59676" lon="-2.24579">
        <ele>59.8</ele>
        <time>2013-07-14T09:23:15Z</time>
      </trkpt>
      <trkpt lat="47.59677" lon="-2.24551">
        <ele>59.1</ele>
        <time>2013-07-14T09:23:22Z</time>
      </trkpt>
      <trkpt lat="47.59695" lon="-2.24546">
        <ele>58.4</ele>
        <time>2013-07-14T09:23:26Z</time>
      </trkpt>
      <trkpt lat="47.59721" lon="-2.24562">
        <ele>57.63</ele>
        <time>2013-07-14T09:23:29Z</time>
      </trkpt>
      <trkpt lat="47.5974" lon="-2.24561">
        <ele>55.92</ele>
        <time>2013-07-14T09:23:34Z</time>
      </trkpt>
      <trkpt lat="47.5974" lon="-2.24532">
        <ele>54.78</ele>
        <time>2013-07-14T09:23:41Z</time>
      </trkpt>
      <trkpt lat="47.59745" lon="-2.24506">
        <ele>54.71</ele>
        <time>2013-07-14T09:23:45Z</time>
      </trkpt>
      <trkpt lat="47.59751" lon="-2.24479">
        <ele>54.15</ele>
        <time>2013-07-14T09:23:49Z</time>
      </trkpt>
      <trkpt lat="47.59756" lon="-2.24453">
        <ele>53.56</ele>
        <time>2013-07-14T09:23:53Z</time>
      </trkpt>
      <trkpt lat="47.5976" lon="-2.24424">
        <ele>53.18</ele>
        <time>2013-07-14T09:23:59Z</time>
      </trkpt>
    </trkseg>
  </trk>
</gpx>